Wetterdaten: Samstag, 04.11.2017
Datum Zeit Temp. A. Pool Temp. Feuchte A. Luftdruck Regen Wind Richtung Richtung Sonnenschein ET UV Solar Taupunkt Windchill Windben Empfang
04.11.2017 00:00 4,6 C 8,3 C 94 % 1015,0 hPa 0,0 l/m 7,7 km/h (2 Bft) O-NO 58 0 min 0,000 mm 0,0 UV-I 0 W/m 3,7 C 3,4 C 9,7 km/h (2 Bft) 100,00 %
04.11.2017 00:02 4,7 C 8,3 C 94 % 1015,1 hPa 0,0 l/m 7,3 km/h (2 Bft) O-NO 76 0 min 0,000 mm 0,0 UV-I 0 W/m 3,8 C 3,9 C 11,3 km/h (2 Bft) 100,00 %
04.11.2017 00:04 4,7 C 8,3 C 94 % 1015,1 hPa 0,0 l/m 8,7 km/h (2 Bft) O-NO 63 0 min 0,000 mm 0,0 UV-I 0 W/m 3,8 C 2,7 C 12,9 km/h (3 Bft) 100,00 %
04.11.2017 00:06 4,8 C 8,3 C 94 % 1015,1 hPa 0,0 l/m 6,6 km/h (2 Bft) O-NO 77 0 min 0,000 mm 0,0 UV-I 0 W/m 3,9 C 4,6 C 11,3 km/h (2 Bft) 96,61 %
04.11.2017 00:08 4,8 C 8,3 C 94 % 1015,1 hPa 0,0 l/m 6,3 km/h (2 Bft) O 87 0 min 0,000 mm 0,0 UV-I 0 W/m 3,9 C 4,8 C 8,0 km/h (2 Bft) 94,74 %
04.11.2017 00:10 4,9 C 8,3 C 94 % 1015,0 hPa 0,0 l/m 6,2 km/h (2 Bft) O-NO 66 0 min 0,000 mm 0,0 UV-I 0 W/m 4,0 C 4,9 C 9,7 km/h (2 Bft) 97,87 %
04.11.2017 00:12 4,9 C 8,3 C 93 % 1015,0 hPa 0,0 l/m 6,0 km/h (2 Bft) NO 55 0 min 0,000 mm 0,0 UV-I 0 W/m 3,9 C 4,9 C 9,7 km/h (2 Bft) 96,23 %
04.11.2017 00:14 4,9 C 8,3 C 93 % 1015,0 hPa 0,0 l/m 6,9 km/h (2 Bft) O-NO 59 0 min 0,000 mm 0,0 UV-I 0 W/m 3,9 C 4,5 C 9,7 km/h (2 Bft) 100,00 %
04.11.2017 00:16 4,9 C 8,3 C 93 % 1014,9 hPa 0,0 l/m 6,8 km/h (2 Bft) NO 50 0 min 0,000 mm 0,0 UV-I 0 W/m 3,9 C 4,6 C 9,7 km/h (2 Bft) 95,74 %
04.11.2017 00:18 4,9 C 7,8 C 93 % 1014,9 hPa 0,0 l/m 7,2 km/h (2 Bft) O-NO 69 0 min 0,000 mm 0,0 UV-I 0 W/m 3,9 C 4,2 C 9,7 km/h (2 Bft) 98,11 %
04.11.2017 00:20 4,8 C 7,8 C 92 % 1014,9 hPa 0,0 l/m 6,5 km/h (2 Bft) O-NO 75 0 min 0,000 mm 0,0 UV-I 0 W/m 3,6 C 4,7 C 12,9 km/h (3 Bft) 97,37 %
04.11.2017 00:22 4,7 C 7,8 C 92 % 1014,9 hPa 0,0 l/m 6,1 km/h (2 Bft) O-NO 61 0 min 0,000 mm 0,0 UV-I 0 W/m 3,5 C 4,7 C 8,0 km/h (2 Bft) 98,11 %
04.11.2017 00:24 4,6 C 7,8 C 92 % 1014,9 hPa 0,0 l/m 4,9 km/h (1 Bft) O-NO 65 0 min 0,000 mm 0,0 UV-I 0 W/m 3,4 C 4,6 C 6,4 km/h (2 Bft) 96,00 %
04.11.2017 00:26 4,6 C 7,8 C 93 % 1014,9 hPa 0,0 l/m 4,9 km/h (1 Bft) O-NO 60 0 min 0,000 mm 0,0 UV-I 0 W/m 3,6 C 4,6 C 8,0 km/h (2 Bft) 95,12 %
04.11.2017 00:28 4,6 C 7,8 C 93 % 1014,8 hPa 0,0 l/m 5,1 km/h (1 Bft) O-NO 64 0 min 0,000 mm 0,0 UV-I 0 W/m 3,6 C 4,6 C 8,0 km/h (2 Bft) 92,45 %
04.11.2017 00:30 4,6 C 7,8 C 93 % 1014,8 hPa 0,0 l/m 4,7 km/h (1 Bft) O-NO 63 0 min 0,000 mm 0,0 UV-I 0 W/m 3,6 C 4,6 C 6,4 km/h (2 Bft) 100,00 %
04.11.2017 00:32 4,6 C 7,8 C 93 % 1014,8 hPa 0,0 l/m 4,3 km/h (1 Bft) O-NO 65 0 min 0,000 mm 0,0 UV-I 0 W/m 3,6 C 4,6 C 6,4 km/h (2 Bft) 96,55 %
04.11.2017 00:34 4,6 C 7,8 C 93 % 1014,8 hPa 0,0 l/m 4,1 km/h (1 Bft) O-NO 65 0 min 0,000 mm 0,0 UV-I 0 W/m 3,6 C 4,6 C 6,4 km/h (2 Bft) 95,74 %
04.11.2017 00:36 4,6 C 7,8 C 93 % 1014,8 hPa 0,0 l/m 2,2 km/h (1 Bft) O-NO 65 0 min 0,000 mm 0,0 UV-I 0 W/m 3,6 C 4,6 C 3,2 km/h (1 Bft) 92,45 %
04.11.2017 00:38 4,5 C 7,8 C 93 % 1014,8 hPa 0,0 l/m 3,7 km/h (1 Bft) O-NO 65 0 min 0,000 mm 0,0 UV-I 0 W/m 3,5 C 4,5 C 4,8 km/h (1 Bft) 96,00 %
04.11.2017 00:40 4,5 C 7,8 C 93 % 1014,7 hPa 0,0 l/m 4,6 km/h (1 Bft) O-NO 65 0 min 0,000 mm 0,0 UV-I 0 W/m 3,5 C 4,5 C 6,4 km/h (2 Bft) 94,87 %
04.11.2017 00:42 4,5 C 7,8 C 93 % 1014,7 hPa 0,0 l/m 4,5 km/h (1 Bft) O-NO 63 0 min 0,000 mm 0,0 UV-I 0 W/m 3,5 C 4,5 C 8,0 km/h (2 Bft) 94,23 %
04.11.2017 00:44 4,4 C 7,8 C 93 % 1014,7 hPa 0,0 l/m 4,1 km/h (1 Bft) O-NO 63 0 min 0,000 mm 0,0 UV-I 0 W/m 3,4 C 4,4 C 4,8 km/h (1 Bft) 94,87 %
04.11.2017 00:46 4,3 C 7,8 C 93 % 1014,6 hPa 0,0 l/m 4,1 km/h (1 Bft) O-NO 63 0 min 0,000 mm 0,0 UV-I 0 W/m 3,3 C 4,3 C 4,8 km/h (1 Bft) 96,23 %
04.11.2017 00:48 4,2 C 7,8 C 94 % 1014,6 hPa 0,0 l/m 3,8 km/h (1 Bft) O-NO 63 0 min 0,000 mm 0,0 UV-I 0 W/m 3,3 C 4,2 C 6,4 km/h (2 Bft) 96,00 %
04.11.2017 00:50 4,3 C 7,8 C 94 % 1014,6 hPa 0,0 l/m 4,2 km/h (1 Bft) O-NO 63 0 min 0,000 mm 0,0 UV-I 0 W/m 3,4 C 4,3 C 6,4 km/h (2 Bft) 93,62 %
04.11.2017 00:52 4,3 C 7,8 C 94 % 1014,6 hPa 0,0 l/m 3,5 km/h (1 Bft) O-NO 63 0 min 0,000 mm 0,0 UV-I 0 W/m 3,4 C 4,3 C 4,8 km/h (1 Bft) 97,37 %
04.11.2017 00:54 4,2 C 7,8 C 94 % 1014,5 hPa 0,0 l/m 4,8 km/h (1 Bft) O-NO 60 0 min 0,000 mm 0,0 UV-I 0 W/m 3,3 C 4,2 C 6,4 km/h (2 Bft) 94,00 %
04.11.2017 00:56 4,2 C 7,8 C 94 % 1014,6 hPa 0,0 l/m 5,1 km/h (1 Bft) NO 56 0 min 0,000 mm 0,0 UV-I 0 W/m 3,3 C 4,2 C 8,0 km/h (2 Bft) 95,74 %
04.11.2017 00:58 4,2 C 7,8 C 94 % 1014,4 hPa 0,0 l/m 5,3 km/h (1 Bft) O-NO 58 0 min 0,000 mm 0,0 UV-I 0 W/m 3,3 C 4,2 C 8,0 km/h (2 Bft) 94,00 %
04.11.2017 01:00 4,1 C 7,8 C 94 % 1014,5 hPa 0,0 l/m 3,5 km/h (1 Bft) O-NO 59 0 min 0,000 mm 0,0 UV-I 0 W/m 3,2 C 4,1 C 6,4 km/h (2 Bft) 96,00 %
04.11.2017 01:02 4,1 C 7,8 C 94 % 1014,6 hPa 0,0 l/m 3,3 km/h (1 Bft) O-NO 59 0 min 0,000 mm 0,0 UV-I 0 W/m 3,2 C 4,1 C 4,8 km/h (1 Bft) 91,67 %
04.11.2017 01:04 4,1 C 7,8 C 94 % 1014,6 hPa 0,0 l/m 2,6 km/h (1 Bft) O-NO 59 0 min 0,000 mm 0,0 UV-I 0 W/m 3,2 C 4,1 C 4,8 km/h (1 Bft) 93,18 %
04.11.2017 01:06 4,1 C 7,8 C 94 % 1014,5 hPa 0,0 l/m 2,7 km/h (1 Bft) O-NO 59 0 min 0,000 mm 0,0 UV-I 0 W/m 3,2 C 4,1 C 4,8 km/h (1 Bft) 98,11 %
04.11.2017 01:08 4,0 C 7,8 C 94 % 1014,5 hPa 0,0 l/m 1,7 km/h (1 Bft) O-NO 59 0 min 0,000 mm 0,0 UV-I 0 W/m 3,1 C 4,0 C 3,2 km/h (1 Bft) 95,83 %
04.11.2017 01:10 3,9 C 7,8 C 94 % 1014,5 hPa 0,0 l/m 1,5 km/h (1 Bft) O-NO 59 0 min 0,000 mm 0,0 UV-I 0 W/m 3,0 C 3,9 C 3,2 km/h (1 Bft) 100,00 %
04.11.2017 01:12 3,9 C 7,8 C 94 % 1014,5 hPa 0,0 l/m 1,6 km/h (1 Bft) O-NO 59 0 min 0,000 mm 0,0 UV-I 0 W/m 3,0 C 3,9 C 3,2 km/h (1 Bft) 95,74 %
04.11.2017 01:14 3,9 C 7,8 C 94 % 1014,5 hPa 0,0 l/m 1,2 km/h (1 Bft) O-NO 59 0 min 0,000 mm 0,0 UV-I 0 W/m 3,0 C 3,9 C 3,2 km/h (1 Bft) 100,00 %
04.11.2017 01:16 3,9 C 7,8 C 94 % 1014,5 hPa 0,0 l/m 1,6 km/h (1 Bft) O-NO 59 0 min 0,000 mm 0,0 UV-I 0 W/m 3,0 C 3,9 C 3,2 km/h (1 Bft) 94,87 %
04.11.2017 01:18 3,9 C 7,8 C 94 % 1014,6 hPa 0,0 l/m 1,8 km/h (1 Bft) O-NO 59 0 min 0,000 mm 0,0 UV-I 0 W/m 3,0 C 3,9 C 3,2 km/h (1 Bft) 100,00 %
04.11.2017 01:20 3,9 C 7,8 C 94 % 1014,6 hPa 0,0 l/m 1,4 km/h (1 Bft) O-NO 59 0 min 0,000 mm 0,0 UV-I 0 W/m 3,0 C 3,9 C 3,2 km/h (1 Bft) 100,00 %
04.11.2017 01:22 3,9 C 7,8 C 94 % 1014,6 hPa 0,0 l/m 2,8 km/h (1 Bft) O-NO 59 0 min 0,000 mm 0,0 UV-I 0 W/m 3,0 C 3,9 C 4,8 km/h (1 Bft) 100,00 %
04.11.2017 01:24 3,8 C 7,8 C 94 % 1014,5 hPa 0,0 l/m 2,6 km/h (1 Bft) O-NO 59 0 min 0,000 mm 0,0 UV-I 0 W/m 2,9 C 3,8 C 3,2 km/h (1 Bft) 100,00 %
04.11.2017 01:26 3,8 C 7,8 C 94 % 1014,5 hPa 0,0 l/m 2,6 km/h (1 Bft) O-NO 59 0 min 0,000 mm 0,0 UV-I 0 W/m 2,9 C 3,8 C 4,8 km/h (1 Bft) 100,00 %
04.11.2017 01:28 3,8 C 7,8 C 94 % 1014,5 hPa 0,0 l/m 2,1 km/h (1 Bft) O-NO 59 0 min 0,000 mm 0,0 UV-I 0 W/m 2,9 C 3,8 C 3,2 km/h (1 Bft) 100,00 %
04.11.2017 01:30 3,8 C 7,8 C 94 % 1014,5 hPa 0,0 l/m 0,1 km/h (0 Bft) O-NO 59 0 min 0,000 mm 0,0 UV-I 0 W/m 2,9 C 3,8 C 1,6 km/h (1 Bft) 97,37 %
04.11.2017 01:32 3,8 C 7,8 C 95 % 1014,5 hPa 0,0 l/m 0,3 km/h (0 Bft) O-NO 59 0 min 0,000 mm 0,0 UV-I 0 W/m 3,1 C 3,8 C 1,6 km/h (1 Bft) 100,00 %
04.11.2017 01:34 3,8 C 7,8 C 95 % 1014,5 hPa 0,0 l/m 1,5 km/h (1 Bft) O-NO 59 0 min 0,000 mm 0,0 UV-I 0 W/m 3,1 C 3,8 C 3,2 km/h (1 Bft) 100,00 %
04.11.2017 01:36 3,7 C 7,8 C 94 % 1014,4 hPa 0,0 l/m 1,3 km/h (1 Bft) O-NO 59 0 min 0,000 mm 0,0 UV-I 0 W/m 2,8 C 3,7 C 3,2 km/h (1 Bft) 97,37 %
04.11.2017 01:38 3,8 C 7,8 C 94 % 1014,5 hPa 0,0 l/m 0,1 km/h (0 Bft) O-NO 59 0 min 0,000 mm 0,0 UV-I 0 W/m 2,9 C 3,8 C 1,6 km/h (1 Bft) 100,00 %
04.11.2017 01:40 3,7 C 7,8 C 94 % 1014,4 hPa 0,0 l/m 0,0 km/h (0 Bft) O-NO 59 0 min 0,000 mm 0,0 UV-I 0 W/m 2,8 C 3,7 C 0,0 km/h (0 Bft) 100,00 %
04.11.2017 01:42 3,8 C 7,8 C 95 % 1014,4 hPa 0,0 l/m 0,0 km/h (0 Bft) O-NO 59 0 min 0,000 mm 0,0 UV-I 0 W/m 3,1 C 3,8 C 0,0 km/h (0 Bft) 100,00 %
04.11.2017 01:44 3,8 C 7,8 C 95 % 1014,4 hPa 0,0 l/m 0,8 km/h (0 Bft) O-NO 59 0 min 0,000 mm 0,0 UV-I 0 W/m 3,1 C 3,8 C 1,6 km/h (1 Bft) 97,56 %
04.11.2017 01:46 3,8 C 7,8 C 95 % 1014,4 hPa 0,0 l/m 0,9 km/h (0 Bft) O-NO 59 0 min 0,000 mm 0,0 UV-I 0 W/m 3,1 C 3,8 C 1,6 km/h (1 Bft) 100,00 %
04.11.2017 01:48 3,8 C 7,8 C 95 % 1014,3 hPa 0,0 l/m 0,6 km/h (0 Bft) O-NO 59 0 min 0,000 mm 0,0 UV-I 0 W/m 3,1 C 3,8 C 1,6 km/h (1 Bft) 100,00 %
04.11.2017 01:50 3,8 C 7,8 C 95 % 1014,4 hPa 0,0 l/m 0,6 km/h (0 Bft) O-NO 59 0 min 0,000 mm 0,0 UV-I 0 W/m 3,1 C 3,8 C 1,6 km/h (1 Bft) 100,00 %
04.11.2017 01:52 3,7 C 7,8 C 94 % 1014,2 hPa 0,0 l/m 0,0 km/h (0 Bft) O-NO 59 0 min 0,000 mm 0,0 UV-I 0 W/m 2,8 C 3,7 C 0,0 km/h (0 Bft) 100,00 %
04.11.2017 01:54 3,6 C 7,8 C 95 % 1014,3 hPa 0,0 l/m 0,0 km/h (0 Bft) O-NO 59 0 min 0,000 mm 0,0 UV-I 0 W/m 2,9 C 3,6 C 0,0 km/h (0 Bft) 97,87 %
04.11.2017 01:56 3,5 C 7,8 C 95 % 1014,2 hPa 0,0 l/m 0,0 km/h (0 Bft) O-NO 59 0 min 0,000 mm 0,0 UV-I 0 W/m 2,8 C 3,5 C 0,0 km/h (0 Bft) 100,00 %
04.11.2017 01:58 3,5 C 7,8 C 95 % 1014,3 hPa 0,0 l/m 0,0 km/h (0 Bft) O-NO 59 0 min 0,000 mm 0,0 UV-I 0 W/m 2,8 C 3,5 C 0,0 km/h (0 Bft) 100,00 %
04.11.2017 02:00 3,4 C 7,8 C 95 % 1014,3 hPa 0,0 l/m 0,0 km/h (0 Bft) O-NO 59 0 min 0,000 mm 0,0 UV-I 0 W/m 2,7 C 3,4 C 0,0 km/h (0 Bft) 97,87 %
04.11.2017 02:02 3,4 C 7,8 C 95 % 1014,3 hPa 0,0 l/m 0,0 km/h (0 Bft) O-NO 59 0 min 0,000 mm 0,0 UV-I 0 W/m 2,7 C 3,4 C 0,0 km/h (0 Bft) 100,00 %
04.11.2017 02:04 3,3 C 7,8 C 95 % 1014,3 hPa 0,0 l/m 0,0 km/h (0 Bft) O-NO 59 0 min 0,000 mm 0,0 UV-I 0 W/m 2,6 C 3,3 C 0,0 km/h (0 Bft) 100,00 %
04.11.2017 02:06 2,9 C 7,8 C 94 % 1014,3 hPa 0,0 l/m 0,0 km/h (0 Bft) O-NO 59 0 min 0,000 mm 0,0 UV-I 0 W/m 2,0 C 2,9 C 0,0 km/h (0 Bft) 100,00 %
04.11.2017 02:08 2,7 C 7,8 C 94 % 1014,3 hPa 0,0 l/m 0,0 km/h (0 Bft) O-NO 59 0 min 0,000 mm 0,0 UV-I 0 W/m 1,8 C 2,7 C 0,0 km/h (0 Bft) 100,00 %
04.11.2017 02:10 2,3 C 7,8 C 94 % 1014,3 hPa 0,0 l/m 0,0 km/h (0 Bft) O-NO 59 0 min 0,000 mm 0,0 UV-I 0 W/m 1,4 C 2,3 C 0,0 km/h (0 Bft) 100,00 %
04.11.2017 02:12 2,0 C 7,8 C 94 % 1014,2 hPa 0,0 l/m 0,0 km/h (0 Bft) O-NO 59 0 min 0,000 mm 0,0 UV-I 0 W/m 1,1 C 2,0 C 0,0 km/h (0 Bft) 100,00 %
04.11.2017 02:14 2,0 C 7,8 C 95 % 1014,2 hPa 0,0 l/m 0,0 km/h (0 Bft) O-NO 59 0 min 0,000 mm 0,0 UV-I 0 W/m 1,3 C 2,0 C 0,0 km/h (0 Bft) 97,14 %
04.11.2017 02:16 2,1 C 7,8 C 95 % 1014,2 hPa 0,0 l/m 0,0 km/h (0 Bft) O-NO 59 0 min 0,000 mm 0,0 UV-I 0 W/m 1,4 C 2,1 C 0,0 km/h (0 Bft) 98,21 %
04.11.2017 02:18 2,3 C 7,8 C 96 % 1014,2 hPa 0,0 l/m 0,0 km/h (0 Bft) O-NO 59 0 min 0,000 mm 0,0 UV-I 0 W/m 1,7 C 2,3 C 0,0 km/h (0 Bft) 100,00 %
04.11.2017 02:20 2,4 C 7,8 C 96 % 1014,2 hPa 0,0 l/m 0,0 km/h (0 Bft) O-NO 59 0 min 0,000 mm 0,0 UV-I 0 W/m 1,8 C 2,4 C 0,0 km/h (0 Bft) 100,00 %
04.11.2017 02:22 2,6 C 7,8 C 96 % 1014,2 hPa 0,0 l/m 0,0 km/h (0 Bft) O-NO 59 0 min 0,000 mm 0,0 UV-I 0 W/m 2,0 C 2,6 C 0,0 km/h (0 Bft) 100,00 %
04.11.2017 02:24 2,5 C 7,8 C 96 % 1014,2 hPa 0,0 l/m 0,0 km/h (0 Bft) O-NO 59 0 min 0,000 mm 0,0 UV-I 0 W/m 1,9 C 2,5 C 0,0 km/h (0 Bft) 100,00 %
04.11.2017 02:26 2,4 C 7,8 C 96 % 1014,3 hPa 0,0 l/m 0,0 km/h (0 Bft) O-NO 59 0 min 0,000 mm 0,0 UV-I 0 W/m 1,8 C 2,4 C 0,0 km/h (0 Bft) 100,00 %
04.11.2017 02:28 2,3 C 7,8 C 95 % 1014,3 hPa 0,0 l/m 0,0 km/h (0 Bft) O-NO 59 0 min 0,000 mm 0,0 UV-I 0 W/m 1,6 C 2,3 C 0,0 km/h (0 Bft) 98,46 %
04.11.2017 02:30 2,1 C 7,8 C 95 % 1014,3 hPa 0,0 l/m 0,0 km/h (0 Bft) O-NO 59 0 min 0,000 mm 0,0 UV-I 0 W/m 1,4 C 2,1 C 0,0 km/h (0 Bft) 100,00 %
04.11.2017 02:32 1,9 C 7,8 C 95 % 1014,3 hPa 0,0 l/m 0,0 km/h (0 Bft) O-NO 59 0 min 0,000 mm 0,0 UV-I 0 W/m 1,2 C 1,9 C 0,0 km/h (0 Bft) 100,00 %
04.11.2017 02:34 1,8 C 7,8 C 95 % 1014,3 hPa 0,0 l/m 0,0 km/h (0 Bft) O-NO 59 0 min 0,000 mm 0,0 UV-I 0 W/m 1,1 C 1,8 C 0,0 km/h (0 Bft) 100,00 %
04.11.2017 02:36 1,9 C 7,8 C 96 % 1014,3 hPa 0,0 l/m 0,0 km/h (0 Bft) O-NO 59 0 min 0,000 mm 0,0 UV-I 0 W/m 1,3 C 1,9 C 0,0 km/h (0 Bft) 100,00 %
04.11.2017 02:38 2,0 C 7,8 C 96 % 1014,2 hPa 0,0 l/m 0,0 km/h (0 Bft) O-NO 59 0 min 0,000 mm 0,0 UV-I 0 W/m 1,4 C 2,0 C 0,0 km/h (0 Bft) 100,00 %
04.11.2017 02:40 1,7 C 7,8 C 95 % 1014,1 hPa 0,0 l/m 0,0 km/h (0 Bft) O-NO 59 0 min 0,000 mm 0,0 UV-I 0 W/m 1,0 C 1,7 C 0,0 km/h (0 Bft) 93,62 %
04.11.2017 02:42 1,6 C 7,8 C 95 % 1014,1 hPa 0,0 l/m 0,0 km/h (0 Bft) O-NO 59 0 min 0,000 mm 0,0 UV-I 0 W/m 0,9 C 1,6 C 0,0 km/h (0 Bft) 92,31 %
04.11.2017 02:44 1,7 C 7,8 C 96 % 1014,1 hPa 0,0 l/m 0,0 km/h (0 Bft) O-NO 59 0 min 0,000 mm 0,0 UV-I 0 W/m 1,1 C 1,7 C 0,0 km/h (0 Bft) 98,11 %
04.11.2017 02:46 1,9 C 7,8 C 96 % 1014,2 hPa 0,0 l/m 0,0 km/h (0 Bft) O-NO 59 0 min 0,000 mm 0,0 UV-I 0 W/m 1,3 C 1,9 C 0,0 km/h (0 Bft) 97,87 %
04.11.2017 02:48 2,0 C 7,8 C 96 % 1014,2 hPa 0,0 l/m 0,0 km/h (0 Bft) O-NO 59 0 min 0,000 mm 0,0 UV-I 0 W/m 1,4 C 2,0 C 0,0 km/h (0 Bft) 98,11 %
04.11.2017 02:50 2,0 C 7,8 C 96 % 1014,2 hPa 0,0 l/m 0,0 km/h (0 Bft) O-NO 59 0 min 0,000 mm 0,0 UV-I 0 W/m 1,4 C 2,0 C 0,0 km/h (0 Bft) 97,14 %
04.11.2017 02:52 2,1 C 7,8 C 96 % 1014,2 hPa 0,0 l/m 0,0 km/h (0 Bft) O-NO 59 0 min 0,000 mm 0,0 UV-I 0 W/m 1,5 C 2,1 C 0,0 km/h (0 Bft) 95,74 %
04.11.2017 02:54 1,9 C 7,8 C 96 % 1014,2 hPa 0,0 l/m 0,7 km/h (0 Bft) O-NO 59 0 min 0,000 mm 0,0 UV-I 0 W/m 1,3 C 1,9 C 1,6 km/h (1 Bft) 94,34 %
04.11.2017 02:56 1,9 C 7,8 C 96 % 1014,2 hPa 0,0 l/m 1,2 km/h (1 Bft) O-NO 59 0 min 0,000 mm 0,0 UV-I 0 W/m 1,3 C 1,9 C 1,6 km/h (1 Bft) 97,56 %
04.11.2017 02:59 1,9 C 7,8 C 96 % 1014,2 hPa 0,0 l/m 1,6 km/h (1 Bft) O-NO 59 0 min 0,000 mm 0,0 UV-I 0 W/m 1,3 C 1,9 C 3,2 km/h (1 Bft) 96,20 %
04.11.2017 03:00 1,9 C 7,8 C 96 % 1014,3 hPa 0,0 l/m 2,4 km/h (1 Bft) O-NO 59 0 min 0,000 mm 0,0 UV-I 0 W/m 1,3 C 1,9 C 3,2 km/h (1 Bft) 100,00 %
04.11.2017 03:02 2,1 C 7,8 C 96 % 1014,2 hPa 0,0 l/m 2,3 km/h (1 Bft) O-NO 59 0 min 0,000 mm 0,0 UV-I 0 W/m 1,5 C 2,1 C 3,2 km/h (1 Bft) 96,00 %
04.11.2017 03:04 1,8 C 7,8 C 96 % 1014,2 hPa 0,0 l/m 0,2 km/h (0 Bft) O-NO 59 0 min 0,000 mm 0,0 UV-I 0 W/m 1,2 C 1,8 C 1,6 km/h (1 Bft) 98,00 %
04.11.2017 03:06 1,7 C 7,8 C 96 % 1014,2 hPa 0,0 l/m 0,3 km/h (0 Bft) O-NO 59 0 min 0,000 mm 0,0 UV-I 0 W/m 1,1 C 1,7 C 1,6 km/h (1 Bft) 97,37 %
04.11.2017 03:08 1,5 C 7,8 C 96 % 1014,2 hPa 0,0 l/m 1,8 km/h (1 Bft) O-NO 59 0 min 0,000 mm 0,0 UV-I 0 W/m 0,9 C 1,5 C 3,2 km/h (1 Bft) 98,11 %
04.11.2017 03:10 1,7 C 7,8 C 96 % 1014,2 hPa 0,0 l/m 3,0 km/h (1 Bft) O-NO 59 0 min 0,000 mm 0,0 UV-I 0 W/m 1,1 C 1,7 C 3,2 km/h (1 Bft) 95,83 %
04.11.2017 03:12 1,8 C 7,8 C 96 % 1014,2 hPa 0,0 l/m 1,8 km/h (1 Bft) O-NO 59 0 min 0,000 mm 0,0 UV-I 0 W/m 1,2 C 1,8 C 3,2 km/h (1 Bft) 97,37 %
04.11.2017 03:14 1,9 C 7,8 C 96 % 1014,2 hPa 0,0 l/m 2,8 km/h (1 Bft) O-NO 59 0 min 0,000 mm 0,0 UV-I 0 W/m 1,3 C 1,9 C 4,8 km/h (1 Bft) 97,87 %
04.11.2017 03:16 1,7 C 7,8 C 96 % 1014,2 hPa 0,0 l/m 0,7 km/h (0 Bft) O-NO 59 0 min 0,000 mm 0,0 UV-I 0 W/m 1,1 C 1,7 C 3,2 km/h (1 Bft) 92,11 %
04.11.2017 03:18 1,5 C 7,8 C 96 % 1014,2 hPa 0,0 l/m 0,0 km/h (0 Bft) O-NO 59 0 min 0,000 mm 0,0 UV-I 0 W/m 0,9 C 1,5 C 0,0 km/h (0 Bft) 95,83 %
04.11.2017 03:20 1,4 C 7,8 C 96 % 1014,2 hPa 0,0 l/m 0,0 km/h (0 Bft) O-NO 59 0 min 0,000 mm 0,0 UV-I 0 W/m 0,8 C 1,4 C 0,0 km/h (0 Bft) 100,00 %
04.11.2017 03:22 1,5 C 7,8 C 96 % 1014,2 hPa 0,0 l/m 0,0 km/h (0 Bft) O-NO 59 0 min 0,000 mm 0,0 UV-I 0 W/m 0,9 C 1,5 C 0,0 km/h (0 Bft) 97,87 %
04.11.2017 03:24 1,7 C 7,8 C 96 % 1014,2 hPa 0,0 l/m 0,0 km/h (0 Bft) O-NO 59 0 min 0,000 mm 0,0 UV-I 0 W/m 1,1 C 1,7 C 0,0 km/h (0 Bft) 97,87 %
04.11.2017 03:26 1,8 C 7,8 C 97 % 1014,1 hPa 0,0 l/m 0,0 km/h (0 Bft) O-NO 59 0 min 0,000 mm 0,0 UV-I 0 W/m 1,4 C 1,8 C 0,0 km/h (0 Bft) 91,49 %
04.11.2017 03:28 1,9 C 7,8 C 97 % 1014,1 hPa 0,0 l/m 0,0 km/h (0 Bft) O-NO 59 0 min 0,000 mm 0,0 UV-I 0 W/m 1,5 C 1,9 C 0,0 km/h (0 Bft) 95,74 %
04.11.2017 03:30 1,8 C 7,8 C 97 % 1014,1 hPa 0,0 l/m 0,0 km/h (0 Bft) O-NO 59 0 min 0,000 mm 0,0 UV-I 0 W/m 1,4 C 1,8 C 0,0 km/h (0 Bft) 97,87 %
04.11.2017 03:32 1,8 C 7,8 C 96 % 1014,1 hPa 0,0 l/m 0,0 km/h (0 Bft) O-NO 59 0 min 0,000 mm 0,0 UV-I 0 W/m 1,2 C 1,8 C 0,0 km/h (0 Bft) 98,11 %
04.11.2017 03:34 1,7 C 7,8 C 96 % 1014,1 hPa 0,0 l/m 0,0 km/h (0 Bft) O-NO 59 0 min 0,000 mm 0,0 UV-I 0 W/m 1,1 C 1,7 C 0,0 km/h (0 Bft) 97,87 %
04.11.2017 03:36 1,7 C 7,8 C 96 % 1014,1 hPa 0,0 l/m 0,0 km/h (0 Bft) O-NO 59 0 min 0,000 mm 0,0 UV-I 0 W/m 1,1 C 1,7 C 0,0 km/h (0 Bft) 93,62 %
04.11.2017 03:38 1,6 C 7,8 C 96 % 1014,0 hPa 0,0 l/m 0,0 km/h (0 Bft) O-NO 59 0 min 0,000 mm 0,0 UV-I 0 W/m 1,0 C 1,6 C 0,0 km/h (0 Bft) 97,37 %
04.11.2017 03:40 1,4 C 7,8 C 96 % 1014,1 hPa 0,0 l/m 0,0 km/h (0 Bft) O-NO 59 0 min 0,000 mm 0,0 UV-I 0 W/m 0,8 C 1,4 C 0,0 km/h (0 Bft) 97,87 %
04.11.2017 03:42 1,3 C 7,8 C 96 % 1014,2 hPa 0,0 l/m 0,0 km/h (0 Bft) O-NO 59 0 min 0,000 mm 0,0 UV-I 0 W/m 0,7 C 1,3 C 0,0 km/h (0 Bft) 97,87 %
04.11.2017 03:44 1,2 C 7,8 C 96 % 1014,1 hPa 0,0 l/m 0,0 km/h (0 Bft) O-NO 59 0 min 0,000 mm 0,0 UV-I 0 W/m 0,6 C 1,2 C 0,0 km/h (0 Bft) 97,87 %
04.11.2017 03:46 1,1 C 7,8 C 96 % 1014,1 hPa 0,0 l/m 0,0 km/h (0 Bft) O-NO 59 0 min 0,000 mm 0,0 UV-I 0 W/m 0,5 C 1,1 C 0,0 km/h (0 Bft) 97,87 %
04.11.2017 03:48 1,2 C 7,8 C 96 % 1014,1 hPa 0,0 l/m 0,0 km/h (0 Bft) O-NO 59 0 min 0,000 mm 0,0 UV-I 0 W/m 0,6 C 1,2 C 0,0 km/h (0 Bft) 97,87 %
04.11.2017 03:50 1,3 C 7,8 C 97 % 1014,1 hPa 0,0 l/m 0,0 km/h (0 Bft) O-NO 59 0 min 0,000 mm 0,0 UV-I 0 W/m 0,9 C 1,3 C 0,0 km/h (0 Bft) 95,74 %
04.11.2017 03:52 1,3 C 7,8 C 97 % 1014,1 hPa 0,0 l/m 0,0 km/h (0 Bft) O-NO 59 0 min 0,000 mm 0,0 UV-I 0 W/m 0,9 C 1,3 C 0,0 km/h (0 Bft) 97,87 %
04.11.2017 03:54 1,3 C 7,8 C 97 % 1014,1 hPa 0,0 l/m 0,0 km/h (0 Bft) O-NO 59 0 min 0,000 mm 0,0 UV-I 0 W/m 0,9 C 1,3 C 0,0 km/h (0 Bft) 97,87 %
04.11.2017 03:56 1,3 C 7,8 C 97 % 1014,1 hPa 0,0 l/m 0,0 km/h (0 Bft) O-NO 59 0 min 0,000 mm 0,0 UV-I 0 W/m 0,9 C 1,3 C 0,0 km/h (0 Bft) 98,00 %
04.11.2017 03:58 1,3 C 7,8 C 97 % 1014,1 hPa 0,0 l/m 0,0 km/h (0 Bft) O-NO 59 0 min 0,000 mm 0,0 UV-I 0 W/m 0,9 C 1,3 C 0,0 km/h (0 Bft) 98,00 %
04.11.2017 04:00 1,3 C 7,8 C 97 % 1014,1 hPa 0,0 l/m 0,0 km/h (0 Bft) O-NO 59 0 min 0,000 mm 0,0 UV-I 0 W/m 0,9 C 1,3 C 0,0 km/h (0 Bft) 97,87 %
04.11.2017 04:02 1,3 C 7,8 C 97 % 1014,0 hPa 0,0 l/m 0,0 km/h (0 Bft) O-NO 59 0 min 0,000 mm 0,0 UV-I 0 W/m 0,9 C 1,3 C 0,0 km/h (0 Bft) 93,75 %
04.11.2017 04:04 1,2 C 7,8 C 97 % 1014,0 hPa 0,0 l/m 0,0 km/h (0 Bft) O-NO 59 0 min 0,000 mm 0,0 UV-I 0 W/m 0,8 C 1,2 C 0,0 km/h (0 Bft) 94,44 %
04.11.2017 04:06 1,2 C 7,8 C 96 % 1014,0 hPa 0,0 l/m 0,0 km/h (0 Bft) O-NO 59 0 min 0,000 mm 0,0 UV-I 0 W/m 0,6 C 1,2 C 0,0 km/h (0 Bft) 98,00 %
04.11.2017 04:08 1,1 C 7,8 C 96 % 1014,0 hPa 0,0 l/m 0,0 km/h (0 Bft) O-NO 59 0 min 0,000 mm 0,0 UV-I 0 W/m 0,5 C 1,1 C 0,0 km/h (0 Bft) 97,87 %
04.11.2017 04:10 1,1 C 7,8 C 96 % 1014,1 hPa 0,0 l/m 0,0 km/h (0 Bft) O-NO 59 0 min 0,000 mm 0,0 UV-I 0 W/m 0,5 C 1,1 C 0,0 km/h (0 Bft) 97,87 %
04.11.2017 04:12 1,1 C 7,8 C 96 % 1014,1 hPa 0,0 l/m 0,0 km/h (0 Bft) O-NO 59 0 min 0,000 mm 0,0 UV-I 0 W/m 0,5 C 1,1 C 0,0 km/h (0 Bft) 93,62 %
04.11.2017 04:14 0,9 C 7,8 C 96 % 1014,1 hPa 0,0 l/m 0,0 km/h (0 Bft) O-NO 59 0 min 0,000 mm 0,0 UV-I 0 W/m 0,3 C 0,9 C 0,0 km/h (0 Bft) 95,74 %
04.11.2017 04:16 0,9 C 7,8 C 96 % 1014,1 hPa 0,0 l/m 0,2 km/h (0 Bft) O-NO 59 0 min 0,000 mm 0,0 UV-I 0 W/m 0,3 C 0,9 C 1,6 km/h (1 Bft) 95,74 %
04.11.2017 04:18 1,0 C 7,8 C 97 % 1014,1 hPa 0,0 l/m 3,4 km/h (1 Bft) O-NO 59 0 min 0,000 mm 0,0 UV-I 0 W/m 0,6 C 1,0 C 4,8 km/h (1 Bft) 97,87 %
04.11.2017 04:20 0,9 C 7,8 C 97 % 1014,1 hPa 0,0 l/m 3,6 km/h (1 Bft) S 187 0 min 0,000 mm 0,0 UV-I 0 W/m 0,5 C 0,9 C 4,8 km/h (1 Bft) 97,87 %
04.11.2017 04:22 0,8 C 7,8 C 96 % 1014,1 hPa 0,0 l/m 3,2 km/h (1 Bft) S 187 0 min 0,000 mm 0,0 UV-I 0 W/m 0,2 C 0,8 C 4,8 km/h (1 Bft) 100,00 %
04.11.2017 04:24 0,7 C 7,8 C 96 % 1014,1 hPa 0,0 l/m 3,7 km/h (1 Bft) S-SW 205 0 min 0,000 mm 0,0 UV-I 0 W/m 0,1 C 0,7 C 6,4 km/h (2 Bft) 100,00 %
04.11.2017 04:26 0,7 C 7,8 C 96 % 1014,1 hPa 0,0 l/m 3,2 km/h (1 Bft) S-SW 205 0 min 0,000 mm 0,0 UV-I 0 W/m 0,1 C 0,7 C 6,4 km/h (2 Bft) 95,74 %
04.11.2017 04:28 0,8 C 7,8 C 96 % 1014,1 hPa 0,0 l/m 3,7 km/h (1 Bft) S-SW 205 0 min 0,000 mm 0,0 UV-I 0 W/m 0,2 C 0,8 C 4,8 km/h (1 Bft) 100,00 %
04.11.2017 04:30 0,8 C 7,8 C 97 % 1014,1 hPa 0,0 l/m 2,9 km/h (1 Bft) S-SW 205 0 min 0,000 mm 0,0 UV-I 0 W/m 0,4 C 0,8 C 4,8 km/h (1 Bft) 100,00 %
04.11.2017 04:32 0,8 C 7,8 C 97 % 1014,1 hPa 0,0 l/m 2,6 km/h (1 Bft) S-SW 205 0 min 0,000 mm 0,0 UV-I 0 W/m 0,4 C 0,8 C 4,8 km/h (1 Bft) 100,00 %
04.11.2017 04:34 0,8 C 7,8 C 97 % 1014,0 hPa 0,0 l/m 3,2 km/h (1 Bft) S-SW 205 0 min 0,000 mm 0,0 UV-I 0 W/m 0,4 C 0,8 C 4,8 km/h (1 Bft) 100,00 %
04.11.2017 04:36 0,8 C 7,8 C 97 % 1014,0 hPa 0,0 l/m 2,3 km/h (1 Bft) S-SW 205 0 min 0,000 mm 0,0 UV-I 0 W/m 0,4 C 0,8 C 4,8 km/h (1 Bft) 97,87 %
04.11.2017 04:38 0,8 C 7,8 C 97 % 1014,0 hPa 0,0 l/m 2,0 km/h (1 Bft) S-SW 205 0 min 0,000 mm 0,0 UV-I 0 W/m 0,4 C 0,8 C 4,8 km/h (1 Bft) 94,44 %
04.11.2017 04:40 0,6 C 7,8 C 97 % 1014,0 hPa 0,0 l/m 3,1 km/h (1 Bft) S-SW 205 0 min 0,000 mm 0,0 UV-I 0 W/m 0,2 C 0,6 C 4,8 km/h (1 Bft) 97,92 %
04.11.2017 04:42 0,6 C 7,8 C 96 % 1014,1 hPa 0,0 l/m 3,3 km/h (1 Bft) S-SW 205 0 min 0,000 mm 0,0 UV-I 0 W/m 0,0 C 0,6 C 4,8 km/h (1 Bft) 100,00 %
04.11.2017 04:44 0,8 C 7,8 C 97 % 1014,1 hPa 0,0 l/m 2,9 km/h (1 Bft) S-SW 205 0 min 0,000 mm 0,0 UV-I 0 W/m 0,4 C 0,8 C 4,8 km/h (1 Bft) 97,87 %
04.11.2017 04:46 0,7 C 7,8 C 97 % 1014,0 hPa 0,0 l/m 2,6 km/h (1 Bft) S-SW 205 0 min 0,000 mm 0,0 UV-I 0 W/m 0,3 C 0,7 C 3,2 km/h (1 Bft) 100,00 %
04.11.2017 04:48 0,5 C 7,8 C 97 % 1014,0 hPa 0,0 l/m 0,6 km/h (0 Bft) S-SW 205 0 min 0,000 mm 0,0 UV-I 0 W/m 0,1 C 0,5 C 3,2 km/h (1 Bft) 100,00 %
04.11.2017 04:50 0,4 C 7,8 C 97 % 1014,0 hPa 0,0 l/m 1,5 km/h (1 Bft) S-SW 205 0 min 0,000 mm 0,0 UV-I 0 W/m -0,0 C 0,4 C 3,2 km/h (1 Bft) 97,87 %
04.11.2017 04:52 0,6 C 7,8 C 97 % 1014,0 hPa 0,0 l/m 3,0 km/h (1 Bft) S-SW 205 0 min 0,000 mm 0,0 UV-I 0 W/m 0,2 C 0,6 C 4,8 km/h (1 Bft) 97,87 %
04.11.2017 04:54 0,6 C 7,8 C 97 % 1014,1 hPa 0,0 l/m 3,5 km/h (1 Bft) S-SW 205 0 min 0,000 mm 0,0 UV-I 0 W/m 0,2 C 0,6 C 4,8 km/h (1 Bft) 97,87 %
04.11.2017 04:56 0,4 C 7,8 C 97 % 1014,1 hPa 0,0 l/m 4,5 km/h (1 Bft) S-SW 205 0 min 0,000 mm 0,0 UV-I 0 W/m -0,0 C 0,4 C 6,4 km/h (2 Bft) 97,87 %
04.11.2017 04:58 0,3 C 7,8 C 97 % 1014,1 hPa 0,0 l/m 4,2 km/h (1 Bft) S-SW 205 0 min 0,000 mm 0,0 UV-I 0 W/m -0,1 C 0,3 C 6,4 km/h (2 Bft) 98,00 %
04.11.2017 05:00 0,3 C 7,8 C 97 % 1014,1 hPa 0,0 l/m 3,2 km/h (1 Bft) S-SW 205 0 min 0,000 mm 0,0 UV-I 0 W/m -0,1 C 0,3 C 4,8 km/h (1 Bft) 95,74 %
04.11.2017 05:03 0,3 C 7,8 C 97 % 1014,0 hPa 0,0 l/m 2,3 km/h (1 Bft) S-SW 205 0 min 0,000 mm 0,0 UV-I 0 W/m -0,1 C 0,3 C 3,2 km/h (1 Bft) 95,77 %
04.11.2017 05:04 0,3 C 7,8 C 97 % 1014,0 hPa 0,0 l/m 0,7 km/h (0 Bft) S-SW 205 0 min 0,000 mm 0,0 UV-I 0 W/m -0,1 C 0,3 C 3,2 km/h (1 Bft) 100,00 %
04.11.2017 05:06 0,3 C 7,8 C 97 % 1014,0 hPa 0,0 l/m 2,4 km/h (1 Bft) S-SW 205 0 min 0,000 mm 0,0 UV-I 0 W/m -0,1 C 0,3 C 4,8 km/h (1 Bft) 97,87 %
04.11.2017 05:08 0,3 C 7,8 C 97 % 1014,0 hPa 0,0 l/m 3,3 km/h (1 Bft) S-SW 205 0 min 0,000 mm 0,0 UV-I 0 W/m -0,1 C 0,3 C 4,8 km/h (1 Bft) 97,87 %
04.11.2017 05:10 0,3 C 7,8 C 97 % 1014,1 hPa 0,0 l/m 3,3 km/h (1 Bft) S-SW 205 0 min 0,000 mm 0,0 UV-I 0 W/m -0,1 C 0,3 C 4,8 km/h (1 Bft) 95,74 %
04.11.2017 05:12 0,4 C 7,8 C 97 % 1014,1 hPa 0,0 l/m 3,6 km/h (1 Bft) S-SW 205 0 min 0,000 mm 0,0 UV-I 0 W/m -0,0 C 0,4 C 4,8 km/h (1 Bft) 95,74 %
04.11.2017 05:14 0,3 C 7,8 C 97 % 1014,1 hPa 0,0 l/m 3,6 km/h (1 Bft) S-SW 205 0 min 0,000 mm 0,0 UV-I 0 W/m -0,1 C 0,3 C 4,8 km/h (1 Bft) 97,87 %
04.11.2017 05:16 0,2 C 7,8 C 97 % 1014,0 hPa 0,0 l/m 3,3 km/h (1 Bft) S-SW 205 0 min 0,000 mm 0,0 UV-I 0 W/m -0,2 C 0,2 C 4,8 km/h (1 Bft) 98,00 %
04.11.2017 05:18 0,2 C 7,8 C 97 % 1014,1 hPa 0,0 l/m 2,9 km/h (1 Bft) S-SW 205 0 min 0,000 mm 0,0 UV-I 0 W/m -0,2 C 0,2 C 4,8 km/h (1 Bft) 97,44 %
04.11.2017 05:20 0,2 C 7,8 C 97 % 1014,1 hPa 0,0 l/m 3,8 km/h (1 Bft) S-SW 205 0 min 0,000 mm 0,0 UV-I 0 W/m -0,2 C 0,2 C 4,8 km/h (1 Bft) 97,87 %
04.11.2017 05:22 0,2 C 7,8 C 97 % 1014,1 hPa 0,0 l/m 4,0 km/h (1 Bft) S-SW 205 0 min 0,000 mm 0,0 UV-I 0 W/m -0,2 C 0,2 C 4,8 km/h (1 Bft) 97,87 %
04.11.2017 05:24 0,2 C 7,8 C 97 % 1014,1 hPa 0,0 l/m 4,5 km/h (1 Bft) S-SW 205 0 min 0,000 mm 0,0 UV-I 0 W/m -0,2 C 0,2 C 6,4 km/h (2 Bft) 97,87 %
04.11.2017 05:26 0,1 C 7,8 C 97 % 1014,1 hPa 0,0 l/m 3,5 km/h (1 Bft) S-SW 205 0 min 0,000 mm 0,0 UV-I 0 W/m -0,3 C 0,1 C 4,8 km/h (1 Bft) 93,62 %
04.11.2017 05:28 0,1 C 7,8 C 97 % 1014,1 hPa 0,0 l/m 2,8 km/h (1 Bft) S-SW 205 0 min 0,000 mm 0,0 UV-I 0 W/m -0,3 C 0,1 C 4,8 km/h (1 Bft) 97,87 %
04.11.2017 05:30 0,0 C 7,8 C 97 % 1014,1 hPa 0,0 l/m 3,2 km/h (1 Bft) S-SW 205 0 min 0,000 mm 0,0 UV-I 0 W/m -0,4 C 0,0 C 4,8 km/h (1 Bft) 95,74 %
04.11.2017 05:32 0,0 C 7,8 C 97 % 1014,1 hPa 0,0 l/m 4,1 km/h (1 Bft) S-SW 205 0 min 0,000 mm 0,0 UV-I 0 W/m -0,4 C 0,0 C 6,4 km/h (2 Bft) 97,87 %
04.11.2017 05:34 -0,1 C 7,8 C 97 % 1014,1 hPa 0,0 l/m 4,6 km/h (1 Bft) S-SW 205 0 min 0,000 mm 0,0 UV-I 0 W/m -0,5 C -0,1 C 6,4 km/h (2 Bft) 97,87 %
04.11.2017 05:36 -0,1 C 7,8 C 97 % 1014,1 hPa 0,0 l/m 5,2 km/h (1 Bft) S-SW 205 0 min 0,000 mm 0,0 UV-I 0 W/m -0,5 C -0,1 C 8,0 km/h (2 Bft) 97,87 %
04.11.2017 05:38 -0,2 C 7,8 C 97 % 1014,1 hPa 0,0 l/m 4,7 km/h (1 Bft) S-SW 205 0 min 0,000 mm 0,0 UV-I 0 W/m -0,6 C -0,2 C 8,0 km/h (2 Bft) 96,23 %
04.11.2017 05:40 -0,2 C 7,8 C 97 % 1014,1 hPa 0,0 l/m 3,6 km/h (1 Bft) S-SW 205 0 min 0,000 mm 0,0 UV-I 0 W/m -0,6 C -0,2 C 4,8 km/h (1 Bft) 100,00 %
04.11.2017 05:42 -0,2 C 7,8 C 97 % 1014,1 hPa 0,0 l/m 5,3 km/h (1 Bft) S-SW 205 0 min 0,000 mm 0,0 UV-I 0 W/m -0,6 C -0,2 C 8,0 km/h (2 Bft) 97,87 %
04.11.2017 05:44 -0,2 C 7,8 C 97 % 1014,0 hPa 0,0 l/m 6,1 km/h (2 Bft) S-SW 205 0 min 0,000 mm 0,0 UV-I 0 W/m -0,6 C -0,2 C 8,0 km/h (2 Bft) 100,00 %
04.11.2017 05:46 -0,3 C 7,8 C 97 % 1014,1 hPa 0,0 l/m 5,9 km/h (2 Bft) S-SW 205 0 min 0,000 mm 0,0 UV-I 0 W/m -0,7 C -0,3 C 6,4 km/h (2 Bft) 97,87 %
04.11.2017 05:48 -0,3 C 7,8 C 97 % 1014,1 hPa 0,0 l/m 4,5 km/h (1 Bft) S-SW 205 0 min 0,000 mm 0,0 UV-I 0 W/m -0,7 C -0,3 C 6,4 km/h (2 Bft) 100,00 %
04.11.2017 05:50 -0,3 C 7,8 C 97 % 1014,1 hPa 0,2 l/m 3,5 km/h (1 Bft) S-SW 205 0 min 0,000 mm 0,0 UV-I 0 W/m -0,7 C -0,3 C 4,8 km/h (1 Bft) 100,00 %
04.11.2017 05:52 -0,3 C 7,8 C 97 % 1014,1 hPa 0,0 l/m 3,4 km/h (1 Bft) S-SW 205 0 min 0,000 mm 0,0 UV-I 0 W/m -0,7 C -0,3 C 4,8 km/h (1 Bft) 100,00 %
04.11.2017 05:54 -0,3 C 7,8 C 97 % 1014,1 hPa 0,0 l/m 3,6 km/h (1 Bft) S-SW 205 0 min 0,000 mm 0,0 UV-I 0 W/m -0,7 C -0,3 C 4,8 km/h (1 Bft) 97,87 %
04.11.2017 05:56 -0,4 C 7,8 C 97 % 1014,2 hPa 0,0 l/m 4,1 km/h (1 Bft) S-SW 205 0 min 0,000 mm 0,0 UV-I 0 W/m -0,8 C -0,4 C 4,8 km/h (1 Bft) 100,00 %
04.11.2017 05:58 -0,3 C 7,8 C 97 % 1014,2 hPa 0,0 l/m 4,8 km/h (1 Bft) S-SW 205 0 min 0,000 mm 0,0 UV-I 0 W/m -0,7 C -0,3 C 6,4 km/h (2 Bft) 98,00 %
04.11.2017 06:00 -0,4 C 7,8 C 97 % 1014,2 hPa 0,0 l/m 5,0 km/h (1 Bft) S-SW 205 0 min 0,000 mm 0,0 UV-I 0 W/m -0,8 C -0,4 C 6,4 km/h (2 Bft) 93,62 %
04.11.2017 06:02 -0,4 C 7,8 C 97 % 1014,2 hPa 0,0 l/m 4,6 km/h (1 Bft) S-SW 205 0 min 0,000 mm 0,0 UV-I 0 W/m -0,8 C -0,4 C 6,4 km/h (2 Bft) 97,87 %
04.11.2017 06:04 -0,4 C 7,8 C 97 % 1014,2 hPa 0,0 l/m 4,3 km/h (1 Bft) S-SW 205 0 min 0,000 mm 0,0 UV-I 0 W/m -0,8 C -0,4 C 6,4 km/h (2 Bft) 100,00 %
04.11.2017 06:06 -0,4 C 7,8 C 97 % 1014,2 hPa 0,0 l/m 4,0 km/h (1 Bft) S-SW 205 0 min 0,000 mm 0,0 UV-I 0 W/m -0,8 C -0,4 C 6,4 km/h (2 Bft) 100,00 %
04.11.2017 06:08 -0,4 C 7,8 C 97 % 1014,2 hPa 0,0 l/m 2,9 km/h (1 Bft) S-SW 205 0 min 0,000 mm 0,0 UV-I 0 W/m -0,8 C -0,4 C 3,2 km/h (1 Bft) 93,62 %
04.11.2017 06:10 -0,4 C 7,8 C 97 % 1014,2 hPa 0,0 l/m 3,0 km/h (1 Bft) S-SW 205 0 min 0,000 mm 0,0 UV-I 0 W/m -0,8 C -0,4 C 4,8 km/h (1 Bft) 98,00 %
04.11.2017 06:12 -0,4 C 7,8 C 97 % 1014,2 hPa 0,0 l/m 3,4 km/h (1 Bft) S-SW 205 0 min 0,000 mm 0,0 UV-I 0 W/m -0,8 C -0,4 C 4,8 km/h (1 Bft) 98,00 %
04.11.2017 06:14 -0,4 C 7,8 C 97 % 1014,2 hPa 0,0 l/m 3,6 km/h (1 Bft) S-SW 205 0 min 0,000 mm 0,0 UV-I 0 W/m -0,8 C -0,4 C 4,8 km/h (1 Bft) 97,87 %
04.11.2017 06:16 -0,4 C 7,8 C 97 % 1014,3 hPa 0,0 l/m 5,1 km/h (1 Bft) S-SW 205 0 min 0,000 mm 0,0 UV-I 0 W/m -0,8 C -0,4 C 6,4 km/h (2 Bft) 100,00 %
04.11.2017 06:18 -0,5 C 7,8 C 97 % 1014,3 hPa 0,0 l/m 4,7 km/h (1 Bft) S-SW 205 0 min 0,000 mm 0,0 UV-I 0 W/m -0,9 C -0,5 C 6,4 km/h (2 Bft) 100,00 %
04.11.2017 06:20 -0,5 C 7,8 C 97 % 1014,3 hPa 0,0 l/m 4,3 km/h (1 Bft) S-SW 205 0 min 0,000 mm 0,0 UV-I 0 W/m -0,9 C -0,5 C 6,4 km/h (2 Bft) 100,00 %
04.11.2017 06:22 -0,4 C 7,8 C 97 % 1014,3 hPa 0,0 l/m 5,8 km/h (2 Bft) S-SW 205 0 min 0,000 mm 0,0 UV-I 0 W/m -0,8 C -0,4 C 8,0 km/h (2 Bft) 100,00 %
04.11.2017 06:24 -0,4 C 7,8 C 97 % 1014,2 hPa 0,0 l/m 4,1 km/h (1 Bft) S-SW 205 0 min 0,000 mm 0,0 UV-I 0 W/m -0,8 C -0,4 C 6,4 km/h (2 Bft) 100,00 %
04.11.2017 06:26 -0,5 C 7,8 C 97 % 1014,3 hPa 0,0 l/m 3,5 km/h (1 Bft) S-SW 205 0 min 0,000 mm 0,0 UV-I 0 W/m -0,9 C -0,5 C 6,4 km/h (2 Bft) 97,87 %
04.11.2017 06:28 -0,6 C 7,8 C 97 % 1014,3 hPa 0,0 l/m 3,4 km/h (1 Bft) S-SW 205 0 min 0,000 mm 0,0 UV-I 0 W/m -1,0 C -0,6 C 6,4 km/h (2 Bft) 100,00 %
04.11.2017 06:30 -0,6 C 7,8 C 97 % 1014,3 hPa 0,0 l/m 4,6 km/h (1 Bft) S-SW 205 0 min 0,000 mm 0,0 UV-I 0 W/m -1,0 C -0,6 C 6,4 km/h (2 Bft) 97,87 %
04.11.2017 06:33 -0,6 C 7,8 C 97 % 1014,4 hPa 0,0 l/m 4,9 km/h (1 Bft) S-SW 205 0 min 0,000 mm 0,0 UV-I 0 W/m -1,0 C -0,6 C 6,4 km/h (2 Bft) 97,30 %
04.11.2017 06:34 -0,6 C 7,8 C 97 % 1014,4 hPa 0,0 l/m 4,4 km/h (1 Bft) S-SW 205 0 min 0,000 mm 0,0 UV-I 0 W/m -1,0 C -0,6 C 4,8 km/h (1 Bft) 96,15 %
04.11.2017 06:36 -0,6 C 7,8 C 97 % 1014,3 hPa 0,0 l/m 4,5 km/h (1 Bft) S-SW 205 0 min 0,000 mm 0,0 UV-I 0 W/m -1,0 C -0,6 C 6,4 km/h (2 Bft) 100,00 %
04.11.2017 06:38 -0,6 C 7,8 C 97 % 1014,4 hPa 0,0 l/m 4,1 km/h (1 Bft) S-SW 205 0 min 0,000 mm 0,0 UV-I 5 W/m -1,0 C -0,6 C 4,8 km/h (1 Bft) 96,00 %
04.11.2017 06:40 -0,7 C 7,8 C 97 % 1014,5 hPa 0,0 l/m 4,6 km/h (1 Bft) S-SW 205 0 min 0,000 mm 0,0 UV-I 5 W/m -1,1 C -0,7 C 6,4 km/h (2 Bft) 97,87 %
04.11.2017 06:42 -0,6 C 7,8 C 97 % 1014,6 hPa 0,0 l/m 6,0 km/h (2 Bft) S-SW 205 0 min 0,000 mm 0,0 UV-I 5 W/m -1,0 C -0,6 C 9,7 km/h (2 Bft) 97,87 %
04.11.2017 06:44 -0,6 C 7,8 C 97 % 1014,5 hPa 0,0 l/m 6,0 km/h (2 Bft) S-SW 205 0 min 0,000 mm 0,0 UV-I 7 W/m -1,0 C -0,6 C 9,7 km/h (2 Bft) 98,00 %
04.11.2017 06:46 -0,6 C 7,8 C 97 % 1014,5 hPa 0,0 l/m 3,0 km/h (1 Bft) S-SW 205 0 min 0,000 mm 0,0 UV-I 7 W/m -1,0 C -0,6 C 6,4 km/h (2 Bft) 97,87 %
04.11.2017 06:48 -0,6 C 7,8 C 97 % 1014,5 hPa 0,0 l/m 2,2 km/h (1 Bft) S-SW 205 0 min 0,000 mm 0,0 UV-I 8 W/m -1,0 C -0,6 C 4,8 km/h (1 Bft) 97,87 %
04.11.2017 06:50 -0,5 C 7,8 C 97 % 1014,5 hPa 0,0 l/m 3,3 km/h (1 Bft) S-SW 205 0 min 0,000 mm 0,0 UV-I 9 W/m -0,9 C -0,5 C 6,4 km/h (2 Bft) 98,00 %
04.11.2017 06:52 -0,5 C 7,8 C 97 % 1014,5 hPa 0,0 l/m 4,1 km/h (1 Bft) S-SW 205 0 min 0,000 mm 0,0 UV-I 10 W/m -0,9 C -0,5 C 6,4 km/h (2 Bft) 97,87 %
04.11.2017 06:54 -0,5 C 7,8 C 97 % 1014,5 hPa 0,0 l/m 4,5 km/h (1 Bft) S-SW 205 0 min 0,000 mm 0,0 UV-I 11 W/m -0,9 C -0,5 C 6,4 km/h (2 Bft) 95,74 %
04.11.2017 06:56 -0,5 C 7,8 C 97 % 1014,5 hPa 0,0 l/m 4,6 km/h (1 Bft) S-SW 205 0 min 0,000 mm 0,0 UV-I 11 W/m -0,9 C -0,5 C 6,4 km/h (2 Bft) 89,36 %
04.11.2017 06:58 -0,6 C 7,8 C 97 % 1014,5 hPa 0,0 l/m 4,8 km/h (1 Bft) S-SW 205 0 min 0,000 mm 0,0 UV-I 12 W/m -1,0 C -0,6 C 6,4 km/h (2 Bft) 95,74 %
04.11.2017 07:00 -0,6 C 7,8 C 97 % 1014,5 hPa 0,0 l/m 4,0 km/h (1 Bft) S-SW 205 0 min 0,000 mm 0,0 UV-I 12 W/m -1,0 C -0,6 C 4,8 km/h (1 Bft) 97,87 %
04.11.2017 07:02 -0,6 C 7,8 C 97 % 1014,5 hPa 0,0 l/m 2,6 km/h (1 Bft) S-SW 205 0 min 0,000 mm 0,0 UV-I 15 W/m -1,0 C -0,6 C 6,4 km/h (2 Bft) 97,87 %
04.11.2017 07:04 -0,6 C 7,8 C 97 % 1014,5 hPa 0,0 l/m 3,4 km/h (1 Bft) S-SW 205 0 min 0,000 mm 0,0 UV-I 16 W/m -1,0 C -0,6 C 6,4 km/h (2 Bft) 97,37 %
04.11.2017 07:06 -0,5 C 7,8 C 97 % 1014,5 hPa 0,0 l/m 2,6 km/h (1 Bft) S-SW 205 2 min 0,000 mm 0,0 UV-I 18 W/m -0,9 C -0,5 C 4,8 km/h (1 Bft) 95,74 %
04.11.2017 07:08 -0,6 C 7,8 C 97 % 1014,6 hPa 0,0 l/m 2,5 km/h (1 Bft) S-SW 205 2 min 0,000 mm 0,0 UV-I 20 W/m -1,0 C -0,6 C 4,8 km/h (1 Bft) 95,74 %
04.11.2017 07:10 -0,5 C 7,8 C 97 % 1014,6 hPa 0,0 l/m 2,7 km/h (1 Bft) S-SW 205 2 min 0,000 mm 0,0 UV-I 24 W/m -0,9 C -0,5 C 4,8 km/h (1 Bft) 96,00 %
04.11.2017 07:12 -0,5 C 7,8 C 97 % 1014,6 hPa 0,0 l/m 3,2 km/h (1 Bft) S-SW 205 2 min 0,000 mm 0,0 UV-I 26 W/m -0,9 C -0,5 C 4,8 km/h (1 Bft) 95,83 %
04.11.2017 07:14 -0,5 C 7,8 C 97 % 1014,6 hPa 0,0 l/m 4,1 km/h (1 Bft) S-SW 205 2 min 0,000 mm 0,0 UV-I 29 W/m -0,9 C -0,5 C 6,4 km/h (2 Bft) 93,62 %
04.11.2017 07:16 -0,6 C 7,8 C 97 % 1014,6 hPa 0,0 l/m 4,4 km/h (1 Bft) S-SW 205 2 min 0,000 mm 0,0 UV-I 31 W/m -1,0 C -0,6 C 6,4 km/h (2 Bft) 93,62 %
04.11.2017 07:18 -0,6 C 7,8 C 97 % 1014,6 hPa 0,0 l/m 3,9 km/h (1 Bft) S-SW 205 2 min 0,000 mm 0,0 UV-I 34 W/m -1,0 C -0,6 C 4,8 km/h (1 Bft) 96,00 %
04.11.2017 07:20 -0,6 C 7,8 C 97 % 1014,7 hPa 0,0 l/m 3,6 km/h (1 Bft) S-SW 205 2 min 0,000 mm 0,0 UV-I 39 W/m -1,0 C -0,6 C 4,8 km/h (1 Bft) 91,49 %
04.11.2017 07:22 -0,6 C 7,8 C 97 % 1014,7 hPa 0,0 l/m 3,3 km/h (1 Bft) S-SW 205 2 min 0,000 mm 0,0 UV-I 43 W/m -1,0 C -0,6 C 4,8 km/h (1 Bft) 97,87 %
04.11.2017 07:24 -0,6 C 7,8 C 97 % 1014,7 hPa 0,0 l/m 3,9 km/h (1 Bft) S-SW 205 2 min 0,000 mm 0,0 UV-I 48 W/m -1,0 C -0,6 C 6,4 km/h (2 Bft) 95,83 %
04.11.2017 07:26 -0,6 C 7,8 C 97 % 1014,7 hPa 0,0 l/m 4,6 km/h (1 Bft) S-SW 205 2 min 0,000 mm 0,0 UV-I 54 W/m -1,0 C -0,6 C 6,4 km/h (2 Bft) 95,74 %
04.11.2017 07:28 -0,5 C 7,8 C 97 % 1014,8 hPa 0,0 l/m 4,0 km/h (1 Bft) S-SW 205 2 min 0,000 mm 0,0 UV-I 56 W/m -0,9 C -0,5 C 6,4 km/h (2 Bft) 95,74 %
04.11.2017 07:30 -0,5 C 7,8 C 97 % 1014,8 hPa 0,0 l/m 4,0 km/h (1 Bft) S-SW 205 2 min 0,000 mm 0,0 UV-I 60 W/m -0,9 C -0,5 C 6,4 km/h (2 Bft) 97,87 %
04.11.2017 07:32 -0,5 C 7,8 C 97 % 1014,8 hPa 0,0 l/m 3,2 km/h (1 Bft) S-SW 205 2 min 0,000 mm 0,0 UV-I 63 W/m -0,9 C -0,5 C 4,8 km/h (1 Bft) 100,00 %
04.11.2017 07:34 -0,5 C 7,8 C 97 % 1014,7 hPa 0,0 l/m 2,8 km/h (1 Bft) S-SW 205 2 min 0,000 mm 0,0 UV-I 64 W/m -0,9 C -0,5 C 4,8 km/h (1 Bft) 93,62 %
04.11.2017 07:36 -0,4 C 7,8 C 97 % 1014,8 hPa 0,0 l/m 3,5 km/h (1 Bft) S-SW 205 2 min 0,000 mm 0,0 UV-I 70 W/m -0,8 C -0,4 C 6,4 km/h (2 Bft) 97,87 %
04.11.2017 07:38 -0,4 C 7,8 C 97 % 1014,8 hPa 0,0 l/m 3,3 km/h (1 Bft) S-SW 205 2 min 0,000 mm 0,0 UV-I 70 W/m -0,8 C -0,4 C 6,4 km/h (2 Bft) 97,87 %
04.11.2017 07:40 -0,4 C 7,8 C 97 % 1014,8 hPa 0,0 l/m 4,2 km/h (1 Bft) S-SW 205 2 min 0,000 mm 0,0 UV-I 73 W/m -0,8 C -0,4 C 6,4 km/h (2 Bft) 97,87 %
04.11.2017 07:42 -0,3 C 7,8 C 97 % 1014,8 hPa 0,0 l/m 4,8 km/h (1 Bft) S-SW 205 2 min 0,000 mm 0,0 UV-I 79 W/m -0,7 C -0,3 C 8,0 km/h (2 Bft) 100,00 %
04.11.2017 07:44 -0,3 C 7,8 C 97 % 1014,9 hPa 0,0 l/m 4,0 km/h (1 Bft) S-SW 205 2 min 0,000 mm 0,0 UV-I 80 W/m -0,7 C -0,3 C 6,4 km/h (2 Bft) 100,00 %
04.11.2017 07:46 -0,3 C 7,8 C 97 % 1014,9 hPa 0,0 l/m 4,1 km/h (1 Bft) S-SW 205 2 min 0,000 mm 0,0 UV-I 84 W/m -0,7 C -0,3 C 6,4 km/h (2 Bft) 100,00 %
04.11.2017 07:48 -0,3 C 7,8 C 97 % 1015,0 hPa 0,0 l/m 4,1 km/h (1 Bft) S-SW 205 2 min 0,000 mm 0,0 UV-I 90 W/m -0,7 C -0,3 C 6,4 km/h (2 Bft) 97,87 %
04.11.2017 07:50 -0,3 C 7,8 C 97 % 1014,9 hPa 0,0 l/m 3,5 km/h (1 Bft) S-SW 205 2 min 0,000 mm 0,0 UV-I 93 W/m -0,7 C -0,3 C 4,8 km/h (1 Bft) 96,00 %
04.11.2017 07:52 -0,3 C 7,8 C 97 % 1015,0 hPa 0,0 l/m 3,9 km/h (1 Bft) S-SW 205 2 min 0,000 mm 0,0 UV-I 83 W/m -0,7 C -0,3 C 6,4 km/h (2 Bft) 100,00 %
04.11.2017 07:54 -0,2 C 7,8 C 97 % 1015,0 hPa 0,0 l/m 3,3 km/h (1 Bft) S-SW 205 2 min 0,000 mm 0,0 UV-I 95 W/m -0,6 C -0,2 C 4,8 km/h (1 Bft) 100,00 %
04.11.2017 07:56 -0,2 C 7,8 C 97 % 1015,0 hPa 0,0 l/m 2,5 km/h (1 Bft) S-SW 205 2 min 0,000 mm 0,0 UV-I 109 W/m -0,6 C -0,2 C 4,8 km/h (1 Bft) 100,00 %
04.11.2017 07:58 -0,2 C 7,8 C 97 % 1015,0 hPa 0,0 l/m 3,4 km/h (1 Bft) S-SW 205 2 min 0,000 mm 0,0 UV-I 108 W/m -0,6 C -0,2 C 4,8 km/h (1 Bft) 100,00 %
04.11.2017 08:00 -0,1 C 7,8 C 97 % 1015,0 hPa 0,0 l/m 3,3 km/h (1 Bft) S-SW 205 2 min 0,025 mm 0,0 UV-I 103 W/m -0,5 C -0,1 C 6,4 km/h (2 Bft) 97,92 %
04.11.2017 08:02 -0,1 C 7,8 C 97 % 1015,1 hPa 0,0 l/m 3,5 km/h (1 Bft) S-SW 205 2 min 0,000 mm 0,0 UV-I 97 W/m -0,5 C -0,1 C 4,8 km/h (1 Bft) 100,00 %
04.11.2017 08:04 -0,1 C 7,8 C 97 % 1015,0 hPa 0,0 l/m 4,6 km/h (1 Bft) S-SW 205 2 min 0,000 mm 0,0 UV-I 97 W/m -0,5 C -0,1 C 6,4 km/h (2 Bft) 97,37 %
04.11.2017 08:06 -0,1 C 7,8 C 97 % 1015,1 hPa 0,0 l/m 4,8 km/h (1 Bft) S-SW 205 2 min 0,000 mm 0,0 UV-I 96 W/m -0,5 C -0,1 C 8,0 km/h (2 Bft) 100,00 %
04.11.2017 08:08 0,0 C 7,8 C 97 % 1015,1 hPa 0,0 l/m 4,3 km/h (1 Bft) S-SW 205 2 min 0,000 mm 0,0 UV-I 97 W/m -0,4 C 0,0 C 6,4 km/h (2 Bft) 100,00 %
04.11.2017 08:10 0,1 C 7,8 C 97 % 1015,1 hPa 0,0 l/m 3,0 km/h (1 Bft) S-SW 205 0 min 0,000 mm 0,0 UV-I 94 W/m -0,3 C 0,1 C 6,4 km/h (2 Bft) 100,00 %
04.11.2017 08:12 0,1 C 7,8 C 97 % 1015,1 hPa 0,0 l/m 3,1 km/h (1 Bft) S-SW 205 0 min 0,000 mm 0,0 UV-I 90 W/m -0,3 C 0,1 C 4,8 km/h (1 Bft) 100,00 %
04.11.2017 08:14 0,2 C 7,8 C 97 % 1015,1 hPa 0,0 l/m 0,9 km/h (0 Bft) S-SW 205 0 min 0,000 mm 0,0 UV-I 95 W/m -0,2 C 0,2 C 3,2 km/h (1 Bft) 97,87 %
04.11.2017 08:16 0,2 C 7,8 C 97 % 1015,1 hPa 0,0 l/m 1,1 km/h (1 Bft) S-SW 205 0 min 0,000 mm 0,0 UV-I 100 W/m -0,2 C 0,2 C 3,2 km/h (1 Bft) 100,00 %
04.11.2017 08:18 0,2 C 7,8 C 97 % 1015,1 hPa 0,0 l/m 2,6 km/h (1 Bft) S-SW 205 0 min 0,000 mm 0,0 UV-I 106 W/m -0,2 C 0,2 C 4,8 km/h (1 Bft) 96,00 %
04.11.2017 08:20 0,2 C 7,8 C 97 % 1015,0 hPa 0,0 l/m 2,4 km/h (1 Bft) S-SW 205 0 min 0,000 mm 0,0 UV-I 107 W/m -0,2 C 0,2 C 4,8 km/h (1 Bft) 97,87 %
04.11.2017 08:22 0,2 C 7,8 C 97 % 1015,1 hPa 0,0 l/m 4,4 km/h (1 Bft) S-SW 205 0 min 0,000 mm 0,0 UV-I 110 W/m -0,2 C 0,2 C 6,4 km/h (2 Bft) 100,00 %
04.11.2017 08:24 0,2 C 7,8 C 97 % 1015,1 hPa 0,0 l/m 3,7 km/h (1 Bft) S-SW 205 0 min 0,000 mm 0,0 UV-I 107 W/m -0,2 C 0,2 C 6,4 km/h (2 Bft) 97,87 %
04.11.2017 08:26 0,3 C 7,8 C 97 % 1015,1 hPa 0,0 l/m 2,7 km/h (1 Bft) S-SW 205 0 min 0,000 mm 0,0 UV-I 107 W/m -0,1 C 0,3 C 4,8 km/h (1 Bft) 100,00 %
04.11.2017 08:28 0,2 C 7,8 C 97 % 1015,1 hPa 0,0 l/m 2,2 km/h (1 Bft) S-SW 205 0 min 0,000 mm 0,0 UV-I 102 W/m -0,2 C 0,2 C 4,8 km/h (1 Bft) 100,00 %
04.11.2017 08:30 0,3 C 7,8 C 97 % 1015,1 hPa 0,0 l/m 3,4 km/h (1 Bft) S-SW 205 0 min 0,000 mm 0,0 UV-I 106 W/m -0,1 C 0,3 C 4,8 km/h (1 Bft) 100,00 %
04.11.2017 08:32 0,3 C 7,8 C 97 % 1015,1 hPa 0,0 l/m 1,7 km/h (1 Bft) S-SW 205 0 min 0,000 mm 0,0 UV-I 104 W/m -0,1 C 0,3 C 3,2 km/h (1 Bft) 100,00 %
04.11.2017 08:34 0,3 C 7,8 C 97 % 1015,1 hPa 0,0 l/m 1,8 km/h (1 Bft) S-SW 205 0 min 0,000 mm 0,0 UV-I 110 W/m -0,1 C 0,3 C 3,2 km/h (1 Bft) 100,00 %
04.11.2017 08:36 0,5 C 7,8 C 97 % 1015,1 hPa 0,0 l/m 1,3 km/h (1 Bft) S-SW 205 0 min 0,000 mm 0,0 UV-I 103 W/m 0,1 C 0,5 C 3,2 km/h (1 Bft) 100,00 %
04.11.2017 08:38 0,6 C 7,8 C 97 % 1015,1 hPa 0,0 l/m 2,0 km/h (1 Bft) S-SW 205 0 min 0,000 mm 0,0 UV-I 93 W/m 0,2 C 0,6 C 3,2 km/h (1 Bft) 100,00 %
04.11.2017 08:40 0,5 C 7,8 C 97 % 1015,2 hPa 0,0 l/m 2,7 km/h (1 Bft) S-SW 205 0 min 0,000 mm 0,0 UV-I 100 W/m 0,1 C 0,5 C 4,8 km/h (1 Bft) 98,00 %
04.11.2017 08:42 0,5 C 7,8 C 97 % 1015,2 hPa 0,0 l/m 3,3 km/h (1 Bft) S-SW 205 0 min 0,000 mm 0,0 UV-I 106 W/m 0,1 C 0,5 C 4,8 km/h (1 Bft) 100,00 %
04.11.2017 08:44 0,5 C 7,8 C 97 % 1015,3 hPa 0,0 l/m 4,4 km/h (1 Bft) S-SW 205 0 min 0,000 mm 0,0 UV-I 91 W/m 0,1 C 0,5 C 6,4 km/h (2 Bft) 97,87 %
04.11.2017 08:46 0,5 C 7,8 C 97 % 1015,3 hPa 0,0 l/m 4,5 km/h (1 Bft) S-SW 205 0 min 0,000 mm 0,0 UV-I 94 W/m 0,1 C 0,5 C 6,4 km/h (2 Bft) 100,00 %
04.11.2017 08:48 0,5 C 7,8 C 97 % 1015,3 hPa 0,0 l/m 1,4 km/h (1 Bft) S-SW 205 0 min 0,000 mm 0,0 UV-I 105 W/m 0,1 C 0,5 C 4,8 km/h (1 Bft) 100,00 %
04.11.2017 08:50 0,6 C 7,8 C 97 % 1015,3 hPa 0,0 l/m 3,1 km/h (1 Bft) S-SW 205 0 min 0,000 mm 0,0 UV-I 124 W/m 0,2 C 0,6 C 4,8 km/h (1 Bft) 100,00 %
04.11.2017 08:52 0,7 C 7,8 C 97 % 1015,3 hPa 0,0 l/m 4,3 km/h (1 Bft) S-SW 205 0 min 0,000 mm 0,0 UV-I 128 W/m 0,3 C 0,7 C 6,4 km/h (2 Bft) 97,87 %
04.11.2017 08:54 0,7 C 7,8 C 97 % 1015,3 hPa 0,0 l/m 4,3 km/h (1 Bft) S-SW 205 0 min 0,000 mm 0,0 UV-I 144 W/m 0,3 C 0,7 C 6,4 km/h (2 Bft) 100,00 %
04.11.2017 08:56 0,8 C 7,8 C 97 % 1015,3 hPa 0,0 l/m 2,5 km/h (1 Bft) S-SW 205 0 min 0,000 mm 0,0 UV-I 142 W/m 0,4 C 0,8 C 4,8 km/h (1 Bft) 100,00 %
04.11.2017 08:58 0,8 C 7,8 C 97 % 1015,3 hPa 0,0 l/m 2,7 km/h (1 Bft) S-SW 205 0 min 0,000 mm 0,0 UV-I 149 W/m 0,4 C 0,8 C 4,8 km/h (1 Bft) 97,87 %
04.11.2017 09:00 0,9 C 7,8 C 97 % 1015,3 hPa 0,0 l/m 4,2 km/h (1 Bft) S-SW 205 2 min 0,026 mm 0,0 UV-I 159 W/m 0,5 C 0,9 C 6,4 km/h (2 Bft) 95,74 %
04.11.2017 09:02 1,1 C 7,8 C 97 % 1015,3 hPa 0,0 l/m 1,9 km/h (1 Bft) S-SW 205 2 min 0,000 mm 0,0 UV-I 171 W/m 0,7 C 1,1 C 4,8 km/h (1 Bft) 95,74 %
04.11.2017 09:04 1,2 C 7,8 C 97 % 1015,3 hPa 0,0 l/m 1,6 km/h (1 Bft) S-SW 205 2 min 0,000 mm 0,0 UV-I 171 W/m 0,8 C 1,2 C 4,8 km/h (1 Bft) 97,87 %
04.11.2017 09:06 1,1 C 7,8 C 97 % 1015,3 hPa 0,0 l/m 1,0 km/h (0 Bft) S-SW 205 2 min 0,000 mm 0,0 UV-I 180 W/m 0,7 C 1,1 C 3,2 km/h (1 Bft) 97,87 %
04.11.2017 09:08 1,1 C 7,8 C 97 % 1015,3 hPa 0,0 l/m 0,1 km/h (0 Bft) S-SW 205 2 min 0,000 mm 0,0 UV-I 187 W/m 0,7 C 1,1 C 1,6 km/h (1 Bft) 97,87 %
04.11.2017 09:10 1,4 C 7,8 C 98 % 1015,2 hPa 0,0 l/m 1,9 km/h (1 Bft) S-SW 205 2 min 0,000 mm 0,0 UV-I 185 W/m 1,1 C 1,4 C 3,2 km/h (1 Bft) 97,87 %
04.11.2017 09:12 1,5 C 7,8 C 97 % 1015,2 hPa 0,0 l/m 1,0 km/h (0 Bft) S-SW 205 2 min 0,000 mm 0,0 UV-I 187 W/m 1,1 C 1,5 C 3,2 km/h (1 Bft) 95,74 %
04.11.2017 09:14 1,6 C 7,8 C 98 % 1015,2 hPa 0,0 l/m 0,4 km/h (0 Bft) S-SW 205 2 min 0,000 mm 0,0 UV-I 175 W/m 1,3 C 1,6 C 3,2 km/h (1 Bft) 96,00 %
04.11.2017 09:16 1,6 C 7,8 C 98 % 1015,3 hPa 0,0 l/m 1,2 km/h (1 Bft) S-SW 205 0 min 0,000 mm 0,0 UV-I 167 W/m 1,3 C 1,6 C 3,2 km/h (1 Bft) 95,74 %
04.11.2017 09:18 1,7 C 7,8 C 98 % 1015,3 hPa 0,0 l/m 2,3 km/h (1 Bft) S-SW 205 2 min 0,000 mm 0,0 UV-I 178 W/m 1,4 C 1,7 C 3,2 km/h (1 Bft) 97,92 %
04.11.2017 09:20 1,7 C 7,8 C 98 % 1015,3 hPa 0,0 l/m 2,9 km/h (1 Bft) S-SW 205 0 min 0,000 mm 0,4 UV-I 168 W/m 1,4 C 1,7 C 4,8 km/h (1 Bft) 95,74 %
04.11.2017 09:22 1,7 C 7,8 C 98 % 1015,3 hPa 0,0 l/m 2,3 km/h (1 Bft) S-SW 205 0 min 0,000 mm 0,3 UV-I 151 W/m 1,4 C 1,7 C 4,8 km/h (1 Bft) 97,87 %
04.11.2017 09:24 1,7 C 7,8 C 98 % 1015,3 hPa 0,0 l/m 2,4 km/h (1 Bft) S-SW 205 0 min 0,000 mm 0,5 UV-I 162 W/m 1,4 C 1,7 C 4,8 km/h (1 Bft) 97,87 %
04.11.2017 09:26 1,8 C 7,8 C 97 % 1015,4 hPa 0,0 l/m 2,8 km/h (1 Bft) S-SW 205 0 min 0,000 mm 0,5 UV-I 167 W/m 1,4 C 1,8 C 4,8 km/h (1 Bft) 95,74 %
04.11.2017 09:28 1,9 C 7,8 C 97 % 1015,4 hPa 0,0 l/m 4,0 km/h (1 Bft) S-SW 205 0 min 0,000 mm 0,5 UV-I 146 W/m 1,5 C 1,9 C 4,8 km/h (1 Bft) 97,87 %
04.11.2017 09:30 1,9 C 7,8 C 98 % 1015,5 hPa 0,0 l/m 3,9 km/h (1 Bft) S-SW 205 0 min 0,000 mm 0,5 UV-I 148 W/m 1,6 C 1,9 C 4,8 km/h (1 Bft) 97,87 %
04.11.2017 09:32 1,8 C 7,8 C 97 % 1015,4 hPa 0,0 l/m 3,6 km/h (1 Bft) S-SW 205 0 min 0,000 mm 0,5 UV-I 168 W/m 1,4 C 1,8 C 6,4 km/h (2 Bft) 95,74 %
04.11.2017 09:34 1,9 C 7,8 C 97 % 1015,4 hPa 0,0 l/m 3,4 km/h (1 Bft) S-SW 205 2 min 0,000 mm 0,5 UV-I 189 W/m 1,5 C 1,9 C 4,8 km/h (1 Bft) 96,00 %
04.11.2017 09:36 2,0 C 7,8 C 98 % 1015,4 hPa 0,0 l/m 2,2 km/h (1 Bft) S-SW 205 0 min 0,000 mm 0,5 UV-I 163 W/m 1,7 C 2,0 C 4,8 km/h (1 Bft) 97,87 %
04.11.2017 09:38 2,2 C 7,8 C 98 % 1015,4 hPa 0,0 l/m 2,4 km/h (1 Bft) S-SW 205 2 min 0,000 mm 0,6 UV-I 197 W/m 1,9 C 2,2 C 4,8 km/h (1 Bft) 97,87 %
04.11.2017 09:40 2,2 C 7,8 C 98 % 1015,5 hPa 0,0 l/m 2,7 km/h (1 Bft) S-SW 205 0 min 0,000 mm 0,6 UV-I 179 W/m 1,9 C 2,2 C 4,8 km/h (1 Bft) 95,74 %
04.11.2017 09:42 2,2 C 7,8 C 98 % 1015,5 hPa 0,0 l/m 2,3 km/h (1 Bft) S-SW 205 0 min 0,000 mm 0,6 UV-I 182 W/m 1,9 C 2,2 C 3,2 km/h (1 Bft) 100,00 %
04.11.2017 09:44 2,3 C 7,8 C 98 % 1015,4 hPa 0,0 l/m 0,6 km/h (0 Bft) S-SW 205 0 min 0,000 mm 0,6 UV-I 196 W/m 2,0 C 2,3 C 1,6 km/h (1 Bft) 95,74 %
04.11.2017 09:46 2,4 C 7,8 C 98 % 1015,5 hPa 0,0 l/m 0,2 km/h (0 Bft) S-SW 205 2 min 0,000 mm 0,6 UV-I 211 W/m 2,1 C 2,4 C 1,6 km/h (1 Bft) 100,00 %
04.11.2017 09:48 2,5 C 7,8 C 98 % 1015,5 hPa 0,0 l/m 2,2 km/h (1 Bft) S-SW 205 0 min 0,000 mm 0,6 UV-I 195 W/m 2,2 C 2,5 C 4,8 km/h (1 Bft) 97,14 %
04.11.2017 09:50 2,6 C 7,8 C 98 % 1015,5 hPa 0,0 l/m 1,2 km/h (1 Bft) S-SW 205 2 min 0,000 mm 0,6 UV-I 222 W/m 2,3 C 2,6 C 4,8 km/h (1 Bft) 100,00 %
04.11.2017 09:52 2,7 C 7,8 C 98 % 1015,4 hPa 0,0 l/m 1,5 km/h (1 Bft) S-SW 205 0 min 0,000 mm 0,6 UV-I 200 W/m 2,4 C 2,7 C 3,2 km/h (1 Bft) 97,87 %
04.11.2017 09:54 2,7 C 7,8 C 98 % 1015,5 hPa 0,0 l/m 1,5 km/h (1 Bft) S-SW 205 0 min 0,000 mm 0,6 UV-I 184 W/m 2,4 C 2,7 C 3,2 km/h (1 Bft) 97,92 %
04.11.2017 09:56 2,8 C 7,8 C 98 % 1015,4 hPa 0,0 l/m 2,1 km/h (1 Bft) S-SW 205 0 min 0,000 mm 0,6 UV-I 162 W/m 2,5 C 2,8 C 3,2 km/h (1 Bft) 100,00 %
04.11.2017 09:58 2,8 C 7,8 C 98 % 1015,4 hPa 0,0 l/m 0,3 km/h (0 Bft) S-SW 205 0 min 0,000 mm 0,6 UV-I 152 W/m 2,5 C 2,8 C 1,6 km/h (1 Bft) 100,00 %
04.11.2017 10:00 2,8 C 7,8 C 98 % 1015,5 hPa 0,0 l/m 0,0 km/h (0 Bft) S-SW 205 0 min 0,051 mm 0,6 UV-I 154 W/m 2,5 C 2,8 C 0,0 km/h (0 Bft) 97,87 %
04.11.2017 10:02 2,8 C 7,8 C 98 % 1015,5 hPa 0,0 l/m 0,0 km/h (0 Bft) S-SW 205 2 min 0,000 mm 0,7 UV-I 216 W/m 2,5 C 2,8 C 0,0 km/h (0 Bft) 93,62 %
04.11.2017 10:04 2,8 C 7,8 C 98 % 1015,4 hPa 0,0 l/m 0,0 km/h (0 Bft) S-SW 205 2 min 0,000 mm 0,7 UV-I 242 W/m 2,5 C 2,8 C 0,0 km/h (0 Bft) 97,87 %
04.11.2017 10:06 2,9 C 7,8 C 98 % 1015,4 hPa 0,0 l/m 0,0 km/h (0 Bft) S-SW 205 2 min 0,000 mm 0,8 UV-I 262 W/m 2,6 C 2,9 C 0,0 km/h (0 Bft) 91,67 %
04.11.2017 10:08 3,0 C 7,8 C 98 % 1015,5 hPa 0,0 l/m 0,1 km/h (0 Bft) S-SW 205 2 min 0,000 mm 0,8 UV-I 257 W/m 2,7 C 3,0 C 1,6 km/h (1 Bft) 95,74 %
04.11.2017 10:10 3,1 C 7,8 C 98 % 1015,5 hPa 0,0 l/m 0,3 km/h (0 Bft) S-SW 205 2 min 0,000 mm 0,8 UV-I 254 W/m 2,8 C 3,1 C 3,2 km/h (1 Bft) 97,87 %
04.11.2017 10:12 3,3 C 7,8 C 98 % 1015,5 hPa 0,0 l/m 0,1 km/h (0 Bft) S-SW 205 0 min 0,000 mm 0,8 UV-I 213 W/m 3,0 C 3,3 C 1,6 km/h (1 Bft) 95,74 %
04.11.2017 10:14 3,2 C 7,8 C 98 % 1015,5 hPa 0,0 l/m 0,1 km/h (0 Bft) S-SW 205 2 min 0,000 mm 0,7 UV-I 233 W/m 2,9 C 3,2 C 1,6 km/h (1 Bft) 93,62 %
04.11.2017 10:16 3,3 C 7,8 C 98 % 1015,5 hPa 0,0 l/m 0,0 km/h (0 Bft) S-SW 205 2 min 0,000 mm 0,7 UV-I 258 W/m 3,0 C 3,3 C 0,0 km/h (0 Bft) 95,83 %
04.11.2017 10:18 3,4 C 7,8 C 98 % 1015,5 hPa 0,0 l/m 1,6 km/h (1 Bft) S-SW 205 2 min 0,000 mm 0,7 UV-I 228 W/m 3,1 C 3,4 C 3,2 km/h (1 Bft) 94,00 %
04.11.2017 10:20 3,4 C 7,8 C 98 % 1015,5 hPa 0,0 l/m 3,3 km/h (1 Bft) S-SW 205 0 min 0,000 mm 0,7 UV-I 220 W/m 3,1 C 3,4 C 4,8 km/h (1 Bft) 97,87 %
04.11.2017 10:22 3,4 C 7,8 C 98 % 1015,5 hPa 0,0 l/m 2,6 km/h (1 Bft) S-SW 205 2 min 0,000 mm 0,8 UV-I 240 W/m 3,1 C 3,4 C 4,8 km/h (1 Bft) 97,87 %
04.11.2017 10:24 3,4 C 7,8 C 98 % 1015,5 hPa 0,0 l/m 0,3 km/h (0 Bft) S-SW 205 0 min 0,000 mm 0,8 UV-I 219 W/m 3,1 C 3,4 C 1,6 km/h (1 Bft) 95,74 %
04.11.2017 10:26 3,6 C 7,8 C 98 % 1015,5 hPa 0,0 l/m 0,2 km/h (0 Bft) S-SW 205 0 min 0,000 mm 0,8 UV-I 223 W/m 3,3 C 3,6 C 1,6 km/h (1 Bft) 97,87 %
04.11.2017 10:28 3,6 C 7,8 C 98 % 1015,5 hPa 0,0 l/m 0,0 km/h (0 Bft) S-SW 205 2 min 0,000 mm 0,8 UV-I 227 W/m 3,3 C 3,6 C 0,0 km/h (0 Bft) 97,87 %
04.11.2017 10:30 3,6 C 7,8 C 98 % 1015,6 hPa 0,0 l/m 0,0 km/h (0 Bft) S-SW 205 0 min 0,000 mm 0,8 UV-I 224 W/m 3,3 C 3,6 C 0,0 km/h (0 Bft) 93,62 %
04.11.2017 10:32 3,6 C 7,8 C 98 % 1015,5 hPa 0,0 l/m 0,0 km/h (0 Bft) S-SW 205 0 min 0,000 mm 0,8 UV-I 227 W/m 3,3 C 3,6 C 0,0 km/h (0 Bft) 97,87 %
04.11.2017 10:34 3,6 C 7,8 C 98 % 1015,5 hPa 0,0 l/m 0,0 km/h (0 Bft) S-SW 205 2 min 0,000 mm 0,9 UV-I 284 W/m 3,3 C 3,6 C 0,0 km/h (0 Bft) 95,74 %
04.11.2017 10:36 3,8 C 7,8 C 98 % 1015,5 hPa 0,0 l/m 0,0 km/h (0 Bft) S-SW 205 2 min 0,000 mm 1,0 UV-I 351 W/m 3,5 C 3,8 C 0,0 km/h (0 Bft) 97,87 %
04.11.2017 10:38 3,9 C 7,8 C 98 % 1015,5 hPa 0,0 l/m 0,0 km/h (0 Bft) S-SW 205 2 min 0,000 mm 0,9 UV-I 286 W/m 3,6 C 3,9 C 0,0 km/h (0 Bft) 95,74 %
04.11.2017 10:40 3,9 C 7,8 C 98 % 1015,5 hPa 0,0 l/m 0,6 km/h (0 Bft) S-SW 205 2 min 0,000 mm 0,9 UV-I 253 W/m 3,6 C 3,9 C 3,2 km/h (1 Bft) 95,83 %
04.11.2017 10:42 3,9 C 7,8 C 98 % 1015,5 hPa 0,0 l/m 1,7 km/h (1 Bft) S-SW 205 2 min 0,000 mm 0,9 UV-I 235 W/m 3,6 C 3,9 C 4,8 km/h (1 Bft) 97,22 %
04.11.2017 10:44 3,9 C 7,8 C 98 % 1015,6 hPa 0,0 l/m 3,0 km/h (1 Bft) S-SW 205 2 min 0,000 mm 0,9 UV-I 235 W/m 3,6 C 3,9 C 4,8 km/h (1 Bft) 98,00 %
04.11.2017 10:46 3,9 C 7,8 C 98 % 1015,6 hPa 0,0 l/m 2,9 km/h (1 Bft) S-SW 205 2 min 0,000 mm 0,9 UV-I 264 W/m 3,6 C 3,9 C 3,2 km/h (1 Bft) 98,00 %
04.11.2017 10:48 3,9 C 7,8 C 98 % 1015,6 hPa 0,0 l/m 2,1 km/h (1 Bft) S-SW 212 2 min 0,000 mm 0,9 UV-I 296 W/m 3,6 C 3,9 C 4,8 km/h (1 Bft) 97,87 %
04.11.2017 10:50 4,1 C 7,8 C 98 % 1015,6 hPa 0,0 l/m 2,9 km/h (1 Bft) S-SW 213 2 min 0,000 mm 0,9 UV-I 273 W/m 3,8 C 4,1 C 4,8 km/h (1 Bft) 97,87 %
04.11.2017 10:52 4,2 C 7,8 C 98 % 1015,6 hPa 0,0 l/m 2,0 km/h (1 Bft) S-SW 213 0 min 0,000 mm 0,9 UV-I 235 W/m 3,9 C 4,2 C 3,2 km/h (1 Bft) 97,87 %
04.11.2017 10:54 4,3 C 7,8 C 98 % 1015,6 hPa 0,0 l/m 3,3 km/h (1 Bft) S-SW 213 2 min 0,000 mm 0,9 UV-I 252 W/m 4,0 C 4,3 C 4,8 km/h (1 Bft) 93,62 %
04.11.2017 10:56 4,4 C 7,8 C 98 % 1015,6 hPa 0,0 l/m 1,4 km/h (1 Bft) S-SW 213 2 min 0,000 mm 1,0 UV-I 333 W/m 4,1 C 4,4 C 4,8 km/h (1 Bft) 95,74 %
04.11.2017 10:58 4,6 C 7,8 C 98 % 1015,6 hPa 0,0 l/m 1,9 km/h (1 Bft) S-SW 213 2 min 0,000 mm 1,0 UV-I 369 W/m 4,3 C 4,6 C 3,2 km/h (1 Bft) 93,62 %
04.11.2017 11:00 4,7 C 7,8 C 98 % 1015,6 hPa 0,0 l/m 3,2 km/h (1 Bft) SW 223 2 min 0,101 mm 1,0 UV-I 343 W/m 4,4 C 4,7 C 4,8 km/h (1 Bft) 93,62 %
04.11.2017 11:02 4,6 C 7,8 C 98 % 1015,5 hPa 0,0 l/m 4,5 km/h (1 Bft) SW 223 2 min 0,000 mm 1,0 UV-I 329 W/m 4,3 C 4,6 C 6,4 km/h (2 Bft) 93,62 %
04.11.2017 11:04 4,6 C 7,8 C 98 % 1015,5 hPa 0,0 l/m 4,4 km/h (1 Bft) SW 224 2 min 0,000 mm 1,1 UV-I 317 W/m 4,3 C 4,6 C 6,4 km/h (2 Bft) 94,00 %
04.11.2017 11:06 4,7 C 7,8 C 98 % 1015,5 hPa 0,0 l/m 3,1 km/h (1 Bft) SW 225 2 min 0,000 mm 1,0 UV-I 289 W/m 4,4 C 4,7 C 4,8 km/h (1 Bft) 94,29 %
04.11.2017 11:08 4,8 C 7,8 C 98 % 1015,4 hPa 0,0 l/m 3,4 km/h (1 Bft) SW 224 2 min 0,000 mm 1,1 UV-I 307 W/m 4,5 C 4,8 C 4,8 km/h (1 Bft) 96,00 %
04.11.2017 11:10 5,2 C 7,8 C 98 % 1015,4 hPa 0,0 l/m 1,6 km/h (1 Bft) SW 225 2 min 0,000 mm 1,1 UV-I 334 W/m 4,9 C 5,2 C 4,8 km/h (1 Bft) 95,83 %
04.11.2017 11:12 5,1 C 7,8 C 98 % 1015,4 hPa 0,0 l/m 0,1 km/h (0 Bft) SW 225 2 min 0,000 mm 1,1 UV-I 300 W/m 4,8 C 5,1 C 1,6 km/h (1 Bft) 95,65 %
04.11.2017 11:14 5,2 C 7,8 C 98 % 1015,4 hPa 0,0 l/m 1,1 km/h (1 Bft) SW 225 2 min 0,000 mm 1,1 UV-I 327 W/m 4,9 C 5,2 C 3,2 km/h (1 Bft) 97,92 %
04.11.2017 11:16 5,3 C 7,8 C 98 % 1015,4 hPa 0,0 l/m 0,8 km/h (0 Bft) SW 225 2 min 0,000 mm 1,1 UV-I 329 W/m 5,0 C 5,3 C 3,2 km/h (1 Bft) 91,67 %
04.11.2017 11:18 5,3 C 7,8 C 98 % 1015,4 hPa 0,0 l/m 0,0 km/h (0 Bft) SW 225 2 min 0,000 mm 1,1 UV-I 334 W/m 5,0 C 5,3 C 1,6 km/h (1 Bft) 93,55 %
04.11.2017 11:20 5,4 C 7,8 C 98 % 1015,3 hPa 0,0 l/m 0,0 km/h (0 Bft) SW 225 2 min 0,000 mm 1,1 UV-I 351 W/m 5,1 C 5,4 C 0,0 km/h (0 Bft) 97,44 %
04.11.2017 11:22 5,5 C 7,8 C 98 % 1015,3 hPa 0,0 l/m 0,0 km/h (0 Bft) SW 224 2 min 0,000 mm 1,2 UV-I 390 W/m 5,2 C 5,5 C 0,0 km/h (0 Bft) 93,62 %
04.11.2017 11:24 5,7 C 7,8 C 98 % 1015,3 hPa 0,0 l/m 0,0 km/h (0 Bft) SW 225 2 min 0,000 mm 1,2 UV-I 380 W/m 5,4 C 5,7 C 0,0 km/h (0 Bft) 93,62 %
04.11.2017 11:26 5,9 C 7,8 C 97 % 1015,3 hPa 0,0 l/m 1,7 km/h (1 Bft) SW 225 2 min 0,000 mm 1,2 UV-I 346 W/m 5,5 C 5,9 C 3,2 km/h (1 Bft) 98,00 %
04.11.2017 11:28 5,9 C 7,8 C 97 % 1015,3 hPa 0,0 l/m 1,8 km/h (1 Bft) SW 224 2 min 0,000 mm 1,2 UV-I 362 W/m 5,5 C 5,9 C 3,2 km/h (1 Bft) 95,74 %
04.11.2017 11:30 6,0 C 7,8 C 97 % 1015,3 hPa 0,0 l/m 1,2 km/h (1 Bft) SW 225 2 min 0,000 mm 1,2 UV-I 353 W/m 5,6 C 6,0 C 3,2 km/h (1 Bft) 96,00 %
04.11.2017 11:32 6,0 C 7,8 C 97 % 1015,3 hPa 0,0 l/m 0,2 km/h (0 Bft) SW 224 2 min 0,000 mm 1,1 UV-I 322 W/m 5,6 C 6,0 C 1,6 km/h (1 Bft) 97,87 %
04.11.2017 11:34 6,2 C 7,8 C 96 % 1015,2 hPa 0,0 l/m 0,4 km/h (0 Bft) SW 225 2 min 0,000 mm 1,1 UV-I 300 W/m 5,6 C 6,2 C 1,6 km/h (1 Bft) 95,74 %
04.11.2017 11:36 6,3 C 7,8 C 96 % 1015,2 hPa 0,0 l/m 0,2 km/h (0 Bft) SW 225 2 min 0,000 mm 1,1 UV-I 317 W/m 5,7 C 6,3 C 1,6 km/h (1 Bft) 95,74 %
04.11.2017 11:38 6,4 C 7,8 C 96 % 1015,2 hPa 0,0 l/m 0,0 km/h (0 Bft) SW 225 2 min 0,000 mm 1,1 UV-I 348 W/m 5,8 C 6,4 C 1,6 km/h (1 Bft) 96,00 %
04.11.2017 11:40 6,6 C 7,8 C 96 % 1015,2 hPa 0,0 l/m 0,7 km/h (0 Bft) SW 225 2 min 0,000 mm 1,1 UV-I 335 W/m 6,0 C 6,6 C 1,6 km/h (1 Bft) 93,62 %
04.11.2017 11:42 6,6 C 7,8 C 95 % 1015,1 hPa 0,0 l/m 0,1 km/h (0 Bft) SW 225 2 min 0,000 mm 1,1 UV-I 331 W/m 5,9 C 6,6 C 1,6 km/h (1 Bft) 95,74 %
04.11.2017 11:44 6,7 C 7,8 C 95 % 1015,2 hPa 0,0 l/m 0,1 km/h (0 Bft) SW 225 2 min 0,000 mm 1,1 UV-I 340 W/m 6,0 C 6,7 C 1,6 km/h (1 Bft) 94,29 %
04.11.2017 11:46 6,7 C 7,8 C 94 % 1015,2 hPa 0,0 l/m 0,9 km/h (0 Bft) SW 225 2 min 0,000 mm 1,1 UV-I 342 W/m 5,8 C 6,7 C 3,2 km/h (1 Bft) 98,11 %
04.11.2017 11:48 6,7 C 7,8 C 94 % 1015,2 hPa 0,0 l/m 0,3 km/h (0 Bft) SW 225 2 min 0,000 mm 1,2 UV-I 358 W/m 5,8 C 6,7 C 1,6 km/h (1 Bft) 97,87 %
04.11.2017 11:50 6,7 C 7,8 C 94 % 1015,2 hPa 0,0 l/m 0,5 km/h (0 Bft) SW 225 2 min 0,000 mm 1,2 UV-I 348 W/m 5,8 C 6,7 C 1,6 km/h (1 Bft) 97,87 %
04.11.2017 11:52 6,8 C 7,8 C 93 % 1015,2 hPa 0,0 l/m 0,5 km/h (0 Bft) SW 225 2 min 0,000 mm 1,1 UV-I 322 W/m 5,7 C 6,8 C 1,6 km/h (1 Bft) 95,74 %
04.11.2017 11:54 6,9 C 7,8 C 94 % 1015,2 hPa 0,0 l/m 0,1 km/h (0 Bft) SW 225 2 min 0,000 mm 1,1 UV-I 302 W/m 6,0 C 6,9 C 1,6 km/h (1 Bft) 95,74 %
04.11.2017 11:56 6,9 C 7,8 C 93 % 1015,1 hPa 0,0 l/m 0,7 km/h (0 Bft) SW 225 2 min 0,000 mm 1,1 UV-I 317 W/m 5,8 C 6,9 C 1,6 km/h (1 Bft) 97,92 %
04.11.2017 11:58 7,0 C 7,8 C 93 % 1015,2 hPa 0,0 l/m 1,3 km/h (1 Bft) SW 225 2 min 0,000 mm 1,1 UV-I 341 W/m 5,9 C 7,0 C 3,2 km/h (1 Bft) 97,56 %
04.11.2017 12:00 7,0 C 7,8 C 93 % 1015,2 hPa 0,0 l/m 0,9 km/h (0 Bft) SW 225 2 min 0,127 mm 1,1 UV-I 315 W/m 5,9 C 7,0 C 3,2 km/h (1 Bft) 97,87 %
04.11.2017 12:02 7,2 C 7,8 C 93 % 1015,2 hPa 0,0 l/m 0,3 km/h (0 Bft) SW 225 2 min 0,000 mm 1,2 UV-I 369 W/m 6,1 C 7,2 C 1,6 km/h (1 Bft) 97,87 %
04.11.2017 12:04 7,3 C 7,8 C 92 % 1015,2 hPa 0,0 l/m 0,8 km/h (0 Bft) SW 225 2 min 0,000 mm 1,2 UV-I 412 W/m 6,1 C 7,3 C 1,6 km/h (1 Bft) 96,00 %
04.11.2017 12:06 7,2 C 7,8 C 91 % 1015,1 hPa 0,0 l/m 0,6 km/h (0 Bft) SW 225 2 min 0,000 mm 1,2 UV-I 379 W/m 5,8 C 7,2 C 3,2 km/h (1 Bft) 97,87 %
04.11.2017 12:08 7,3 C 7,8 C 92 % 1015,2 hPa 0,0 l/m 0,9 km/h (0 Bft) SW 225 2 min 0,000 mm 1,2 UV-I 395 W/m 6,1 C 7,3 C 3,2 km/h (1 Bft) 97,87 %
04.11.2017 12:10 7,4 C 7,8 C 91 % 1015,1 hPa 0,0 l/m 0,5 km/h (0 Bft) SW 225 2 min 0,000 mm 1,2 UV-I 347 W/m 6,0 C 7,4 C 1,6 km/h (1 Bft) 98,00 %
04.11.2017 12:12 7,5 C 7,8 C 91 % 1015,1 hPa 0,0 l/m 2,1 km/h (1 Bft) SW 225 2 min 0,000 mm 1,2 UV-I 377 W/m 6,1 C 7,5 C 4,8 km/h (1 Bft) 97,87 %
04.11.2017 12:14 7,7 C 7,8 C 91 % 1015,1 hPa 0,0 l/m 3,2 km/h (1 Bft) SW 222 2 min 0,000 mm 1,2 UV-I 381 W/m 6,3 C 7,7 C 4,8 km/h (1 Bft) 93,62 %
04.11.2017 12:16 7,7 C 7,8 C 91 % 1015,0 hPa 0,0 l/m 2,5 km/h (1 Bft) O-NO 76 2 min 0,000 mm 1,2 UV-I 380 W/m 6,3 C 7,7 C 4,8 km/h (1 Bft) 94,74 %
04.11.2017 12:18 7,7 C 7,8 C 90 % 1015,0 hPa 0,0 l/m 0,3 km/h (0 Bft) O-NO 76 2 min 0,000 mm 1,1 UV-I 350 W/m 6,2 C 7,7 C 1,6 km/h (1 Bft) 97,87 %
04.11.2017 12:20 7,7 C 7,8 C 89 % 1015,0 hPa 0,0 l/m 2,1 km/h (1 Bft) O-NO 76 2 min 0,000 mm 1,1 UV-I 351 W/m 6,0 C 7,7 C 3,2 km/h (1 Bft) 97,87 %
04.11.2017 12:22 7,9 C 7,8 C 91 % 1015,0 hPa 0,0 l/m 2,3 km/h (1 Bft) O-NO 75 2 min 0,000 mm 1,1 UV-I 361 W/m 6,5 C 7,9 C 3,2 km/h (1 Bft) 91,49 %
04.11.2017 12:24 7,8 C 7,8 C 89 % 1014,9 hPa 0,0 l/m 0,7 km/h (0 Bft) O-NO 75 2 min 0,000 mm 1,1 UV-I 318 W/m 6,1 C 7,8 C 3,2 km/h (1 Bft) 97,87 %
04.11.2017 12:26 7,9 C 7,8 C 90 % 1014,9 hPa 0,0 l/m 0,4 km/h (0 Bft) O-NO 75 2 min 0,000 mm 1,0 UV-I 298 W/m 6,4 C 7,9 C 3,2 km/h (1 Bft) 95,74 %
04.11.2017 12:28 7,9 C 7,8 C 89 % 1014,8 hPa 0,0 l/m 2,0 km/h (1 Bft) O-NO 75 0 min 0,000 mm 0,9 UV-I 222 W/m 6,2 C 7,9 C 4,8 km/h (1 Bft) 97,87 %
04.11.2017 12:30 7,9 C 7,8 C 89 % 1014,8 hPa 0,0 l/m 1,5 km/h (1 Bft) O-NO 75 2 min 0,000 mm 1,0 UV-I 255 W/m 6,2 C 7,9 C 3,2 km/h (1 Bft) 95,74 %
04.11.2017 12:32 8,0 C 7,8 C 90 % 1014,8 hPa 0,0 l/m 2,8 km/h (1 Bft) O-NO 74 2 min 0,000 mm 0,9 UV-I 258 W/m 6,5 C 8,0 C 4,8 km/h (1 Bft) 95,83 %
04.11.2017 12:34 8,0 C 7,8 C 89 % 1014,8 hPa 0,0 l/m 3,3 km/h (1 Bft) O-NO 74 2 min 0,000 mm 0,9 UV-I 247 W/m 6,3 C 8,0 C 4,8 km/h (1 Bft) 93,62 %
04.11.2017 12:36 8,1 C 7,8 C 90 % 1014,7 hPa 0,0 l/m 3,6 km/h (1 Bft) O-NO 75 0 min 0,000 mm 0,9 UV-I 239 W/m 6,6 C 8,1 C 4,8 km/h (1 Bft) 93,62 %
04.11.2017 12:38 8,1 C 7,8 C 89 % 1014,7 hPa 0,0 l/m 2,1 km/h (1 Bft) O-NO 75 2 min 0,000 mm 0,9 UV-I 276 W/m 6,4 C 8,1 C 3,2 km/h (1 Bft) 93,62 %
04.11.2017 12:40 8,3 C 7,8 C 90 % 1014,7 hPa 0,0 l/m 3,2 km/h (1 Bft) O-NO 74 2 min 0,000 mm 1,0 UV-I 315 W/m 6,8 C 8,3 C 4,8 km/h (1 Bft) 95,74 %
04.11.2017 12:42 8,3 C 7,8 C 89 % 1014,7 hPa 0,0 l/m 0,8 km/h (0 Bft) O-NO 74 2 min 0,000 mm 1,0 UV-I 302 W/m 6,6 C 8,3 C 3,2 km/h (1 Bft) 93,62 %
04.11.2017 12:44 8,3 C 7,8 C 88 % 1014,7 hPa 0,0 l/m 2,8 km/h (1 Bft) O-NO 74 2 min 0,000 mm 1,0 UV-I 295 W/m 6,4 C 8,3 C 4,8 km/h (1 Bft) 91,49 %
04.11.2017 12:46 8,2 C 7,8 C 87 % 1014,7 hPa 0,0 l/m 2,7 km/h (1 Bft) O-NO 74 2 min 0,000 mm 0,9 UV-I 275 W/m 6,2 C 8,2 C 4,8 km/h (1 Bft) 91,49 %
04.11.2017 12:48 8,2 C 7,8 C 88 % 1014,7 hPa 0,0 l/m 1,8 km/h (1 Bft) O-NO 75 2 min 0,000 mm 0,9 UV-I 277 W/m 6,3 C 8,2 C 4,8 km/h (1 Bft) 94,00 %
04.11.2017 12:50 8,2 C 7,8 C 88 % 1014,6 hPa 0,0 l/m 1,6 km/h (1 Bft) O-NO 68 2 min 0,000 mm 0,9 UV-I 269 W/m 6,3 C 8,2 C 6,4 km/h (2 Bft) 95,74 %
04.11.2017 12:52 8,2 C 7,8 C 88 % 1014,6 hPa 0,0 l/m 2,0 km/h (1 Bft) O-NO 69 2 min 0,000 mm 0,9 UV-I 263 W/m 6,3 C 8,2 C 4,8 km/h (1 Bft) 95,74 %
04.11.2017 12:54 8,2 C 7,8 C 88 % 1014,6 hPa 0,0 l/m 4,2 km/h (1 Bft) O 91 2 min 0,000 mm 0,9 UV-I 263 W/m 6,3 C 8,2 C 4,8 km/h (1 Bft) 92,00 %
04.11.2017 12:56 8,2 C 7,8 C 88 % 1014,6 hPa 0,0 l/m 3,3 km/h (1 Bft) O 80 2 min 0,000 mm 0,9 UV-I 279 W/m 6,3 C 8,2 C 4,8 km/h (1 Bft) 94,44 %
04.11.2017 12:58 8,3 C 7,8 C 88 % 1014,6 hPa 0,0 l/m 3,8 km/h (1 Bft) O 80 2 min 0,000 mm 0,9 UV-I 301 W/m 6,4 C 8,3 C 4,8 km/h (1 Bft) 96,00 %
04.11.2017 13:00 8,3 C 7,8 C 89 % 1014,6 hPa 0,0 l/m 0,8 km/h (0 Bft) O 80 2 min 0,000 mm 0,9 UV-I 307 W/m 6,6 C 8,3 C 3,2 km/h (1 Bft) 93,62 %
04.11.2017 13:02 8,5 C 7,8 C 88 % 1014,6 hPa 0,0 l/m 1,4 km/h (1 Bft) O 80 2 min 0,127 mm 0,9 UV-I 305 W/m 6,6 C 8,5 C 3,2 km/h (1 Bft) 96,00 %
04.11.2017 13:04 8,6 C 7,8 C 88 % 1014,6 hPa 0,0 l/m 2,3 km/h (1 Bft) O 80 2 min 0,000 mm 0,9 UV-I 315 W/m 6,7 C 8,6 C 4,8 km/h (1 Bft) 97,87 %
04.11.2017 13:06 8,7 C 7,8 C 87 % 1014,6 hPa 0,0 l/m 2,2 km/h (1 Bft) O 80 2 min 0,000 mm 0,9 UV-I 308 W/m 6,7 C 8,7 C 4,8 km/h (1 Bft) 95,74 %
04.11.2017 13:08 8,7 C 7,8 C 88 % 1014,6 hPa 0,0 l/m 2,8 km/h (1 Bft) O 79 2 min 0,000 mm 0,9 UV-I 287 W/m 6,8 C 8,7 C 4,8 km/h (1 Bft) 97,87 %
04.11.2017 13:10 8,7 C 7,8 C 87 % 1014,6 hPa 0,0 l/m 4,1 km/h (1 Bft) O 79 2 min 0,000 mm 0,9 UV-I 276 W/m 6,7 C 8,7 C 6,4 km/h (2 Bft) 93,62 %
04.11.2017 13:12 8,8 C 7,8 C 87 % 1014,5 hPa 0,0 l/m 2,2 km/h (1 Bft) O 79 2 min 0,000 mm 0,8 UV-I 267 W/m 6,8 C 8,8 C 4,8 km/h (1 Bft) 91,49 %
04.11.2017 13:14 8,8 C 7,8 C 87 % 1014,6 hPa 0,0 l/m 3,8 km/h (1 Bft) O-NO 71 2 min 0,000 mm 0,8 UV-I 253 W/m 6,8 C 8,8 C 6,4 km/h (2 Bft) 97,87 %
04.11.2017 13:16 8,8 C 7,8 C 87 % 1014,5 hPa 0,0 l/m 5,5 km/h (1 Bft) NO 53 2 min 0,000 mm 0,8 UV-I 258 W/m 6,8 C 8,8 C 8,0 km/h (2 Bft) 97,92 %
04.11.2017 13:18 8,8 C 7,8 C 87 % 1014,6 hPa 0,0 l/m 4,0 km/h (1 Bft) NO 52 2 min 0,000 mm 0,8 UV-I 272 W/m 6,8 C 8,8 C 6,4 km/h (2 Bft) 97,87 %
04.11.2017 13:20 8,8 C 7,8 C 87 % 1014,5 hPa 0,0 l/m 3,1 km/h (1 Bft) NO 52 2 min 0,000 mm 0,8 UV-I 274 W/m 6,8 C 8,8 C 4,8 km/h (1 Bft) 95,83 %
04.11.2017 13:22 8,8 C 7,8 C 87 % 1014,5 hPa 0,0 l/m 2,6 km/h (1 Bft) NO 52 2 min 0,000 mm 0,8 UV-I 294 W/m 6,8 C 8,8 C 4,8 km/h (1 Bft) 97,87 %
04.11.2017 13:24 8,9 C 7,8 C 88 % 1014,5 hPa 0,0 l/m 3,7 km/h (1 Bft) NO 52 2 min 0,000 mm 0,8 UV-I 299 W/m 7,0 C 8,9 C 6,4 km/h (2 Bft) 97,37 %
04.11.2017 13:26 9,0 C 7,8 C 87 % 1014,5 hPa 0,0 l/m 3,5 km/h (1 Bft) NO 52 2 min 0,000 mm 0,8 UV-I 279 W/m 7,0 C 9,0 C 4,8 km/h (1 Bft) 97,87 %
04.11.2017 13:28 8,9 C 7,8 C 86 % 1014,5 hPa 0,0 l/m 2,8 km/h (1 Bft) NO 53 2 min 0,000 mm 0,8 UV-I 261 W/m 6,7 C 8,9 C 6,4 km/h (2 Bft) 98,00 %
04.11.2017 13:30 8,9 C 7,8 C 86 % 1014,4 hPa 0,0 l/m 4,6 km/h (1 Bft) NO 51 2 min 0,000 mm 0,7 UV-I 251 W/m 6,7 C 8,9 C 6,4 km/h (2 Bft) 97,87 %
04.11.2017 13:32 8,9 C 7,8 C 86 % 1014,4 hPa 0,0 l/m 4,8 km/h (1 Bft) O-NO 71 2 min 0,000 mm 0,7 UV-I 242 W/m 6,7 C 8,9 C 6,4 km/h (2 Bft) 95,74 %
04.11.2017 13:34 8,8 C 7,8 C 86 % 1014,4 hPa 0,0 l/m 3,4 km/h (1 Bft) O-NO 71 2 min 0,000 mm 0,7 UV-I 247 W/m 6,6 C 8,8 C 4,8 km/h (1 Bft) 97,87 %
04.11.2017 13:36 8,8 C 7,8 C 86 % 1014,4 hPa 0,0 l/m 3,9 km/h (1 Bft) O-NO 66 2 min 0,000 mm 0,7 UV-I 237 W/m 6,6 C 8,8 C 4,8 km/h (1 Bft) 95,74 %
04.11.2017 13:38 8,8 C 7,8 C 86 % 1014,3 hPa 0,0 l/m 3,7 km/h (1 Bft) O-NO 66 2 min 0,000 mm 0,7 UV-I 241 W/m 6,6 C 8,8 C 4,8 km/h (1 Bft) 97,87 %
04.11.2017 13:40 8,9 C 7,8 C 86 % 1014,4 hPa 0,0 l/m 2,7 km/h (1 Bft) O-NO 66 2 min 0,000 mm 0,7 UV-I 278 W/m 6,7 C 8,9 C 4,8 km/h (1 Bft) 98,00 %
04.11.2017 13:42 8,9 C 7,8 C 87 % 1014,3 hPa 0,0 l/m 4,5 km/h (1 Bft) O-NO 66 2 min 0,000 mm 0,7 UV-I 323 W/m 6,9 C 8,9 C 6,4 km/h (2 Bft) 97,37 %
04.11.2017 13:44 9,1 C 7,8 C 87 % 1014,3 hPa 0,0 l/m 4,4 km/h (1 Bft) NO 54 2 min 0,000 mm 0,7 UV-I 325 W/m 7,1 C 9,1 C 6,4 km/h (2 Bft) 98,11 %
04.11.2017 13:46 9,2 C 7,8 C 85 % 1014,3 hPa 0,0 l/m 4,2 km/h (1 Bft) NO 46 2 min 0,000 mm 0,7 UV-I 266 W/m 6,8 C 9,2 C 6,4 km/h (2 Bft) 98,00 %
04.11.2017 13:48 9,1 C 7,8 C 86 % 1014,3 hPa 0,0 l/m 2,1 km/h (1 Bft) NO 37 2 min 0,000 mm 0,7 UV-I 254 W/m 6,9 C 9,1 C 4,8 km/h (1 Bft) 97,87 %
04.11.2017 13:50 9,2 C 7,8 C 85 % 1014,2 hPa 0,0 l/m 2,0 km/h (1 Bft) NO 37 2 min 0,000 mm 0,7 UV-I 337 W/m 6,8 C 9,2 C 4,8 km/h (1 Bft) 95,74 %
04.11.2017 13:52 9,1 C 7,8 C 85 % 1014,2 hPa 0,0 l/m 3,8 km/h (1 Bft) O-NO 66 2 min 0,000 mm 0,7 UV-I 311 W/m 6,7 C 9,1 C 6,4 km/h (2 Bft) 97,22 %
04.11.2017 13:54 9,1 C 7,8 C 86 % 1014,2 hPa 0,0 l/m 2,9 km/h (1 Bft) O-NO 66 2 min 0,000 mm 0,7 UV-I 306 W/m 6,9 C 9,1 C 4,8 km/h (1 Bft) 96,00 %
04.11.2017 13:56 9,2 C 7,8 C 86 % 1014,2 hPa 0,0 l/m 3,1 km/h (1 Bft) O-NO 66 2 min 0,000 mm 0,7 UV-I 311 W/m 7,0 C 9,2 C 4,8 km/h (1 Bft) 93,62 %
04.11.2017 13:58 9,2 C 7,8 C 84 % 1014,2 hPa 0,0 l/m 3,3 km/h (1 Bft) O-NO 66 2 min 0,000 mm 0,6 UV-I 291 W/m 6,6 C 9,2 C 4,8 km/h (1 Bft) 95,74 %
04.11.2017 14:00 9,2 C 7,8 C 84 % 1014,2 hPa 0,0 l/m 4,2 km/h (1 Bft) O-NO 66 2 min 0,000 mm 0,6 UV-I 241 W/m 6,6 C 9,2 C 6,4 km/h (2 Bft) 97,92 %
04.11.2017 14:02 9,3 C 7,8 C 84 % 1014,1 hPa 0,0 l/m 3,5 km/h (1 Bft) O-NO 66 2 min 0,127 mm 0,6 UV-I 289 W/m 6,7 C 9,3 C 4,8 km/h (1 Bft) 97,87 %
04.11.2017 14:04 9,4 C 7,8 C 84 % 1014,1 hPa 0,0 l/m 4,7 km/h (1 Bft) O-NO 67 2 min 0,000 mm 0,6 UV-I 300 W/m 6,8 C 9,4 C 6,4 km/h (2 Bft) 95,74 %
04.11.2017 14:06 9,3 C 7,8 C 83 % 1014,1 hPa 0,0 l/m 4,7 km/h (1 Bft) O-NO 66 2 min 0,000 mm 0,6 UV-I 242 W/m 6,6 C 9,3 C 6,4 km/h (2 Bft) 97,87 %
04.11.2017 14:08 9,3 C 7,8 C 83 % 1014,1 hPa 0,0 l/m 4,4 km/h (1 Bft) O-NO 66 2 min 0,000 mm 0,6 UV-I 237 W/m 6,6 C 9,3 C 6,4 km/h (2 Bft) 97,87 %
04.11.2017 14:10 9,3 C 7,8 C 82 % 1014,1 hPa 0,0 l/m 4,6 km/h (1 Bft) O-NO 65 2 min 0,000 mm 0,6 UV-I 221 W/m 6,4 C 9,3 C 6,4 km/h (2 Bft) 95,83 %
04.11.2017 14:12 9,3 C 7,8 C 83 % 1014,0 hPa 0,0 l/m 4,5 km/h (1 Bft) O-NO 65 2 min 0,000 mm 0,6 UV-I 238 W/m 6,6 C 9,3 C 6,4 km/h (2 Bft) 97,87 %
04.11.2017 14:14 9,3 C 7,8 C 83 % 1014,0 hPa 0,0 l/m 4,8 km/h (1 Bft) O-NO 61 2 min 0,000 mm 0,5 UV-I 237 W/m 6,6 C 9,3 C 6,4 km/h (2 Bft) 97,87 %
04.11.2017 14:16 9,3 C 7,8 C 83 % 1014,0 hPa 0,0 l/m 4,8 km/h (1 Bft) O 80 2 min 0,000 mm 0,5 UV-I 225 W/m 6,6 C 9,3 C 6,4 km/h (2 Bft) 97,87 %
04.11.2017 14:18 9,3 C 7,8 C 83 % 1014,0 hPa 0,0 l/m 4,0 km/h (1 Bft) O-NO 78 2 min 0,000 mm 0,5 UV-I 223 W/m 6,6 C 9,3 C 6,4 km/h (2 Bft) 93,62 %
04.11.2017 14:20 9,3 C 7,8 C 83 % 1013,9 hPa 0,0 l/m 4,7 km/h (1 Bft) NO 54 2 min 0,000 mm 0,5 UV-I 211 W/m 6,6 C 9,3 C 6,4 km/h (2 Bft) 93,62 %
04.11.2017 14:22 9,2 C 7,8 C 83 % 1014,0 hPa 0,0 l/m 5,6 km/h (1 Bft) O-NO 71 2 min 0,000 mm 0,5 UV-I 200 W/m 6,5 C 9,2 C 9,7 km/h (2 Bft) 91,49 %
04.11.2017 14:24 9,2 C 7,8 C 82 % 1014,0 hPa 0,0 l/m 4,5 km/h (1 Bft) O-NO 65 2 min 0,000 mm 0,5 UV-I 190 W/m 6,3 C 9,2 C 6,4 km/h (2 Bft) 89,47 %
04.11.2017 14:26 9,2 C 7,8 C 83 % 1014,0 hPa 0,0 l/m 3,8 km/h (1 Bft) NO 34 2 min 0,000 mm 0,0 UV-I 178 W/m 6,5 C 9,2 C 6,4 km/h (2 Bft) 94,34 %
04.11.2017 14:28 9,2 C 7,8 C 84 % 1014,0 hPa 0,0 l/m 4,2 km/h (1 Bft) NO 34 2 min 0,000 mm 0,0 UV-I 163 W/m 6,6 C 9,2 C 6,4 km/h (2 Bft) 93,62 %
04.11.2017 14:30 9,2 C 7,8 C 84 % 1014,0 hPa 0,0 l/m 3,1 km/h (1 Bft) NO 35 0 min 0,000 mm 0,0 UV-I 156 W/m 6,6 C 9,2 C 8,0 km/h (2 Bft) 95,74 %
04.11.2017 14:32 9,2 C 7,8 C 84 % 1014,0 hPa 0,0 l/m 3,9 km/h (1 Bft) NO 35 0 min 0,000 mm 0,0 UV-I 153 W/m 6,6 C 9,2 C 6,4 km/h (2 Bft) 95,83 %
04.11.2017 14:34 9,2 C 7,8 C 84 % 1014,0 hPa 0,0 l/m 3,7 km/h (1 Bft) NO 35 0 min 0,000 mm 0,0 UV-I 147 W/m 6,6 C 9,2 C 6,4 km/h (2 Bft) 93,62 %
04.11.2017 14:36 9,1 C 7,8 C 84 % 1014,0 hPa 0,0 l/m 5,2 km/h (1 Bft) NO 42 0 min 0,000 mm 0,0 UV-I 141 W/m 6,5 C 9,1 C 6,4 km/h (2 Bft) 95,74 %
04.11.2017 14:38 9,1 C 7,8 C 84 % 1014,0 hPa 0,0 l/m 4,9 km/h (1 Bft) NO 42 0 min 0,000 mm 0,0 UV-I 136 W/m 6,5 C 9,1 C 6,4 km/h (2 Bft) 94,34 %
04.11.2017 14:40 9,1 C 7,8 C 84 % 1014,0 hPa 0,0 l/m 4,1 km/h (1 Bft) NO 42 0 min 0,000 mm 0,0 UV-I 131 W/m 6,5 C 9,1 C 6,4 km/h (2 Bft) 97,37 %
04.11.2017 14:42 9,1 C 7,8 C 84 % 1014,1 hPa 0,0 l/m 3,5 km/h (1 Bft) NO 42 0 min 0,000 mm 0,0 UV-I 124 W/m 6,5 C 9,1 C 4,8 km/h (1 Bft) 94,00 %
04.11.2017 14:44 9,1 C 7,8 C 84 % 1014,0 hPa 0,0 l/m 4,6 km/h (1 Bft) NO 42 0 min 0,000 mm 0,0 UV-I 119 W/m 6,5 C 9,1 C 6,4 km/h (2 Bft) 93,62 %
04.11.2017 14:46 9,1 C 7,8 C 84 % 1014,0 hPa 0,0 l/m 3,2 km/h (1 Bft) NO 42 0 min 0,000 mm 0,0 UV-I 116 W/m 6,5 C 9,1 C 6,4 km/h (2 Bft) 95,74 %
04.11.2017 14:48 9,1 C 7,8 C 84 % 1014,1 hPa 0,0 l/m 3,1 km/h (1 Bft) NO 42 0 min 0,000 mm 0,0 UV-I 116 W/m 6,5 C 9,1 C 6,4 km/h (2 Bft) 90,00 %
04.11.2017 14:50 9,1 C 7,8 C 85 % 1014,0 hPa 0,0 l/m 3,5 km/h (1 Bft) NO 42 0 min 0,000 mm 0,0 UV-I 115 W/m 6,7 C 9,1 C 6,4 km/h (2 Bft) 92,11 %
04.11.2017 14:52 9,0 C 7,8 C 84 % 1014,0 hPa 0,0 l/m 4,5 km/h (1 Bft) NO 42 0 min 0,000 mm 0,0 UV-I 113 W/m 6,4 C 9,0 C 8,0 km/h (2 Bft) 93,62 %
04.11.2017 14:54 9,0 C 7,8 C 85 % 1014,0 hPa 0,0 l/m 6,4 km/h (2 Bft) NO 42 0 min 0,000 mm 0,0 UV-I 109 W/m 6,6 C 9,0 C 8,0 km/h (2 Bft) 96,23 %
04.11.2017 14:56 9,0 C 7,8 C 85 % 1014,0 hPa 0,0 l/m 4,6 km/h (1 Bft) NO 42 0 min 0,000 mm 0,0 UV-I 109 W/m 6,6 C 9,0 C 6,4 km/h (2 Bft) 100,00 %
04.11.2017 14:58 9,0 C 7,8 C 86 % 1014,1 hPa 0,0 l/m 4,4 km/h (1 Bft) NO 42 0 min 0,000 mm 0,0 UV-I 109 W/m 6,8 C 9,0 C 6,4 km/h (2 Bft) 97,96 %
04.11.2017 15:00 9,1 C 7,8 C 86 % 1014,1 hPa 0,0 l/m 4,2 km/h (1 Bft) NO 46 0 min 0,000 mm 0,0 UV-I 109 W/m 6,9 C 9,1 C 6,4 km/h (2 Bft) 100,00 %
04.11.2017 15:02 9,1 C 7,8 C 86 % 1014,1 hPa 0,0 l/m 5,6 km/h (1 Bft) O-NO 57 0 min 0,076 mm 0,0 UV-I 108 W/m 6,9 C 9,1 C 6,4 km/h (2 Bft) 100,00 %
04.11.2017 15:04 9,2 C 7,8 C 85 % 1014,1 hPa 0,0 l/m 4,3 km/h (1 Bft) O-NO 59 0 min 0,000 mm 0,0 UV-I 105 W/m 6,8 C 9,2 C 6,4 km/h (2 Bft) 100,00 %
04.11.2017 15:06 9,2 C 7,8 C 86 % 1014,1 hPa 0,0 l/m 4,8 km/h (1 Bft) O-NO 59 0 min 0,000 mm 0,0 UV-I 104 W/m 7,0 C 9,2 C 6,4 km/h (2 Bft) 98,00 %
04.11.2017 15:08 9,2 C 7,8 C 86 % 1014,1 hPa 0,0 l/m 4,9 km/h (1 Bft) O-NO 59 0 min 0,000 mm 0,0 UV-I 100 W/m 7,0 C 9,2 C 8,0 km/h (2 Bft) 97,96 %
04.11.2017 15:10 9,2 C 7,8 C 86 % 1014,1 hPa 0,0 l/m 4,7 km/h (1 Bft) O-NO 59 0 min 0,000 mm 0,0 UV-I 98 W/m 7,0 C 9,2 C 6,4 km/h (2 Bft) 100,00 %
04.11.2017 15:12 9,2 C 7,8 C 87 % 1014,0 hPa 0,0 l/m 4,1 km/h (1 Bft) O-NO 59 0 min 0,000 mm 0,0 UV-I 97 W/m 7,2 C 9,2 C 6,4 km/h (2 Bft) 100,00 %
04.11.2017 15:14 9,2 C 7,8 C 88 % 1014,1 hPa 0,0 l/m 5,3 km/h (1 Bft) O-NO 62 0 min 0,000 mm 0,0 UV-I 94 W/m 7,3 C 9,2 C 8,0 km/h (2 Bft) 100,00 %
04.11.2017 15:16 9,1 C 7,8 C 87 % 1014,1 hPa 0,0 l/m 5,8 km/h (2 Bft) O-NO 63 0 min 0,000 mm 0,0 UV-I 92 W/m 7,1 C 9,1 C 8,0 km/h (2 Bft) 97,87 %
04.11.2017 15:18 9,1 C 7,8 C 87 % 1014,1 hPa 0,0 l/m 4,5 km/h (1 Bft) O-NO 63 0 min 0,000 mm 0,0 UV-I 90 W/m 7,1 C 9,1 C 6,4 km/h (2 Bft) 93,62 %
04.11.2017 15:20 9,1 C 7,8 C 87 % 1014,1 hPa 0,0 l/m 4,2 km/h (1 Bft) O-NO 63 0 min 0,000 mm 0,0 UV-I 87 W/m 7,1 C 9,1 C 6,4 km/h (2 Bft) 100,00 %
04.11.2017 15:22 9,1 C 7,8 C 87 % 1014,1 hPa 0,0 l/m 4,7 km/h (1 Bft) O-NO 63 0 min 0,000 mm 0,0 UV-I 84 W/m 7,1 C 9,1 C 6,4 km/h (2 Bft) 100,00 %
04.11.2017 15:24 9,1 C 7,8 C 87 % 1014,1 hPa 0,0 l/m 4,5 km/h (1 Bft) O-NO 63 0 min 0,000 mm 0,0 UV-I 81 W/m 7,1 C 9,1 C 6,4 km/h (2 Bft) 100,00 %
04.11.2017 15:26 9,1 C 7,8 C 87 % 1014,1 hPa 0,0 l/m 5,0 km/h (1 Bft) NO 53 0 min 0,000 mm 0,0 UV-I 77 W/m 7,1 C 9,1 C 8,0 km/h (2 Bft) 100,00 %
04.11.2017 15:28 9,1 C 7,8 C 88 % 1014,1 hPa 0,0 l/m 3,8 km/h (1 Bft) NO 53 0 min 0,000 mm 0,0 UV-I 75 W/m 7,2 C 9,1 C 6,4 km/h (2 Bft) 100,00 %
04.11.2017 15:30 9,1 C 7,8 C 88 % 1014,1 hPa 0,0 l/m 1,9 km/h (1 Bft) NO 53 0 min 0,000 mm 0,0 UV-I 72 W/m 7,2 C 9,1 C 4,8 km/h (1 Bft) 97,37 %
04.11.2017 15:32 9,0 C 7,8 C 88 % 1014,1 hPa 0,0 l/m 4,5 km/h (1 Bft) NO 53 0 min 0,000 mm 0,0 UV-I 70 W/m 7,1 C 9,0 C 6,4 km/h (2 Bft) 100,00 %
04.11.2017 15:34 8,9 C 7,8 C 89 % 1014,1 hPa 0,0 l/m 5,1 km/h (1 Bft) NO 53 0 min 0,000 mm 0,0 UV-I 69 W/m 7,2 C 8,9 C 6,4 km/h (2 Bft) 97,87 %
04.11.2017 15:36 8,8 C 7,8 C 89 % 1014,1 hPa 0,0 l/m 5,1 km/h (1 Bft) NO 53 0 min 0,000 mm 0,0 UV-I 67 W/m 7,1 C 8,8 C 6,4 km/h (2 Bft) 100,00 %
04.11.2017 15:38 8,8 C 7,8 C 89 % 1014,0 hPa 0,0 l/m 4,6 km/h (1 Bft) NO 53 0 min 0,000 mm 0,0 UV-I 64 W/m 7,1 C 8,8 C 6,4 km/h (2 Bft) 97,87 %
04.11.2017 15:40 8,8 C 7,8 C 89 % 1014,1 hPa 0,0 l/m 4,3 km/h (1 Bft) NO 51 0 min 0,000 mm 0,0 UV-I 62 W/m 7,1 C 8,8 C 6,4 km/h (2 Bft) 100,00 %
04.11.2017 15:42 8,8 C 7,8 C 89 % 1014,1 hPa 0,0 l/m 4,4 km/h (1 Bft) NO 51 0 min 0,000 mm 0,0 UV-I 58 W/m 7,1 C 8,8 C 6,4 km/h (2 Bft) 97,87 %
04.11.2017 15:44 8,8 C 7,8 C 89 % 1014,1 hPa 0,0 l/m 3,8 km/h (1 Bft) NO 51 0 min 0,000 mm 0,0 UV-I 54 W/m 7,1 C 8,8 C 6,4 km/h (2 Bft) 100,00 %
04.11.2017 15:46 8,8 C 7,8 C 89 % 1014,1 hPa 0,0 l/m 2,0 km/h (1 Bft) NO 51 0 min 0,000 mm 0,0 UV-I 52 W/m 7,1 C 8,8 C 4,8 km/h (1 Bft) 95,74 %
04.11.2017 15:48 8,8 C 7,8 C 89 % 1014,1 hPa 0,0 l/m 3,0 km/h (1 Bft) NO 51 0 min 0,000 mm 0,0 UV-I 49 W/m 7,1 C 8,8 C 4,8 km/h (1 Bft) 95,74 %
04.11.2017 15:50 8,8 C 7,8 C 89 % 1014,0 hPa 0,0 l/m 2,7 km/h (1 Bft) NO 51 0 min 0,000 mm 0,0 UV-I 47 W/m 7,1 C 8,8 C 4,8 km/h (1 Bft) 98,00 %
04.11.2017 15:52 8,7 C 7,8 C 89 % 1014,0 hPa 0,0 l/m 3,8 km/h (1 Bft) NO 51 0 min 0,000 mm 0,0 UV-I 44 W/m 7,0 C 8,7 C 4,8 km/h (1 Bft) 100,00 %
04.11.2017 15:54 8,7 C 7,8 C 89 % 1014,0 hPa 0,0 l/m 2,5 km/h (1 Bft) NO 51 0 min 0,000 mm 0,0 UV-I 42 W/m 7,0 C 8,7 C 4,8 km/h (1 Bft) 100,00 %
04.11.2017 15:56 8,6 C 7,8 C 90 % 1014,0 hPa 0,0 l/m 3,6 km/h (1 Bft) NO 51 0 min 0,000 mm 0,0 UV-I 40 W/m 7,1 C 8,6 C 4,8 km/h (1 Bft) 100,00 %
04.11.2017 15:58 8,6 C 7,8 C 90 % 1014,0 hPa 0,0 l/m 4,2 km/h (1 Bft) NO 51 0 min 0,000 mm 0,0 UV-I 38 W/m 7,1 C 8,6 C 6,4 km/h (2 Bft) 100,00 %
04.11.2017 16:00 8,6 C 7,8 C 90 % 1014,0 hPa 0,0 l/m 3,8 km/h (1 Bft) NO 51 0 min 0,051 mm 0,0 UV-I 36 W/m 7,1 C 8,6 C 4,8 km/h (1 Bft) 100,00 %
04.11.2017 16:02 8,6 C 7,8 C 90 % 1013,9 hPa 0,0 l/m 4,4 km/h (1 Bft) NO 51 0 min 0,000 mm 0,0 UV-I 33 W/m 7,1 C 8,6 C 6,4 km/h (2 Bft) 100,00 %
04.11.2017 16:04 8,5 C 7,8 C 90 % 1013,9 hPa 0,0 l/m 3,9 km/h (1 Bft) NO 51 0 min 0,000 mm 0,0 UV-I 32 W/m 7,0 C 8,5 C 6,4 km/h (2 Bft) 100,00 %
04.11.2017 16:06 8,4 C 7,8 C 90 % 1013,9 hPa 0,0 l/m 4,1 km/h (1 Bft) NO 51 0 min 0,000 mm 0,0 UV-I 30 W/m 6,9 C 8,4 C 6,4 km/h (2 Bft) 97,87 %
04.11.2017 16:08 8,4 C 7,8 C 90 % 1014,0 hPa 0,0 l/m 3,9 km/h (1 Bft) NO 51 0 min 0,000 mm 0,0 UV-I 28 W/m 6,9 C 8,4 C 6,4 km/h (2 Bft) 100,00 %
04.11.2017 16:10 8,5 C 7,8 C 90 % 1014,0 hPa 0,0 l/m 3,2 km/h (1 Bft) NO 45 0 min 0,000 mm 0,0 UV-I 27 W/m 7,0 C 8,5 C 6,4 km/h (2 Bft) 97,37 %
04.11.2017 16:15 8,4 C 7,8 C 89 % 1013,9 hPa 0,0 l/m 4,8 km/h (1 Bft) NO 45 0 min 0,000 mm 0,0 UV-I 24 W/m 6,7 C 8,4 C 6,4 km/h (2 Bft) 85,96 %
04.11.2017 16:16 8,4 C 7,8 C 89 % 1013,9 hPa 0,0 l/m 6,0 km/h (2 Bft) NO 52 0 min 0,000 mm 0,0 UV-I 22 W/m 6,7 C 8,4 C 6,4 km/h (2 Bft) 98,57 %
04.11.2017 16:18 8,4 C 7,8 C 89 % 1013,9 hPa 0,0 l/m 4,2 km/h (1 Bft) NO 52 0 min 0,000 mm 0,0 UV-I 20 W/m 6,7 C 8,4 C 6,4 km/h (2 Bft) 100,00 %
04.11.2017 16:20 8,4 C 7,8 C 89 % 1013,9 hPa 0,0 l/m 3,8 km/h (1 Bft) NO 52 0 min 0,000 mm 0,0 UV-I 19 W/m 6,7 C 8,4 C 6,4 km/h (2 Bft) 97,87 %
04.11.2017 16:22 8,3 C 7,8 C 89 % 1013,9 hPa 0,0 l/m 4,0 km/h (1 Bft) NO 48 0 min 0,000 mm 0,0 UV-I 18 W/m 6,6 C 8,3 C 4,8 km/h (1 Bft) 100,00 %
04.11.2017 16:24 8,3 C 7,8 C 89 % 1013,9 hPa 0,0 l/m 4,5 km/h (1 Bft) NO 48 2 min 0,000 mm 0,0 UV-I 16 W/m 6,6 C 8,3 C 6,4 km/h (2 Bft) 97,87 %
04.11.2017 16:26 8,3 C 7,8 C 89 % 1013,9 hPa 0,0 l/m 4,0 km/h (1 Bft) NO 48 2 min 0,000 mm 0,0 UV-I 14 W/m 6,6 C 8,3 C 4,8 km/h (1 Bft) 97,37 %
04.11.2017 16:28 8,3 C 7,8 C 89 % 1013,9 hPa 0,0 l/m 3,9 km/h (1 Bft) NO 48 2 min 0,000 mm 0,0 UV-I 12 W/m 6,6 C 8,3 C 6,4 km/h (2 Bft) 96,23 %
04.11.2017 16:30 8,3 C 7,8 C 89 % 1014,0 hPa 0,0 l/m 3,0 km/h (1 Bft) NO 48 0 min 0,000 mm 0,0 UV-I 11 W/m 6,6 C 8,3 C 4,8 km/h (1 Bft) 98,00 %
04.11.2017 16:32 8,2 C 7,8 C 89 % 1014,0 hPa 0,0 l/m 3,4 km/h (1 Bft) NO 48 0 min 0,000 mm 0,0 UV-I 10 W/m 6,5 C 8,2 C 4,8 km/h (1 Bft) 97,56 %
04.11.2017 16:34 8,2 C 7,8 C 90 % 1014,0 hPa 0,0 l/m 3,0 km/h (1 Bft) NO 48 0 min 0,000 mm 0,0 UV-I 9 W/m 6,7 C 8,2 C 4,8 km/h (1 Bft) 95,74 %
04.11.2017 16:36 8,1 C 7,8 C 89 % 1014,0 hPa 0,0 l/m 4,0 km/h (1 Bft) NO 48 0 min 0,000 mm 0,0 UV-I 7 W/m 6,4 C 8,1 C 4,8 km/h (1 Bft) 97,87 %
04.11.2017 16:38 8,1 C 7,8 C 90 % 1014,0 hPa 0,0 l/m 1,5 km/h (1 Bft) NO 48 0 min 0,000 mm 0,0 UV-I 7 W/m 6,6 C 8,1 C 4,8 km/h (1 Bft) 98,00 %
04.11.2017 16:40 8,1 C 7,8 C 90 % 1014,1 hPa 0,0 l/m 1,3 km/h (1 Bft) NO 48 0 min 0,000 mm 0,0 UV-I 5 W/m 6,6 C 8,1 C 3,2 km/h (1 Bft) 97,87 %
04.11.2017 16:42 8,0 C 7,8 C 90 % 1014,0 hPa 0,0 l/m 1,3 km/h (1 Bft) NO 48 0 min 0,000 mm 0,0 UV-I 5 W/m 6,5 C 8,0 C 3,2 km/h (1 Bft) 95,12 %
04.11.2017 16:44 8,0 C 7,8 C 90 % 1014,0 hPa 0,0 l/m 2,5 km/h (1 Bft) NO 48 0 min 0,000 mm 0,0 UV-I 5 W/m 6,5 C 8,0 C 4,8 km/h (1 Bft) 96,23 %
04.11.2017 16:46 7,9 C 7,8 C 90 % 1014,0 hPa 0,0 l/m 2,8 km/h (1 Bft) NO 48 0 min 0,000 mm 0,0 UV-I 7 W/m 6,4 C 7,9 C 4,8 km/h (1 Bft) 95,12 %
04.11.2017 16:48 7,9 C 7,8 C 90 % 1014,1 hPa 0,0 l/m 2,4 km/h (1 Bft) NO 48 0 min 0,000 mm 0,0 UV-I 6 W/m 6,4 C 7,9 C 3,2 km/h (1 Bft) 97,62 %
04.11.2017 16:50 7,9 C 7,8 C 90 % 1014,0 hPa 0,0 l/m 2,2 km/h (1 Bft) NO 48 0 min 0,000 mm 0,0 UV-I 5 W/m 6,4 C 7,9 C 3,2 km/h (1 Bft) 98,00 %
04.11.2017 16:52 7,9 C 7,8 C 90 % 1014,0 hPa 0,0 l/m 1,7 km/h (1 Bft) NO 48 0 min 0,000 mm 0,0 UV-I 2 W/m 6,4 C 7,9 C 3,2 km/h (1 Bft) 97,87 %
04.11.2017 16:54 7,8 C 7,8 C 90 % 1014,0 hPa 0,0 l/m 0,9 km/h (0 Bft) NO 48 0 min 0,000 mm 0,0 UV-I 0 W/m 6,3 C 7,8 C 3,2 km/h (1 Bft) 98,00 %
04.11.2017 16:56 7,7 C 7,8 C 91 % 1014,0 hPa 0,0 l/m 0,8 km/h (0 Bft) NO 48 0 min 0,000 mm 0,0 UV-I 0 W/m 6,3 C 7,7 C 1,6 km/h (1 Bft) 98,11 %
04.11.2017 16:58 7,6 C 7,8 C 91 % 1014,1 hPa 0,0 l/m 1,9 km/h (1 Bft) NO 48 0 min 0,000 mm 0,0 UV-I 0 W/m 6,2 C 7,6 C 3,2 km/h (1 Bft) 97,37 %
04.11.2017 17:00 7,5 C 7,8 C 91 % 1014,1 hPa 0,0 l/m 0,7 km/h (0 Bft) NO 48 0 min 0,000 mm 0,0 UV-I 0 W/m 6,1 C 7,5 C 3,2 km/h (1 Bft) 97,87 %
04.11.2017 17:02 7,3 C 7,8 C 91 % 1014,0 hPa 0,0 l/m 0,8 km/h (0 Bft) NO 48 0 min 0,000 mm 0,0 UV-I 0 W/m 5,9 C 7,3 C 3,2 km/h (1 Bft) 100,00 %
04.11.2017 17:04 7,3 C 7,8 C 92 % 1014,0 hPa 0,0 l/m 1,2 km/h (1 Bft) NO 48 0 min 0,000 mm 0,0 UV-I 0 W/m 6,1 C 7,3 C 1,6 km/h (1 Bft) 98,00 %
04.11.2017 17:06 7,2 C 7,8 C 92 % 1014,1 hPa 0,0 l/m 1,2 km/h (1 Bft) NO 48 0 min 0,000 mm 0,0 UV-I 0 W/m 6,0 C 7,2 C 3,2 km/h (1 Bft) 100,00 %
04.11.2017 17:08 7,3 C 7,8 C 92 % 1014,1 hPa 0,0 l/m 0,0 km/h (0 Bft) NO 48 0 min 0,000 mm 0,0 UV-I 0 W/m 6,1 C 7,3 C 0,0 km/h (0 Bft) 97,56 %
04.11.2017 17:10 7,3 C 7,8 C 92 % 1014,1 hPa 0,0 l/m 0,0 km/h (0 Bft) NO 48 0 min 0,000 mm 0,0 UV-I 0 W/m 6,1 C 7,3 C 0,0 km/h (0 Bft) 100,00 %
04.11.2017 17:12 7,4 C 7,8 C 92 % 1014,1 hPa 0,0 l/m 0,0 km/h (0 Bft) NO 48 0 min 0,000 mm 0,0 UV-I 0 W/m 6,2 C 7,4 C 0,0 km/h (0 Bft) 97,87 %
04.11.2017 17:14 7,4 C 7,8 C 92 % 1014,1 hPa 0,0 l/m 0,0 km/h (0 Bft) NO 48 0 min 0,000 mm 0,0 UV-I 0 W/m 6,2 C 7,4 C 0,0 km/h (0 Bft) 100,00 %
04.11.2017 17:16 7,4 C 7,8 C 92 % 1014,1 hPa 0,0 l/m 0,0 km/h (0 Bft) NO 48 0 min 0,000 mm 0,0 UV-I 0 W/m 6,2 C 7,4 C 0,0 km/h (0 Bft) 97,73 %
04.11.2017 17:18 7,5 C 7,8 C 92 % 1014,2 hPa 0,0 l/m 0,0 km/h (0 Bft) NO 48 0 min 0,000 mm 0,0 UV-I 0 W/m 6,3 C 7,5 C 0,0 km/h (0 Bft) 100,00 %
04.11.2017 17:20 7,5 C 7,8 C 92 % 1014,2 hPa 0,0 l/m 0,0 km/h (0 Bft) NO 48 0 min 0,000 mm 0,0 UV-I 0 W/m 6,3 C 7,5 C 0,0 km/h (0 Bft) 98,04 %
04.11.2017 17:22 7,4 C 7,8 C 91 % 1014,2 hPa 0,0 l/m 0,0 km/h (0 Bft) NO 48 0 min 0,000 mm 0,0 UV-I 0 W/m 6,0 C 7,4 C 0,0 km/h (0 Bft) 96,00 %
04.11.2017 17:24 7,2 C 7,8 C 92 % 1014,3 hPa 0,0 l/m 0,0 km/h (0 Bft) NO 48 0 min 0,000 mm 0,0 UV-I 0 W/m 6,0 C 7,2 C 0,0 km/h (0 Bft) 100,00 %
04.11.2017 17:26 7,0 C 7,8 C 92 % 1014,2 hPa 0,0 l/m 0,0 km/h (0 Bft) NO 48 0 min 0,000 mm 0,0 UV-I 0 W/m 5,8 C 7,0 C 0,0 km/h (0 Bft) 100,00 %
04.11.2017 17:28 6,9 C 7,8 C 93 % 1014,3 hPa 0,0 l/m 0,0 km/h (0 Bft) NO 48 0 min 0,000 mm 0,0 UV-I 0 W/m 5,8 C 6,9 C 0,0 km/h (0 Bft) 100,00 %
04.11.2017 17:30 6,8 C 7,8 C 93 % 1014,2 hPa 0,0 l/m 0,0 km/h (0 Bft) NO 48 0 min 0,000 mm 0,0 UV-I 0 W/m 5,7 C 6,8 C 0,0 km/h (0 Bft) 100,00 %
04.11.2017 17:32 6,9 C 7,8 C 94 % 1014,2 hPa 0,0 l/m 0,0 km/h (0 Bft) NO 48 0 min 0,000 mm 0,0 UV-I 0 W/m 6,0 C 6,9 C 0,0 km/h (0 Bft) 100,00 %
04.11.2017 17:34 6,9 C 7,8 C 94 % 1014,2 hPa 0,0 l/m 0,0 km/h (0 Bft) NO 48 0 min 0,000 mm 0,0 UV-I 0 W/m 6,0 C 6,9 C 0,0 km/h (0 Bft) 100,00 %
04.11.2017 17:36 6,9 C 7,8 C 94 % 1014,2 hPa 0,0 l/m 0,0 km/h (0 Bft) NO 48 0 min 0,000 mm 0,0 UV-I 0 W/m 6,0 C 6,9 C 0,0 km/h (0 Bft) 100,00 %
04.11.2017 17:38 6,9 C 7,8 C 94 % 1014,2 hPa 0,0 l/m 0,0 km/h (0 Bft) NO 48 0 min 0,000 mm 0,0 UV-I 0 W/m 6,0 C 6,9 C 0,0 km/h (0 Bft) 95,74 %
04.11.2017 17:40 6,9 C 7,8 C 93 % 1014,2 hPa 0,0 l/m 0,0 km/h (0 Bft) NO 48 0 min 0,000 mm 0,0 UV-I 0 W/m 5,8 C 6,9 C 0,0 km/h (0 Bft) 98,00 %
04.11.2017 17:42 6,8 C 7,8 C 93 % 1014,2 hPa 0,0 l/m 0,0 km/h (0 Bft) NO 48 0 min 0,000 mm 0,0 UV-I 0 W/m 5,7 C 6,8 C 0,0 km/h (0 Bft) 97,37 %
04.11.2017 17:44 6,7 C 7,8 C 93 % 1014,2 hPa 0,0 l/m 0,4 km/h (0 Bft) NO 48 0 min 0,000 mm 0,0 UV-I 0 W/m 5,6 C 6,7 C 3,2 km/h (1 Bft) 98,11 %
04.11.2017 17:46 6,5 C 7,8 C 93 % 1014,2 hPa 0,0 l/m 1,2 km/h (1 Bft) NO 48 0 min 0,000 mm 0,0 UV-I 0 W/m 5,5 C 6,5 C 1,6 km/h (1 Bft) 98,00 %
04.11.2017 17:48 6,3 C 7,8 C 94 % 1014,3 hPa 0,0 l/m 1,5 km/h (1 Bft) NO 48 0 min 0,000 mm 0,0 UV-I 0 W/m 5,4 C 6,3 C 3,2 km/h (1 Bft) 97,56 %
04.11.2017 17:50 6,3 C 7,8 C 94 % 1014,3 hPa 0,0 l/m 0,7 km/h (0 Bft) NO 48 0 min 0,000 mm 0,0 UV-I 0 W/m 5,4 C 6,3 C 1,6 km/h (1 Bft) 96,00 %
04.11.2017 17:52 6,4 C 7,8 C 95 % 1014,3 hPa 0,0 l/m 0,0 km/h (0 Bft) NO 48 0 min 0,000 mm 0,0 UV-I 0 W/m 5,7 C 6,4 C 0,0 km/h (0 Bft) 97,37 %
04.11.2017 17:54 6,5 C 7,8 C 95 % 1014,3 hPa 0,0 l/m 0,0 km/h (0 Bft) NO 48 0 min 0,000 mm 0,0 UV-I 0 W/m 5,8 C 6,5 C 0,0 km/h (0 Bft) 95,74 %
04.11.2017 17:56 6,7 C 7,8 C 95 % 1014,3 hPa 0,0 l/m 0,0 km/h (0 Bft) NO 48 0 min 0,000 mm 0,0 UV-I 0 W/m 6,0 C 6,7 C 0,0 km/h (0 Bft) 98,11 %
04.11.2017 17:58 6,8 C 7,8 C 95 % 1014,3 hPa 0,0 l/m 0,0 km/h (0 Bft) NO 48 0 min 0,000 mm 0,0 UV-I 0 W/m 6,1 C 6,8 C 0,0 km/h (0 Bft) 100,00 %
04.11.2017 18:00 6,8 C 7,8 C 94 % 1014,3 hPa 0,0 l/m 0,0 km/h (0 Bft) NO 48 0 min 0,000 mm 0,0 UV-I 0 W/m 5,9 C 6,8 C 0,0 km/h (0 Bft) 97,37 %
04.11.2017 18:02 6,8 C 7,8 C 94 % 1014,3 hPa 0,0 l/m 0,0 km/h (0 Bft) NO 48 0 min 0,000 mm 0,0 UV-I 0 W/m 5,9 C 6,8 C 0,0 km/h (0 Bft) 97,87 %
04.11.2017 18:04 6,8 C 7,8 C 94 % 1014,3 hPa 0,0 l/m 0,0 km/h (0 Bft) NO 48 0 min 0,000 mm 0,0 UV-I 0 W/m 5,9 C 6,8 C 0,0 km/h (0 Bft) 96,00 %
04.11.2017 18:06 6,8 C 7,8 C 93 % 1014,3 hPa 0,0 l/m 0,0 km/h (0 Bft) NO 48 0 min 0,000 mm 0,0 UV-I 0 W/m 5,7 C 6,8 C 0,0 km/h (0 Bft) 98,00 %
04.11.2017 18:08 6,7 C 7,8 C 94 % 1014,3 hPa 0,0 l/m 0,0 km/h (0 Bft) NO 48 0 min 0,000 mm 0,0 UV-I 0 W/m 5,8 C 6,7 C 0,0 km/h (0 Bft) 95,74 %
04.11.2017 18:10 6,7 C 7,8 C 94 % 1014,3 hPa 0,0 l/m 0,0 km/h (0 Bft) NO 48 0 min 0,000 mm 0,0 UV-I 0 W/m 5,8 C 6,7 C 0,0 km/h (0 Bft) 94,00 %
04.11.2017 18:12 6,7 C 7,8 C 94 % 1014,2 hPa 0,0 l/m 0,0 km/h (0 Bft) NO 48 0 min 0,000 mm 0,0 UV-I 0 W/m 5,8 C 6,7 C 0,0 km/h (0 Bft) 100,00 %
04.11.2017 18:14 6,7 C 7,8 C 94 % 1014,2 hPa 0,0 l/m 0,0 km/h (0 Bft) NO 48 0 min 0,000 mm 0,0 UV-I 0 W/m 5,8 C 6,7 C 0,0 km/h (0 Bft) 96,00 %
04.11.2017 18:16 6,7 C 7,8 C 94 % 1014,2 hPa 0,0 l/m 0,0 km/h (0 Bft) NO 48 0 min 0,000 mm 0,0 UV-I 0 W/m 5,8 C 6,7 C 0,0 km/h (0 Bft) 98,00 %
04.11.2017 18:18 6,7 C 7,8 C 94 % 1014,3 hPa 0,0 l/m 0,0 km/h (0 Bft) NO 48 0 min 0,000 mm 0,0 UV-I 0 W/m 5,8 C 6,7 C 0,0 km/h (0 Bft) 98,00 %
04.11.2017 18:20 6,7 C 7,8 C 94 % 1014,3 hPa 0,0 l/m 0,0 km/h (0 Bft) NO 48 0 min 0,000 mm 0,0 UV-I 0 W/m 5,8 C 6,7 C 0,0 km/h (0 Bft) 97,73 %
04.11.2017 18:22 6,6 C 7,8 C 94 % 1014,3 hPa 0,0 l/m 0,0 km/h (0 Bft) NO 48 0 min 0,000 mm 0,0 UV-I 0 W/m 5,7 C 6,6 C 0,0 km/h (0 Bft) 95,74 %
04.11.2017 18:24 6,6 C 7,8 C 94 % 1014,3 hPa 0,0 l/m 0,0 km/h (0 Bft) NO 48 0 min 0,000 mm 0,0 UV-I 0 W/m 5,7 C 6,6 C 0,0 km/h (0 Bft) 95,74 %
04.11.2017 18:26 6,5 C 7,8 C 94 % 1014,4 hPa 0,0 l/m 0,0 km/h (0 Bft) NO 48 0 min 0,000 mm 0,0 UV-I 0 W/m 5,6 C 6,5 C 0,0 km/h (0 Bft) 97,87 %
04.11.2017 18:28 6,4 C 7,8 C 94 % 1014,4 hPa 0,0 l/m 0,0 km/h (0 Bft) NO 48 0 min 0,000 mm 0,0 UV-I 0 W/m 5,5 C 6,4 C 0,0 km/h (0 Bft) 98,00 %
04.11.2017 18:30 6,4 C 7,8 C 94 % 1014,4 hPa 0,0 l/m 0,0 km/h (0 Bft) NO 48 0 min 0,000 mm 0,0 UV-I 0 W/m 5,5 C 6,4 C 0,0 km/h (0 Bft) 97,73 %
04.11.2017 18:32 6,4 C 7,8 C 95 % 1014,3 hPa 0,0 l/m 0,0 km/h (0 Bft) NO 48 0 min 0,000 mm 0,0 UV-I 0 W/m 5,7 C 6,4 C 0,0 km/h (0 Bft) 97,87 %
04.11.2017 18:34 6,5 C 7,8 C 95 % 1014,4 hPa 0,0 l/m 0,0 km/h (0 Bft) NO 48 0 min 0,000 mm 0,0 UV-I 0 W/m 5,8 C 6,5 C 0,0 km/h (0 Bft) 96,00 %
04.11.2017 18:36 6,6 C 7,8 C 95 % 1014,3 hPa 0,0 l/m 0,0 km/h (0 Bft) NO 48 0 min 0,000 mm 0,0 UV-I 0 W/m 5,9 C 6,6 C 0,0 km/h (0 Bft) 100,00 %
04.11.2017 18:38 6,6 C 7,8 C 94 % 1014,4 hPa 0,0 l/m 0,0 km/h (0 Bft) NO 48 0 min 0,000 mm 0,0 UV-I 0 W/m 5,7 C 6,6 C 0,0 km/h (0 Bft) 92,00 %
04.11.2017 18:40 6,6 C 7,8 C 94 % 1014,4 hPa 0,0 l/m 0,0 km/h (0 Bft) NO 48 0 min 0,000 mm 0,0 UV-I 0 W/m 5,7 C 6,6 C 0,0 km/h (0 Bft) 93,62 %
04.11.2017 18:42 6,6 C 7,8 C 94 % 1014,4 hPa 0,0 l/m 0,0 km/h (0 Bft) NO 48 0 min 0,000 mm 0,0 UV-I 0 W/m 5,7 C 6,6 C 0,0 km/h (0 Bft) 93,62 %
04.11.2017 18:44 6,6 C 7,8 C 94 % 1014,3 hPa 0,0 l/m 1,3 km/h (1 Bft) NO 48 0 min 0,000 mm 0,0 UV-I 0 W/m 5,7 C 6,6 C 3,2 km/h (1 Bft) 97,62 %
04.11.2017 18:46 6,6 C 7,8 C 94 % 1014,3 hPa 0,0 l/m 2,1 km/h (1 Bft) NO 48 0 min 0,000 mm 0,0 UV-I 0 W/m 5,7 C 6,6 C 3,2 km/h (1 Bft) 96,55 %
04.11.2017 18:48 6,4 C 7,8 C 94 % 1014,3 hPa 0,0 l/m 1,8 km/h (1 Bft) NO 48 0 min 0,000 mm 0,0 UV-I 0 W/m 5,5 C 6,4 C 3,2 km/h (1 Bft) 100,00 %
04.11.2017 18:50 6,5 C 7,8 C 94 % 1014,3 hPa 0,0 l/m 2,7 km/h (1 Bft) NO 48 0 min 0,000 mm 0,0 UV-I 0 W/m 5,6 C 6,5 C 3,2 km/h (1 Bft) 95,74 %
04.11.2017 18:52 6,8 C 7,8 C 95 % 1014,3 hPa 0,0 l/m 3,1 km/h (1 Bft) NO 48 0 min 0,000 mm 0,0 UV-I 0 W/m 6,1 C 6,8 C 3,2 km/h (1 Bft) 98,21 %
04.11.2017 18:54 7,0 C 7,8 C 95 % 1014,2 hPa 0,0 l/m 4,0 km/h (1 Bft) NO 48 0 min 0,000 mm 0,0 UV-I 0 W/m 6,3 C 7,0 C 6,4 km/h (2 Bft) 94,74 %
04.11.2017 18:56 7,1 C 7,8 C 94 % 1014,2 hPa 0,0 l/m 3,6 km/h (1 Bft) NO 48 0 min 0,000 mm 0,0 UV-I 0 W/m 6,2 C 7,1 C 4,8 km/h (1 Bft) 98,11 %
04.11.2017 18:58 7,0 C 7,8 C 93 % 1014,3 hPa 0,0 l/m 2,3 km/h (1 Bft) NO 48 0 min 0,000 mm 0,0 UV-I 0 W/m 5,9 C 7,0 C 3,2 km/h (1 Bft) 97,73 %
04.11.2017 19:00 6,9 C 7,8 C 93 % 1014,2 hPa 0,0 l/m 0,8 km/h (0 Bft) NO 48 0 min 0,000 mm 0,0 UV-I 0 W/m 5,8 C 6,9 C 3,2 km/h (1 Bft) 98,11 %
04.11.2017 19:02 6,9 C 7,8 C 93 % 1014,2 hPa 0,0 l/m 0,4 km/h (0 Bft) NO 48 0 min 0,000 mm 0,0 UV-I 0 W/m 5,8 C 6,9 C 3,2 km/h (1 Bft) 94,74 %
04.11.2017 19:04 6,9 C 7,8 C 93 % 1014,2 hPa 0,0 l/m 0,9 km/h (0 Bft) NO 48 0 min 0,000 mm 0,0 UV-I 0 W/m 5,8 C 6,9 C 3,2 km/h (1 Bft) 96,23 %
04.11.2017 19:06 6,8 C 7,8 C 93 % 1014,2 hPa 0,0 l/m 1,9 km/h (1 Bft) NO 48 0 min 0,000 mm 0,0 UV-I 0 W/m 5,7 C 6,8 C 3,2 km/h (1 Bft) 97,37 %
04.11.2017 19:08 6,7 C 7,8 C 93 % 1014,2 hPa 0,0 l/m 0,7 km/h (0 Bft) NO 48 0 min 0,000 mm 0,0 UV-I 0 W/m 5,6 C 6,7 C 3,2 km/h (1 Bft) 96,00 %
04.11.2017 19:10 6,6 C 7,8 C 93 % 1014,2 hPa 0,0 l/m 0,7 km/h (0 Bft) NO 48 0 min 0,000 mm 0,0 UV-I 0 W/m 5,6 C 6,6 C 1,6 km/h (1 Bft) 96,00 %
04.11.2017 19:12 6,4 C 7,8 C 93 % 1014,2 hPa 0,0 l/m 0,9 km/h (0 Bft) NO 48 0 min 0,000 mm 0,0 UV-I 0 W/m 5,4 C 6,4 C 3,2 km/h (1 Bft) 95,74 %
04.11.2017 19:14 6,2 C 7,8 C 93 % 1014,2 hPa 0,0 l/m 0,4 km/h (0 Bft) NO 48 0 min 0,000 mm 0,0 UV-I 0 W/m 5,2 C 6,2 C 3,2 km/h (1 Bft) 98,00 %
04.11.2017 19:16 6,2 C 7,8 C 94 % 1014,2 hPa 0,0 l/m 0,0 km/h (0 Bft) NO 48 0 min 0,000 mm 0,0 UV-I 0 W/m 5,3 C 6,2 C 0,0 km/h (0 Bft) 100,00 %
04.11.2017 19:18 6,1 C 7,8 C 94 % 1014,2 hPa 0,0 l/m 0,0 km/h (0 Bft) NO 48 0 min 0,000 mm 0,0 UV-I 0 W/m 5,2 C 6,1 C 0,0 km/h (0 Bft) 97,37 %
04.11.2017 19:20 6,0 C 7,8 C 94 % 1014,2 hPa 0,0 l/m 1,2 km/h (1 Bft) NO 48 0 min 0,000 mm 0,0 UV-I 0 W/m 5,1 C 6,0 C 3,2 km/h (1 Bft) 98,00 %
04.11.2017 19:22 5,9 C 7,8 C 94 % 1014,2 hPa 0,0 l/m 1,6 km/h (1 Bft) NO 48 0 min 0,000 mm 0,0 UV-I 0 W/m 5,0 C 5,9 C 3,2 km/h (1 Bft) 97,87 %
04.11.2017 19:24 5,9 C 7,8 C 94 % 1014,1 hPa 0,0 l/m 0,0 km/h (0 Bft) NO 48 0 min 0,000 mm 0,0 UV-I 0 W/m 5,0 C 5,9 C 1,6 km/h (1 Bft) 100,00 %
04.11.2017 19:26 5,9 C 7,8 C 95 % 1014,1 hPa 0,0 l/m 0,0 km/h (0 Bft) NO 48 0 min 0,000 mm 0,0 UV-I 0 W/m 5,2 C 5,9 C 0,0 km/h (0 Bft) 97,44 %
04.11.2017 19:28 5,9 C 7,8 C 95 % 1014,1 hPa 0,0 l/m 0,0 km/h (0 Bft) NO 48 0 min 0,000 mm 0,0 UV-I 0 W/m 5,2 C 5,9 C 0,0 km/h (0 Bft) 100,00 %
04.11.2017 19:30 5,9 C 7,8 C 95 % 1014,1 hPa 0,0 l/m 1,1 km/h (1 Bft) NO 48 0 min 0,000 mm 0,0 UV-I 0 W/m 5,2 C 5,9 C 1,6 km/h (1 Bft) 100,00 %
04.11.2017 19:32 5,9 C 7,8 C 95 % 1014,0 hPa 0,0 l/m 0,1 km/h (0 Bft) NO 48 0 min 0,000 mm 0,0 UV-I 0 W/m 5,2 C 5,9 C 1,6 km/h (1 Bft) 100,00 %
04.11.2017 19:34 6,1 C 7,8 C 95 % 1014,0 hPa 0,0 l/m 0,0 km/h (0 Bft) NO 48 0 min 0,000 mm 0,0 UV-I 0 W/m 5,4 C 6,1 C 0,0 km/h (0 Bft) 98,00 %
04.11.2017 19:36 6,1 C 7,8 C 95 % 1014,0 hPa 0,0 l/m 0,0 km/h (0 Bft) NO 48 0 min 0,000 mm 0,0 UV-I 0 W/m 5,4 C 6,1 C 0,0 km/h (0 Bft) 97,14 %
04.11.2017 19:38 6,1 C 7,8 C 95 % 1014,0 hPa 0,0 l/m 0,0 km/h (0 Bft) NO 48 0 min 0,000 mm 0,0 UV-I 0 W/m 5,4 C 6,1 C 0,0 km/h (0 Bft) 100,00 %
04.11.2017 19:40 6,1 C 7,8 C 95 % 1014,0 hPa 0,0 l/m 0,0 km/h (0 Bft) NO 48 0 min 0,000 mm 0,0 UV-I 0 W/m 5,4 C 6,1 C 0,0 km/h (0 Bft) 98,00 %
04.11.2017 19:42 6,1 C 7,8 C 95 % 1014,1 hPa 0,0 l/m 0,0 km/h (0 Bft) NO 48 0 min 0,000 mm 0,0 UV-I 0 W/m 5,4 C 6,1 C 0,0 km/h (0 Bft) 100,00 %
04.11.2017 19:44 6,0 C 7,8 C 95 % 1014,1 hPa 0,0 l/m 0,0 km/h (0 Bft) NO 48 0 min 0,000 mm 0,0 UV-I 0 W/m 5,3 C 6,0 C 0,0 km/h (0 Bft) 100,00 %
04.11.2017 19:46 5,9 C 7,8 C 95 % 1014,1 hPa 0,0 l/m 0,0 km/h (0 Bft) NO 48 0 min 0,000 mm 0,0 UV-I 0 W/m 5,2 C 5,9 C 0,0 km/h (0 Bft) 100,00 %
04.11.2017 19:48 5,9 C 7,8 C 95 % 1014,1 hPa 0,0 l/m 0,0 km/h (0 Bft) NO 48 0 min 0,000 mm 0,0 UV-I 0 W/m 5,2 C 5,9 C 0,0 km/h (0 Bft) 98,00 %
04.11.2017 19:50 5,8 C 7,8 C 95 % 1014,1 hPa 0,0 l/m 0,0 km/h (0 Bft) NO 48 0 min 0,000 mm 0,0 UV-I 0 W/m 5,1 C 5,8 C 0,0 km/h (0 Bft) 100,00 %
04.11.2017 19:52 5,8 C 7,8 C 95 % 1014,2 hPa 0,0 l/m 0,3 km/h (0 Bft) NO 48 0 min 0,000 mm 0,0 UV-I 0 W/m 5,1 C 5,8 C 1,6 km/h (1 Bft) 100,00 %
04.11.2017 19:54 5,8 C 7,8 C 95 % 1014,1 hPa 0,0 l/m 0,6 km/h (0 Bft) NO 48 0 min 0,000 mm 0,0 UV-I 0 W/m 5,1 C 5,8 C 1,6 km/h (1 Bft) 100,00 %
04.11.2017 19:56 5,8 C 7,8 C 95 % 1014,1 hPa 0,0 l/m 0,3 km/h (0 Bft) NO 48 0 min 0,000 mm 0,0 UV-I 0 W/m 5,1 C 5,8 C 1,6 km/h (1 Bft) 97,37 %
04.11.2017 19:58 5,7 C 7,8 C 95 % 1014,0 hPa 0,0 l/m 0,0 km/h (0 Bft) NO 48 0 min 0,000 mm 0,0 UV-I 0 W/m 5,0 C 5,7 C 0,0 km/h (0 Bft) 100,00 %
04.11.2017 20:00 5,7 C 7,8 C 95 % 1014,0 hPa 0,0 l/m 0,0 km/h (0 Bft) NO 48 0 min 0,000 mm 0,0 UV-I 0 W/m 5,0 C 5,7 C 0,0 km/h (0 Bft) 100,00 %
04.11.2017 20:02 5,7 C 7,8 C 96 % 1014,0 hPa 0,0 l/m 0,0 km/h (0 Bft) NO 48 0 min 0,000 mm 0,0 UV-I 0 W/m 5,1 C 5,7 C 0,0 km/h (0 Bft) 96,55 %
04.11.2017 20:04 5,8 C 7,8 C 96 % 1013,9 hPa 0,0 l/m 0,0 km/h (0 Bft) NO 48 0 min 0,000 mm 0,0 UV-I 0 W/m 5,2 C 5,8 C 0,0 km/h (0 Bft) 97,87 %
04.11.2017 20:06 5,8 C 7,8 C 96 % 1013,9 hPa 0,0 l/m 0,0 km/h (0 Bft) NO 48 0 min 0,000 mm 0,0 UV-I 0 W/m 5,2 C 5,8 C 0,0 km/h (0 Bft) 100,00 %
04.11.2017 20:08 5,8 C 7,8 C 96 % 1013,9 hPa 0,0 l/m 0,0 km/h (0 Bft) NO 48 0 min 0,000 mm 0,0 UV-I 0 W/m 5,2 C 5,8 C 1,6 km/h (1 Bft) 97,87 %
04.11.2017 20:10 5,8 C 7,8 C 96 % 1013,9 hPa 0,0 l/m 1,2 km/h (1 Bft) NO 48 0 min 0,000 mm 0,0 UV-I 0 W/m 5,2 C 5,8 C 3,2 km/h (1 Bft) 100,00 %
04.11.2017 20:12 5,8 C 7,8 C 96 % 1013,9 hPa 0,0 l/m 2,2 km/h (1 Bft) NO 48 0 min 0,000 mm 0,0 UV-I 0 W/m 5,2 C 5,8 C 3,2 km/h (1 Bft) 100,00 %
04.11.2017 20:14 5,7 C 7,8 C 95 % 1013,9 hPa 0,0 l/m 1,9 km/h (1 Bft) NO 48 0 min 0,000 mm 0,0 UV-I 0 W/m 5,0 C 5,7 C 3,2 km/h (1 Bft) 100,00 %
04.11.2017 20:16 5,6 C 7,8 C 95 % 1014,0 hPa 0,0 l/m 3,3 km/h (1 Bft) NO 48 0 min 0,000 mm 0,0 UV-I 0 W/m 4,9 C 5,6 C 4,8 km/h (1 Bft) 98,00 %
04.11.2017 20:18 5,6 C 7,8 C 95 % 1013,9 hPa 0,0 l/m 4,8 km/h (1 Bft) O-NO 76 0 min 0,000 mm 0,0 UV-I 0 W/m 4,9 C 5,6 C 8,0 km/h (2 Bft) 100,00 %
04.11.2017 20:20 5,9 C 7,8 C 96 % 1013,9 hPa 0,0 l/m 6,8 km/h (2 Bft) O-NO 61 0 min 0,000 mm 0,0 UV-I 0 W/m 5,3 C 5,6 C 11,3 km/h (2 Bft) 97,73 %
04.11.2017 20:22 6,2 C 7,8 C 96 % 1013,9 hPa 0,0 l/m 3,6 km/h (1 Bft) O-NO 64 0 min 0,000 mm 0,0 UV-I 0 W/m 5,6 C 6,2 C 6,4 km/h (2 Bft) 96,23 %
04.11.2017 20:24 6,4 C 7,8 C 96 % 1013,9 hPa 0,0 l/m 3,4 km/h (1 Bft) O-NO 64 0 min 0,000 mm 0,0 UV-I 0 W/m 5,8 C 6,4 C 4,8 km/h (1 Bft) 97,87 %
04.11.2017 20:26 6,6 C 7,8 C 95 % 1013,9 hPa 0,0 l/m 3,0 km/h (1 Bft) O-NO 64 0 min 0,000 mm 0,0 UV-I 0 W/m 5,9 C 6,6 C 4,8 km/h (1 Bft) 100,00 %
04.11.2017 20:28 6,6 C 7,8 C 95 % 1013,9 hPa 0,0 l/m 2,3 km/h (1 Bft) O-NO 64 0 min 0,000 mm 0,0 UV-I 0 W/m 5,9 C 6,6 C 4,8 km/h (1 Bft) 100,00 %
04.11.2017 20:30 6,6 C 7,8 C 94 % 1013,8 hPa 0,0 l/m 2,5 km/h (1 Bft) O-NO 64 0 min 0,000 mm 0,0 UV-I 0 W/m 5,7 C 6,6 C 3,2 km/h (1 Bft) 97,87 %
04.11.2017 20:32 6,6 C 7,8 C 94 % 1013,8 hPa 0,0 l/m 3,2 km/h (1 Bft) O-NO 64 0 min 0,000 mm 0,0 UV-I 0 W/m 5,7 C 6,6 C 4,8 km/h (1 Bft) 100,00 %
04.11.2017 20:34 6,4 C 7,8 C 93 % 1013,7 hPa 0,0 l/m 3,6 km/h (1 Bft) O-NO 64 0 min 0,000 mm 0,0 UV-I 0 W/m 5,4 C 6,4 C 4,8 km/h (1 Bft) 100,00 %
04.11.2017 20:36 6,4 C 7,8 C 94 % 1013,7 hPa 0,0 l/m 3,5 km/h (1 Bft) O-NO 64 0 min 0,000 mm 0,0 UV-I 0 W/m 5,5 C 6,4 C 4,8 km/h (1 Bft) 100,00 %
04.11.2017 20:38 6,5 C 7,8 C 94 % 1013,7 hPa 0,0 l/m 2,9 km/h (1 Bft) O-NO 64 0 min 0,000 mm 0,0 UV-I 0 W/m 5,6 C 6,5 C 4,8 km/h (1 Bft) 100,00 %
04.11.2017 20:40 6,4 C 7,8 C 94 % 1013,7 hPa 0,0 l/m 2,1 km/h (1 Bft) O-NO 64 0 min 0,000 mm 0,0 UV-I 0 W/m 5,5 C 6,4 C 3,2 km/h (1 Bft) 100,00 %
04.11.2017 20:43 6,3 C 7,8 C 94 % 1013,7 hPa 0,0 l/m 2,2 km/h (1 Bft) O-NO 64 0 min 0,000 mm 0,0 UV-I 0 W/m 5,4 C 6,3 C 4,8 km/h (1 Bft) 97,30 %
04.11.2017 20:44 6,3 C 7,8 C 94 % 1013,8 hPa 0,0 l/m 2,1 km/h (1 Bft) O-NO 64 0 min 0,000 mm 0,0 UV-I 0 W/m 5,4 C 6,3 C 3,2 km/h (1 Bft) 100,00 %
04.11.2017 20:46 6,2 C 7,8 C 94 % 1013,7 hPa 0,0 l/m 2,2 km/h (1 Bft) O-NO 64 0 min 0,000 mm 0,0 UV-I 0 W/m 5,3 C 6,2 C 3,2 km/h (1 Bft) 100,00 %
04.11.2017 20:48 6,2 C 7,8 C 94 % 1013,8 hPa 0,0 l/m 2,1 km/h (1 Bft) O-NO 64 0 min 0,000 mm 0,0 UV-I 0 W/m 5,3 C 6,2 C 3,2 km/h (1 Bft) 100,00 %
04.11.2017 20:50 6,1 C 7,8 C 94 % 1013,8 hPa 0,0 l/m 1,9 km/h (1 Bft) O-NO 64 0 min 0,000 mm 0,0 UV-I 0 W/m 5,2 C 6,1 C 3,2 km/h (1 Bft) 98,11 %
04.11.2017 20:52 6,1 C 7,8 C 94 % 1013,8 hPa 0,0 l/m 2,1 km/h (1 Bft) O-NO 64 0 min 0,000 mm 0,0 UV-I 0 W/m 5,2 C 6,1 C 3,2 km/h (1 Bft) 97,37 %
04.11.2017 20:54 6,1 C 7,8 C 94 % 1013,8 hPa 0,0 l/m 2,4 km/h (1 Bft) O-NO 64 0 min 0,000 mm 0,0 UV-I 0 W/m 5,2 C 6,1 C 3,2 km/h (1 Bft) 98,21 %
04.11.2017 20:56 6,1 C 7,8 C 94 % 1013,8 hPa 0,0 l/m 1,7 km/h (1 Bft) O-NO 64 0 min 0,000 mm 0,0 UV-I 0 W/m 5,2 C 6,1 C 3,2 km/h (1 Bft) 94,00 %
04.11.2017 20:58 6,0 C 7,8 C 94 % 1013,8 hPa 0,0 l/m 0,8 km/h (0 Bft) O-NO 64 0 min 0,000 mm 0,0 UV-I 0 W/m 5,1 C 6,0 C 1,6 km/h (1 Bft) 97,37 %
04.11.2017 21:00 6,0 C 7,8 C 95 % 1013,9 hPa 0,0 l/m 0,2 km/h (0 Bft) O-NO 64 0 min 0,000 mm 0,0 UV-I 0 W/m 5,3 C 6,0 C 1,6 km/h (1 Bft) 97,87 %
04.11.2017 21:02 5,9 C 7,8 C 95 % 1013,8 hPa 0,0 l/m 0,4 km/h (0 Bft) O-NO 64 0 min 0,000 mm 0,0 UV-I 0 W/m 5,2 C 5,9 C 3,2 km/h (1 Bft) 98,00 %
04.11.2017 21:04 5,9 C 7,8 C 95 % 1013,8 hPa 0,0 l/m 0,9 km/h (0 Bft) O-NO 64 0 min 0,000 mm 0,0 UV-I 0 W/m 5,2 C 5,9 C 1,6 km/h (1 Bft) 94,00 %
04.11.2017 21:06 5,9 C 7,8 C 95 % 1013,8 hPa 0,0 l/m 1,1 km/h (1 Bft) O-NO 64 0 min 0,000 mm 0,0 UV-I 0 W/m 5,2 C 5,9 C 3,2 km/h (1 Bft) 97,56 %
04.11.2017 21:08 5,9 C 7,8 C 95 % 1013,7 hPa 0,0 l/m 2,7 km/h (1 Bft) O-NO 64 0 min 0,000 mm 0,0 UV-I 0 W/m 5,2 C 5,9 C 3,2 km/h (1 Bft) 96,23 %
04.11.2017 21:10 6,0 C 7,8 C 95 % 1013,7 hPa 0,0 l/m 3,0 km/h (1 Bft) O-NO 64 0 min 0,000 mm 0,0 UV-I 0 W/m 5,3 C 6,0 C 4,8 km/h (1 Bft) 97,37 %
04.11.2017 21:12 6,0 C 7,8 C 95 % 1013,8 hPa 0,0 l/m 2,9 km/h (1 Bft) O-NO 64 0 min 0,000 mm 0,0 UV-I 0 W/m 5,3 C 6,0 C 3,2 km/h (1 Bft) 97,92 %
04.11.2017 21:14 6,0 C 7,8 C 95 % 1013,8 hPa 0,0 l/m 2,5 km/h (1 Bft) O-NO 64 0 min 0,000 mm 0,0 UV-I 0 W/m 5,3 C 6,0 C 3,2 km/h (1 Bft) 94,00 %
04.11.2017 21:16 5,9 C 7,8 C 95 % 1013,8 hPa 0,0 l/m 2,2 km/h (1 Bft) O-NO 64 0 min 0,000 mm 0,0 UV-I 0 W/m 5,2 C 5,9 C 3,2 km/h (1 Bft) 100,00 %
04.11.2017 21:18 5,9 C 7,8 C 95 % 1013,8 hPa 0,0 l/m 3,7 km/h (1 Bft) O-NO 64 0 min 0,000 mm 0,0 UV-I 0 W/m 5,2 C 5,9 C 4,8 km/h (1 Bft) 97,56 %
04.11.2017 21:20 5,9 C 7,8 C 95 % 1013,7 hPa 0,0 l/m 4,2 km/h (1 Bft) O-NO 64 0 min 0,000 mm 0,0 UV-I 0 W/m 5,2 C 5,9 C 6,4 km/h (2 Bft) 96,00 %
04.11.2017 21:22 6,1 C 7,8 C 95 % 1013,7 hPa 0,0 l/m 4,9 km/h (1 Bft) O-NO 71 0 min 0,000 mm 0,0 UV-I 0 W/m 5,4 C 6,1 C 6,4 km/h (2 Bft) 97,67 %
04.11.2017 21:24 6,2 C 7,8 C 95 % 1013,8 hPa 0,0 l/m 3,7 km/h (1 Bft) O-NO 71 0 min 0,000 mm 0,0 UV-I 0 W/m 5,5 C 6,2 C 6,4 km/h (2 Bft) 94,00 %
04.11.2017 21:26 6,2 C 7,8 C 95 % 1013,8 hPa 0,0 l/m 1,5 km/h (1 Bft) O-NO 71 0 min 0,000 mm 0,0 UV-I 0 W/m 5,5 C 6,2 C 4,8 km/h (1 Bft) 100,00 %
04.11.2017 21:28 6,3 C 7,8 C 95 % 1013,9 hPa 0,0 l/m 1,5 km/h (1 Bft) O-NO 71 0 min 0,000 mm 0,0 UV-I 0 W/m 5,6 C 6,3 C 3,2 km/h (1 Bft) 96,00 %
04.11.2017 21:30 6,2 C 7,8 C 94 % 1013,9 hPa 0,0 l/m 0,0 km/h (0 Bft) O-NO 71 0 min 0,000 mm 0,0 UV-I 0 W/m 5,3 C 6,2 C 0,0 km/h (0 Bft) 97,56 %
04.11.2017 21:32 6,0 C 7,8 C 94 % 1013,9 hPa 0,0 l/m 0,0 km/h (0 Bft) O-NO 71 0 min 0,000 mm 0,0 UV-I 0 W/m 5,1 C 6,0 C 0,0 km/h (0 Bft) 95,74 %
04.11.2017 21:34 5,8 C 7,8 C 94 % 1013,9 hPa 0,0 l/m 0,0 km/h (0 Bft) O-NO 71 0 min 0,000 mm 0,0 UV-I 0 W/m 4,9 C 5,8 C 0,0 km/h (0 Bft) 97,87 %
04.11.2017 21:36 5,6 C 7,8 C 94 % 1013,9 hPa 0,0 l/m 0,0 km/h (0 Bft) O-NO 71 0 min 0,000 mm 0,0 UV-I 0 W/m 4,7 C 5,6 C 0,0 km/h (0 Bft) 96,00 %
04.11.2017 21:38 5,4 C 7,8 C 94 % 1013,9 hPa 0,0 l/m 0,0 km/h (0 Bft) O-NO 71 0 min 0,000 mm 0,0 UV-I 0 W/m 4,5 C 5,4 C 0,0 km/h (0 Bft) 98,00 %
04.11.2017 21:40 5,4 C 7,8 C 95 % 1013,9 hPa 0,0 l/m 0,0 km/h (0 Bft) O-NO 71 0 min 0,000 mm 0,0 UV-I 0 W/m 4,7 C 5,4 C 0,0 km/h (0 Bft) 98,00 %
04.11.2017 21:42 5,5 C 7,8 C 95 % 1013,9 hPa 0,0 l/m 0,0 km/h (0 Bft) O-NO 71 0 min 0,000 mm 0,0 UV-I 0 W/m 4,8 C 5,5 C 0,0 km/h (0 Bft) 97,37 %
04.11.2017 21:44 5,5 C 7,8 C 95 % 1013,9 hPa 0,0 l/m 0,0 km/h (0 Bft) O-NO 71 0 min 0,000 mm 0,0 UV-I 0 W/m 4,8 C 5,5 C 0,0 km/h (0 Bft) 94,00 %
04.11.2017 21:46 5,5 C 7,8 C 95 % 1013,9 hPa 0,0 l/m 0,0 km/h (0 Bft) O-NO 71 0 min 0,000 mm 0,0 UV-I 0 W/m 4,8 C 5,5 C 0,0 km/h (0 Bft) 95,74 %
04.11.2017 21:48 5,4 C 7,8 C 95 % 1013,8 hPa 0,0 l/m 0,0 km/h (0 Bft) O-NO 71 0 min 0,000 mm 0,0 UV-I 0 W/m 4,7 C 5,4 C 0,0 km/h (0 Bft) 97,87 %
04.11.2017 21:50 5,3 C 7,8 C 95 % 1013,8 hPa 0,0 l/m 0,0 km/h (0 Bft) O-NO 71 0 min 0,000 mm 0,0 UV-I 0 W/m 4,6 C 5,3 C 0,0 km/h (0 Bft) 97,56 %
04.11.2017 21:52 5,3 C 7,8 C 95 % 1013,8 hPa 0,0 l/m 0,0 km/h (0 Bft) O-NO 71 0 min 0,000 mm 0,0 UV-I 0 W/m 4,6 C 5,3 C 0,0 km/h (0 Bft) 97,87 %
04.11.2017 21:54 5,3 C 7,8 C 95 % 1013,8 hPa 0,0 l/m 0,0 km/h (0 Bft) O-NO 71 0 min 0,000 mm 0,0 UV-I 0 W/m 4,6 C 5,3 C 0,0 km/h (0 Bft) 98,00 %
04.11.2017 21:56 5,3 C 7,8 C 95 % 1013,8 hPa 0,0 l/m 0,0 km/h (0 Bft) O-NO 71 0 min 0,000 mm 0,0 UV-I 0 W/m 4,6 C 5,3 C 0,0 km/h (0 Bft) 98,00 %
04.11.2017 21:58 5,3 C 7,8 C 95 % 1013,7 hPa 0,0 l/m 0,0 km/h (0 Bft) O-NO 71 0 min 0,000 mm 0,0 UV-I 0 W/m 4,6 C 5,3 C 0,0 km/h (0 Bft) 97,87 %
04.11.2017 22:00 5,4 C 7,8 C 95 % 1013,7 hPa 0,0 l/m 0,0 km/h (0 Bft) O-NO 71 0 min 0,000 mm 0,0 UV-I 0 W/m 4,7 C 5,4 C 0,0 km/h (0 Bft) 93,62 %
04.11.2017 22:03 5,4 C 7,8 C 96 % 1013,7 hPa 0,0 l/m 0,0 km/h (0 Bft) O-NO 71 0 min 0,000 mm 0,0 UV-I 0 W/m 4,8 C 5,4 C 0,0 km/h (0 Bft) 97,40 %
04.11.2017 22:04 5,3 C 7,8 C 95 % 1013,7 hPa 0,0 l/m 0,0 km/h (0 Bft) O-NO 71 0 min 0,000 mm 0,0 UV-I 0 W/m 4,6 C 5,3 C 0,0 km/h (0 Bft) 91,67 %
04.11.2017 22:06 5,3 C 7,8 C 95 % 1013,6 hPa 0,0 l/m 0,0 km/h (0 Bft) O-NO 71 0 min 0,000 mm 0,0 UV-I 0 W/m 4,6 C 5,3 C 0,0 km/h (0 Bft) 98,11 %
04.11.2017 22:08 5,2 C 7,8 C 95 % 1013,6 hPa 0,0 l/m 0,6 km/h (0 Bft) O-NO 71 0 min 0,000 mm 0,0 UV-I 0 W/m 4,5 C 5,2 C 1,6 km/h (1 Bft) 97,37 %
04.11.2017 22:10 5,4 C 7,8 C 96 % 1013,5 hPa 0,0 l/m 2,0 km/h (1 Bft) O-NO 71 0 min 0,000 mm 0,0 UV-I 0 W/m 4,8 C 5,4 C 3,2 km/h (1 Bft) 94,64 %
04.11.2017 22:12 5,4 C 7,8 C 96 % 1013,5 hPa 0,0 l/m 2,1 km/h (1 Bft) O-NO 71 0 min 0,000 mm 0,0 UV-I 0 W/m 4,8 C 5,4 C 3,2 km/h (1 Bft) 94,74 %
04.11.2017 22:14 5,4 C 7,8 C 96 % 1013,5 hPa 0,0 l/m 2,4 km/h (1 Bft) O-NO 71 0 min 0,000 mm 0,0 UV-I 0 W/m 4,8 C 5,4 C 3,2 km/h (1 Bft) 97,87 %
04.11.2017 22:16 5,4 C 7,8 C 96 % 1013,5 hPa 0,0 l/m 2,5 km/h (1 Bft) O-NO 71 0 min 0,000 mm 0,0 UV-I 0 W/m 4,8 C 5,4 C 3,2 km/h (1 Bft) 98,00 %
04.11.2017 22:18 5,4 C 7,8 C 96 % 1013,5 hPa 0,0 l/m 2,1 km/h (1 Bft) O-NO 71 0 min 0,000 mm 0,0 UV-I 0 W/m 4,8 C 5,4 C 3,2 km/h (1 Bft) 98,11 %
04.11.2017 22:20 5,4 C 7,8 C 96 % 1013,5 hPa 0,0 l/m 2,4 km/h (1 Bft) O-NO 71 0 min 0,000 mm 0,0 UV-I 0 W/m 4,8 C 5,4 C 3,2 km/h (1 Bft) 92,11 %
04.11.2017 22:22 5,4 C 7,8 C 96 % 1013,5 hPa 0,0 l/m 2,1 km/h (1 Bft) O-NO 71 0 min 0,000 mm 0,0 UV-I 0 W/m 4,8 C 5,4 C 3,2 km/h (1 Bft) 98,21 %
04.11.2017 22:24 5,3 C 7,8 C 95 % 1013,4 hPa 0,0 l/m 3,3 km/h (1 Bft) O-NO 71 0 min 0,000 mm 0,0 UV-I 0 W/m 4,6 C 5,3 C 4,8 km/h (1 Bft) 96,55 %
04.11.2017 22:26 5,3 C 7,8 C 95 % 1013,3 hPa 0,0 l/m 4,7 km/h (1 Bft) O-NO 71 0 min 0,000 mm 0,0 UV-I 0 W/m 4,6 C 5,3 C 6,4 km/h (2 Bft) 96,77 %
04.11.2017 22:28 5,1 C 7,8 C 95 % 1013,3 hPa 0,0 l/m 5,2 km/h (1 Bft) O-NO 71 0 min 0,000 mm 0,0 UV-I 0 W/m 4,4 C 5,1 C 8,0 km/h (2 Bft) 100,00 %
04.11.2017 22:30 5,2 C 7,8 C 96 % 1013,3 hPa 0,0 l/m 5,2 km/h (1 Bft) O-NO 71 0 min 0,000 mm 0,0 UV-I 0 W/m 4,6 C 5,2 C 8,0 km/h (2 Bft) 97,14 %
04.11.2017 22:32 5,2 C 7,8 C 96 % 1013,3 hPa 0,0 l/m 3,0 km/h (1 Bft) O-NO 71 0 min 0,000 mm 0,0 UV-I 0 W/m 4,6 C 5,2 C 4,8 km/h (1 Bft) 100,00 %
04.11.2017 22:34 5,3 C 7,8 C 96 % 1013,3 hPa 0,0 l/m 3,0 km/h (1 Bft) O-NO 71 0 min 0,000 mm 0,0 UV-I 0 W/m 4,7 C 5,3 C 4,8 km/h (1 Bft) 98,00 %
04.11.2017 22:36 5,3 C 7,8 C 96 % 1013,3 hPa 0,0 l/m 3,7 km/h (1 Bft) O-NO 71 0 min 0,000 mm 0,0 UV-I 0 W/m 4,7 C 5,3 C 6,4 km/h (2 Bft) 97,56 %
04.11.2017 22:38 5,3 C 7,8 C 96 % 1013,3 hPa 0,0 l/m 4,1 km/h (1 Bft) O-NO 71 0 min 0,000 mm 0,0 UV-I 0 W/m 4,7 C 5,3 C 4,8 km/h (1 Bft) 100,00 %
04.11.2017 22:40 5,2 C 7,8 C 96 % 1013,2 hPa 0,0 l/m 4,8 km/h (1 Bft) O-NO 71 0 min 0,000 mm 0,0 UV-I 0 W/m 4,6 C 5,2 C 8,0 km/h (2 Bft) 100,00 %
04.11.2017 22:42 5,1 C 7,8 C 96 % 1013,2 hPa 0,0 l/m 3,8 km/h (1 Bft) O-NO 71 0 min 0,000 mm 0,0 UV-I 0 W/m 4,5 C 5,1 C 4,8 km/h (1 Bft) 100,00 %
04.11.2017 22:44 5,1 C 7,8 C 96 % 1013,2 hPa 0,0 l/m 4,9 km/h (1 Bft) O-NO 71 0 min 0,000 mm 0,0 UV-I 0 W/m 4,5 C 5,1 C 6,4 km/h (2 Bft) 100,00 %
04.11.2017 22:46 5,2 C 7,8 C 96 % 1013,3 hPa 0,0 l/m 3,7 km/h (1 Bft) O-NO 71 0 min 0,000 mm 0,0 UV-I 0 W/m 4,6 C 5,2 C 6,4 km/h (2 Bft) 97,44 %
04.11.2017 22:48 5,3 C 7,8 C 96 % 1013,3 hPa 0,0 l/m 1,6 km/h (1 Bft) O-NO 71 0 min 0,000 mm 0,0 UV-I 0 W/m 4,7 C 5,3 C 4,8 km/h (1 Bft) 100,00 %
04.11.2017 22:50 5,1 C 7,8 C 96 % 1013,3 hPa 0,0 l/m 0,0 km/h (0 Bft) O-NO 71 0 min 0,000 mm 0,0 UV-I 0 W/m 4,5 C 5,1 C 0,0 km/h (0 Bft) 100,00 %
04.11.2017 22:52 4,8 C 7,8 C 95 % 1013,2 hPa 0,0 l/m 0,1 km/h (0 Bft) O-NO 71 0 min 0,000 mm 0,0 UV-I 0 W/m 4,1 C 4,8 C 1,6 km/h (1 Bft) 100,00 %
04.11.2017 22:54 4,7 C 7,8 C 95 % 1013,2 hPa 0,0 l/m 1,3 km/h (1 Bft) O-NO 71 0 min 0,000 mm 0,0 UV-I 0 W/m 4,0 C 4,7 C 3,2 km/h (1 Bft) 100,00 %
04.11.2017 22:56 4,6 C 7,8 C 95 % 1013,1 hPa 0,0 l/m 0,6 km/h (0 Bft) O-NO 71 0 min 0,000 mm 0,0 UV-I 0 W/m 3,9 C 4,6 C 1,6 km/h (1 Bft) 100,00 %
04.11.2017 22:58 4,7 C 7,8 C 96 % 1013,1 hPa 0,0 l/m 0,3 km/h (0 Bft) O-NO 71 0 min 0,000 mm 0,0 UV-I 0 W/m 4,1 C 4,7 C 1,6 km/h (1 Bft) 100,00 %
04.11.2017 23:00 4,8 C 7,8 C 96 % 1013,2 hPa 0,0 l/m 0,0 km/h (0 Bft) O-NO 71 0 min 0,000 mm 0,0 UV-I 0 W/m 4,2 C 4,8 C 0,0 km/h (0 Bft) 100,00 %
04.11.2017 23:02 4,9 C 7,8 C 96 % 1013,2 hPa 0,0 l/m 0,0 km/h (0 Bft) O-NO 71 0 min 0,000 mm 0,0 UV-I 0 W/m 4,3 C 4,9 C 0,0 km/h (0 Bft) 98,00 %
04.11.2017 23:04 4,9 C 7,8 C 96 % 1013,2 hPa 0,0 l/m 0,0 km/h (0 Bft) O-NO 71 0 min 0,000 mm 0,0 UV-I 0 W/m 4,3 C 4,9 C 0,0 km/h (0 Bft) 97,87 %
04.11.2017 23:06 4,8 C 7,8 C 96 % 1013,2 hPa 0,0 l/m 0,5 km/h (0 Bft) O-NO 71 0 min 0,000 mm 0,0 UV-I 0 W/m 4,2 C 4,8 C 1,6 km/h (1 Bft) 97,56 %
04.11.2017 23:08 4,8 C 7,8 C 96 % 1013,2 hPa 0,0 l/m 1,8 km/h (1 Bft) O-NO 71 0 min 0,000 mm 0,0 UV-I 0 W/m 4,2 C 4,8 C 3,2 km/h (1 Bft) 96,00 %
04.11.2017 23:10 4,8 C 7,8 C 96 % 1013,1 hPa 0,0 l/m 2,2 km/h (1 Bft) O-NO 71 0 min 0,000 mm 0,0 UV-I 0 W/m 4,2 C 4,8 C 3,2 km/h (1 Bft) 97,56 %
04.11.2017 23:12 4,9 C 7,8 C 96 % 1013,1 hPa 0,0 l/m 2,7 km/h (1 Bft) O-NO 71 0 min 0,000 mm 0,0 UV-I 0 W/m 4,3 C 4,9 C 4,8 km/h (1 Bft) 95,74 %
04.11.2017 23:14 5,0 C 7,8 C 96 % 1013,1 hPa 0,0 l/m 3,2 km/h (1 Bft) O-NO 71 0 min 0,000 mm 0,0 UV-I 0 W/m 4,4 C 5,0 C 4,8 km/h (1 Bft) 97,87 %
04.11.2017 23:16 4,9 C 7,8 C 96 % 1013,1 hPa 0,0 l/m 3,3 km/h (1 Bft) O-NO 71 0 min 0,000 mm 0,0 UV-I 0 W/m 4,3 C 4,9 C 4,8 km/h (1 Bft) 95,74 %
04.11.2017 23:18 4,8 C 7,8 C 96 % 1013,1 hPa 0,0 l/m 1,3 km/h (1 Bft) O-NO 71 0 min 0,000 mm 0,0 UV-I 0 W/m 4,2 C 4,8 C 3,2 km/h (1 Bft) 98,00 %
04.11.2017 23:20 4,8 C 7,8 C 96 % 1013,2 hPa 0,0 l/m 0,3 km/h (0 Bft) O-NO 71 0 min 0,000 mm 0,0 UV-I 0 W/m 4,2 C 4,8 C 1,6 km/h (1 Bft) 98,00 %
04.11.2017 23:22 4,8 C 7,8 C 96 % 1013,2 hPa 0,0 l/m 1,3 km/h (1 Bft) O-NO 71 0 min 0,000 mm 0,0 UV-I 0 W/m 4,2 C 4,8 C 3,2 km/h (1 Bft) 97,44 %
04.11.2017 23:24 4,8 C 7,8 C 96 % 1013,1 hPa 0,0 l/m 1,5 km/h (1 Bft) O-NO 71 0 min 0,000 mm 0,0 UV-I 0 W/m 4,2 C 4,8 C 1,6 km/h (1 Bft) 98,00 %
04.11.2017 23:26 4,9 C 7,8 C 96 % 1013,1 hPa 0,0 l/m 2,1 km/h (1 Bft) O-NO 71 0 min 0,000 mm 0,0 UV-I 0 W/m 4,3 C 4,9 C 3,2 km/h (1 Bft) 93,62 %
04.11.2017 23:28 4,9 C 7,8 C 96 % 1013,1 hPa 0,0 l/m 2,4 km/h (1 Bft) O-NO 71 0 min 0,000 mm 0,0 UV-I 0 W/m 4,3 C 4,9 C 3,2 km/h (1 Bft) 98,00 %
04.11.2017 23:30 4,9 C 7,8 C 96 % 1013,0 hPa 0,0 l/m 2,2 km/h (1 Bft) O-NO 71 0 min 0,000 mm 0,0 UV-I 0 W/m 4,3 C 4,9 C 3,2 km/h (1 Bft) 97,87 %
04.11.2017 23:32 5,0 C 7,8 C 96 % 1013,0 hPa 0,0 l/m 2,0 km/h (1 Bft) O-NO 71 0 min 0,000 mm 0,0 UV-I 0 W/m 4,4 C 5,0 C 3,2 km/h (1 Bft) 98,00 %
04.11.2017 23:34 5,0 C 7,8 C 96 % 1013,1 hPa 0,0 l/m 0,9 km/h (0 Bft) O-NO 71 0 min 0,000 mm 0,0 UV-I 0 W/m 4,4 C 5,0 C 3,2 km/h (1 Bft) 94,74 %
04.11.2017 23:36 4,9 C 7,8 C 96 % 1013,0 hPa 0,0 l/m 1,4 km/h (1 Bft) O-NO 71 0 min 0,000 mm 0,0 UV-I 0 W/m 4,3 C 4,9 C 3,2 km/h (1 Bft) 97,87 %
04.11.2017 23:38 4,9 C 7,8 C 96 % 1013,0 hPa 0,0 l/m 2,0 km/h (1 Bft) O-NO 71 0 min 0,000 mm 0,0 UV-I 0 W/m 4,3 C 4,9 C 3,2 km/h (1 Bft) 95,74 %
04.11.2017 23:40 4,9 C 7,8 C 96 % 1013,0 hPa 0,0 l/m 1,7 km/h (1 Bft) O-NO 71 0 min 0,000 mm 0,0 UV-I 0 W/m 4,3 C 4,9 C 3,2 km/h (1 Bft) 100,00 %
04.11.2017 23:42 4,9 C 7,8 C 96 % 1013,0 hPa 0,0 l/m 0,9 km/h (0 Bft) O-NO 71 0 min 0,000 mm 0,0 UV-I 0 W/m 4,3 C 4,9 C 1,6 km/h (1 Bft) 97,87 %
04.11.2017 23:44 4,9 C 7,8 C 96 % 1013,0 hPa 0,0 l/m 0,2 km/h (0 Bft) O-NO 71 0 min 0,000 mm 0,0 UV-I 0 W/m 4,3 C 4,9 C 1,6 km/h (1 Bft) 100,00 %
04.11.2017 23:46 4,9 C 7,8 C 96 % 1012,9 hPa 0,0 l/m 0,0 km/h (0 Bft) O-NO 71 0 min 0,000 mm 0,0 UV-I 0 W/m 4,3 C 4,9 C 0,0 km/h (0 Bft) 97,87 %
04.11.2017 23:48 4,8 C 7,8 C 96 % 1012,9 hPa 0,0 l/m 0,0 km/h (0 Bft) O-NO 71 0 min 0,000 mm 0,0 UV-I 0 W/m 4,2 C 4,8 C 0,0 km/h (0 Bft) 97,73 %
04.11.2017 23:50 4,7 C 7,8 C 96 % 1012,9 hPa 0,0 l/m 0,0 km/h (0 Bft) O-NO 71 0 min 0,000 mm 0,0 UV-I 0 W/m 4,1 C 4,7 C 0,0 km/h (0 Bft) 100,00 %
04.11.2017 23:52 4,7 C 7,8 C 96 % 1012,9 hPa 0,0 l/m 1,8 km/h (1 Bft) O-NO 71 0 min 0,000 mm 0,0 UV-I 0 W/m 4,1 C 4,7 C 3,2 km/h (1 Bft) 100,00 %
04.11.2017 23:54 4,8 C 7,8 C 97 % 1012,8 hPa 0,0 l/m 3,3 km/h (1 Bft) O-NO 71 0 min 0,000 mm 0,0 UV-I 0 W/m 4,4 C 4,8 C 4,8 km/h (1 Bft) 100,00 %
04.11.2017 23:56 4,8 C 7,8 C 97 % 1012,8 hPa 0,0 l/m 3,9 km/h (1 Bft) O-NO 71 0 min 0,000 mm 0,0 UV-I 0 W/m 4,4 C 4,8 C 4,8 km/h (1 Bft) 97,56 %
04.11.2017 23:58 4,9 C 7,8 C 97 % 1012,8 hPa 0,0 l/m 3,4 km/h (1 Bft) O-NO 71 0 min 0,000 mm 0,0 UV-I 0 W/m 4,5 C 4,9 C 4,8 km/h (1 Bft) 97,87 %
_ Min-Zeit 06:40 00:18 14:10 23:54 - 01:40 - - - - - - 06:40 06:40 01:40 16:15
Minimum _ -0,7 C 7,8 C 82 % 1012,8 hPa - 0,0 km/h (0 Bft) - - - - - - -1,1 C -0,7 C 0,0 km/h (0 Bft) 85,96 %
_ Max-Zeit 14:04 00:00 09:10 10:30 05:50 00:04 - - 07:06 12:00 11:22 12:04 15:14 14:04 00:04 00:00
Maximum _ 9,4 C 8,3 C 98 % 1015,6 hPa 0,2 l/m 8,7 km/h
O-NO (2 Bft)
- - 2 min 0,127 mm 1,2 UV-I 412 W/m 7,3 C 9,4 C 12,9 km/h
O (3 Bft)
100,00 %
Durchschnitt _ 4,5 C 7,8 C 94 % 1014,3 hPa #0,2 l/m 2,2 km/h (1 Bft) O-NO - #5:46 h #0,711 mm 0,9 UV-I 174 W/m 3,6 C 4,5 C 3,7 km/h (1 Bft) 97,40 %